[[{"header":{"parameterUnit":"m.s-1","parameterCategory":1,"la1":30.6,"la2":29.2853,"lo1":-89.7004,"lo2":-87.6739,"dy":0.0162,"dx":0.0183,"nx":112,"ny":82,"refTime":"2023-08-20T06:00:00:Z","depth":0,"parameterNumber":2,"parameterNumberName":"U-component_of_WINDS"},"data":[0.0,0.0,0.0,0.0,0.0,0.0,0.0,0.0,0.0,0.0,0.0,0.0,0.0,0.0,0.0,0.0,0.0,0.0,0.0,0.0,0.0,0.0,0.0,0.0,0.0,0.0,0.0,0.0,0.0,0.0,0.0,0.0,0.0,0.0,0.0,0.0,0.0,0.0,0.0,0.0,0.0,0.0,0.0,0.0,0.0,0.0,0.0,0.0,0.0,0.0,0.0,0.0,0.0,0.0,0.0,0.0,0.0,0.0,0.0,0.0,0.0,0.0,0.0,0.0,0.0,0.0,0.0,0.0,0.0,0.0,0.0,0.0,0.0,0.0,0.0,0.0,0.0,0.0,0.0,0.0,0.0,0.0,0.0,0.0,0.0,0.0,0.0,0.0,0.0,0.0,2.1858,2.1969,2.2115,2.217,2.217,2.217,2.217,2.217,0.0,0.0,0.0,0.0,0.0,0.0,0.0,0.0,0.0,0.0,0.0,0.0,0.0,0.0,0.0,0.0,0.0,0.0,0.0,0.0,0.0,0.0,0.0,0.0,0.0,0.0,0.0,0.0,0.0,0.0,0.0,0.0,0.0,0.0,0.0,0.0,0.0,0.0,0.0,0.0,0.0,0.0,0.0,0.0,0.0,0.0,0.0,0.0,0.0,0.0,0.0,0.0,0.0,0.0,0.0,0.0,0.0,0.0,0.0,0.0,0.0,0.0,0.0,0.0,0.0,0.0,0.0,0.0,0.0,0.0,0.0,0.0,0.0,0.0,0.0,0.0,0.0,0.0,0.0,0.0,0.0,0.0,0.0,0.0,0.0,0.0,0.0,0.0,0.0,0.0,0.0,0.0,0.0,0.0,0.0,0.0,0.0,0.0,0.0,0.0,0.0,0.0,0.0,0.0,2.2061,2.274,2.3437,2.3841,2.3841,2.3841,2.3841,2.3841,0.0,0.0,0.0,0.0,0.0,0.0,0.0,0.0,0.0,0.0,0.0,0.0,0.0,0.0,0.0,0.0,0.0,0.0,0.0,0.0,0.0,0.0,0.0,0.0,0.0,0.0,0.0,0.0,0.0,0.0,0.0,0.0,0.0,0.0,0.0,0.0,0.0,0.0,0.0,0.0,0.0,0.0,0.0,0.0,0.0,0.0,0.0,0.0,0.0,0.0,0.0,0.0,0.0,0.0,0.0,0.0,0.0,0.0,0.0,0.0,0.0,0.0,0.0,0.0,0.0,0.0,0.0,0.0,0.0,0.0,0.0,0.0,0.0,0.0,0.0,0.0,0.0,0.0,0.0,0.0,0.0,0.0,0.0,0.0,0.0,0.0,0.0,0.0,0.0,0.0,0.0,0.0,0.0,0.0,0.0,0.0,0.0,0.0,0.0,0.0,0.0,0.0,0.0,2.3327,2.3235,2.3621,2.3988,2.419,2.419,2.419,2.419,2.419,2.3511,0.0,0.0,0.0,0.0,0.0,0.0,0.0,0.0,0.0,0.0,0.0,0.0,0.0,0.0,0.0,0.0,0.0,0.0,0.0,0.0,0.0,0.0,0.0,0.0,0.0,0.0,0.0,0.0,0.0,0.0,0.0,0.0,0.0,0.0,0.0,0.0,0.0,0.0,0.0,0.0,0.0,0.0,0.0,0.0,0.0,0.0,0.0,0.0,0.0,0.0,0.0,0.0,0.0,0.0,0.0,0.0,0.0,0.0,0.0,0.0,0.0,0.0,0.0,0.0,0.0,0.0,0.0,0.0,0.0,0.0,0.0,0.0,0.0,0.0,0.0,0.0,0.0,0.0,0.0,0.0,0.0,0.0,0.0,0.0,0.0,0.0,0.0,0.0,0.0,0.0,0.0,0.0,0.0,0.0,0.0,0.0,0.0,0.0,0.0,0.0,0.0,0.0,2.4266,2.4266,2.4266,2.4228,2.419,2.419,2.419,2.419,2.419,2.419,0.0,0.0,0.0,0.0,0.0,0.0,0.0,0.0,0.0,0.0,0.0,0.0,0.0,0.0,0.0,0.0,0.0,0.0,0.0,0.0,0.0,0.0,0.0,0.0,0.0,0.0,0.0,0.0,0.0,0.0,0.0,0.0,0.0,0.0,0.0,0.0,0.0,0.0,0.0,0.0,0.0,0.0,0.0,0.0,0.0,0.0,0.0,0.0,0.0,0.0,0.0,0.0,0.0,0.0,0.0,0.0,0.0,0.0,0.0,0.0,0.0,0.0,0.0,0.0,0.0,0.0,0.0,0.0,0.0,0.0,0.0,0.0,0.0,0.0,0.0,0.0,0.0,0.0,0.0,0.0,0.0,0.0,0.0,0.0,0.0,0.0,0.0,0.0,0.0,0.0,0.0,0.0,0.0,0.0,0.0,0.0,0.0,0.0,0.0,0.0,0.0,0.0,2.4478,2.4478,2.4478,2.4321,2.419,2.419,2.419,2.419,2.419,2.419,0.0,0.0,0.0,0.0,0.0,0.0,0.0,0.0,0.0,0.0,0.0,0.0,0.0,0.0,0.0,0.0,0.0,0.0,0.0,0.0,0.0,0.0,0.0,0.0,0.0,0.0,0.0,0.0,0.0,0.0,0.0,0.0,0.0,0.0,0.0,0.0,0.0,0.0,0.0,0.0,0.0,0.0,0.0,0.0,0.0,0.0,0.0,0.0,0.0,0.0,0.0,0.0,0.0,0.0,0.0,0.0,0.0,0.0,0.0,0.0,0.0,0.0,0.0,0.0,0.0,0.0,0.0,0.0,0.0,0.0,0.0,0.0,0.0,0.0,0.0,0.0,0.0,0.0,0.0,0.0,0.0,0.0,0.0,0.0,0.0,0.0,0.0,0.0,0.0,0.0,0.0,0.0,0.0,0.0,0.0,0.0,0.0,0.0,0.0,0.0,0.0,0.0,2.4495,2.4495,2.4495,2.4321,2.419,2.419,2.419,2.419,2.419,0.0,0.0,0.0,0.0,0.0,0.0,0.0,0.0,0.0,0.0,0.0,0.0,0.0,0.0,0.0,0.0,0.0,0.0,0.0,0.0,0.0,0.0,0.0,0.0,0.0,0.0,0.0,0.0,0.0,0.0,0.0,0.0,0.0,0.0,0.0,0.0,0.0,0.0,0.0,0.0,0.0,0.0,0.0,0.0,0.0,0.0,0.0,0.0,0.0,0.0,0.0,0.0,0.0,0.0,0.0,0.0,0.0,0.0,0.0,0.0,0.0,0.0,0.0,0.0,0.0,0.0,0.0,0.0,0.0,0.0,0.0,0.0,0.0,0.0,0.0,0.0,0.0,0.0,0.0,0.0,0.0,0.0,0.0,0.0,0.0,0.0,0.0,0.0,0.0,0.0,0.0,0.0,0.0,0.0,0.0,0.0,0.0,0.0,0.0,0.0,0.0,0.0,2.4678,2.4666,2.4666,2.4666,2.4493,2.4357,2.4303,2.4303,2.4266,2.419,0.0,0.0,0.0,0.0,0.0,0.0,0.0,0.0,0.0,0.0,0.0,0.0,0.0,0.0,0.0,0.0,0.0,0.0,0.0,0.0,0.0,0.0,0.0,0.0,0.0,0.0,0.0,0.0,0.0,0.0,0.0,0.0,0.0,0.0,0.0,0.0,0.0,0.0,0.0,0.0,0.0,0.0,0.0,0.0,0.0,0.0,0.0,0.0,0.0,0.0,0.0,0.0,0.0,0.0,0.0,0.0,0.0,0.0,0.0,0.0,0.0,0.0,0.0,0.0,0.0,0.0,0.0,0.0,0.0,0.0,0.0,0.0,0.0,0.0,0.0,0.0,0.0,0.0,0.0,0.0,0.0,0.0,0.0,0.0,0.0,0.0,0.0,0.0,0.0,0.0,0.0,0.0,0.0,0.0,0.0,0.0,0.0,0.0,0.0,0.0,0.0,0.0,2.5022,2.501,2.501,2.501,2.4896,2.4734,2.4528,2.453,2.4446,0.0,0.0,0.0,0.0,0.0,0.0,0.0,0.0,0.0,0.0,0.0,0.0,0.0,0.0,0.0,0.0,0.0,0.0,0.0,0.0,0.0,0.0,0.0,0.0,0.0,0.0,0.0,0.0,0.0,0.0,0.0,0.0,0.0,0.0,0.0,0.0,0.0,0.0,0.0,0.0,0.0,0.0,0.0,0.0,0.0,0.0,0.0,0.0,0.0,0.0,0.0,0.0,0.0,0.0,0.0,0.0,0.0,0.0,0.0,0.0,0.0,0.0,0.0,0.0,0.0,0.0,0.0,0.0,0.0,0.0,0.0,0.0,0.0,0.0,0.0,0.0,0.0,0.0,0.0,0.0,0.0,0.0,0.0,0.0,0.0,0.0,0.0,0.0,0.0,0.0,0.0,0.0,0.0,0.0,0.0,0.0,0.0,0.0,0.0,0.0,0.0,0.0,0.0,2.5022,2.501,2.501,2.501,2.5389,2.5605,2.5559,2.594,2.6153,2.6117,0.0,0.0,0.0,0.0,0.0,0.0,0.0,0.0,0.0,0.0,0.0,0.0,0.0,0.0,0.0,0.0,0.0,0.0,0.0,0.0,0.0,0.0,0.0,0.0,0.0,0.0,0.0,0.0,0.0,0.0,0.0,0.0,0.0,0.0,0.0,0.0,0.0,0.0,0.0,0.0,0.0,0.0,0.0,0.0,0.0,0.0,0.0,0.0,0.0,0.0,0.0,0.0,0.0,0.0,0.0,0.0,0.0,0.0,0.0,0.0,0.0,0.0,0.0,0.0,0.0,0.0,0.0,0.0,0.0,0.0,0.0,0.0,0.0,0.0,0.0,0.0,0.0,0.0,0.0,0.0,0.0,0.0,0.0,0.0,0.0,0.0,0.0,0.0,0.0,0.0,0.0,0.0,0.0,0.0,0.0,0.0,0.0,0.0,0.0,0.0,0.0,0.0,2.565,2.5945,2.6156,2.6156,2.653,2.6724,2.6655,2.6874,2.7005,2.6916,0.0,0.0,0.0,0.0,0.0,0.0,0.0,0.0,0.0,0.0,0.0,0.0,0.0,0.0,0.0,0.0,0.0,0.0,0.0,0.0,0.0,0.0,0.0,0.0,0.0,0.0,0.0,0.0,0.0,0.0,0.0,0.0,0.0,0.0,0.0,0.0,0.0,0.0,0.0,0.0,0.0,0.0,0.0,0.0,0.0,0.0,0.0,0.0,0.0,0.0,0.0,0.0,0.0,0.0,0.0,0.0,0.0,0.0,0.0,0.0,0.0,0.0,0.0,0.0,0.0,0.0,0.0,0.0,0.0,0.0,0.0,0.0,0.0,0.0,0.0,0.0,0.0,0.0,0.0,0.0,0.0,0.0,0.0,0.0,0.0,0.0,0.0,0.0,0.0,0.0,0.0,0.0,0.0,0.0,0.0,0.0,0.0,0.0,0.0,0.0,0.0,0.0,2.6717,2.7409,2.789,2.789,2.7967,2.7942,2.7752,2.7566,2.7366,2.7176,0.0,0.0,0.0,0.0,0.0,0.0,0.0,0.0,0.0,0.0,0.0,0.0,0.0,0.0,0.0,0.0,0.0,0.0,0.0,0.0,0.0,0.0,0.0,0.0,0.0,0.0,0.0,0.0,0.0,0.0,0.0,0.0,0.0,0.0,0.0,0.0,0.0,0.0,0.0,0.0,0.0,0.0,0.0,0.0,0.0,0.0,0.0,0.0,0.0,0.0,0.0,0.0,0.0,0.0,0.0,0.0,0.0,0.0,0.0,0.0,2.3581,2.3694,0.0,0.0,0.0,0.0,0.0,0.0,0.0,0.0,0.0,0.0,0.0,0.0,0.0,0.0,0.0,0.0,0.0,0.0,0.0,0.0,0.0,0.0,0.0,0.0,0.0,0.0,0.0,0.0,0.0,0.0,0.0,0.0,0.0,0.0,0.0,0.0,0.0,0.0,0.0,0.0,2.7621,2.7775,2.789,2.789,2.8467,2.8821,2.8779,2.9159,2.933,2.9133,2.8913,0.0,0.0,0.0,0.0,0.0,0.0,0.0,0.0,0.0,0.0,0.0,0.0,0.0,0.0,0.0,0.0,0.0,0.0,0.0,0.0,0.0,0.0,0.0,0.0,0.0,0.0,0.0,0.0,0.0,0.0,0.0,0.0,0.0,0.0,0.0,0.0,0.0,0.0,0.0,0.0,0.0,0.0,0.0,0.0,0.0,0.0,0.0,0.0,0.0,0.0,0.0,0.0,0.0,0.0,0.0,0.0,0.0,0.0,0.0,2.4139,2.4054,0.0,0.0,0.0,0.0,0.0,0.0,0.0,0.0,0.0,0.0,0.0,0.0,0.0,0.0,0.0,0.0,0.0,0.0,0.0,0.0,0.0,0.0,0.0,0.0,0.0,0.0,0.0,0.0,0.0,0.0,0.0,0.0,0.0,0.0,0.0,0.0,0.0,0.0,0.0,0.0,2.8467,2.8832,2.9102,2.9102,2.9486,2.9717,2.9717,2.9799,2.9813,2.9713,2.9395,0.0,0.0,0.0,0.0,0.0,0.0,0.0,0.0,0.0,0.0,0.0,0.0,0.0,0.0,0.0,0.0,0.0,0.0,0.0,0.0,0.0,0.0,0.0,0.0,0.0,0.0,0.0,0.0,0.0,0.0,0.0,0.0,0.0,0.0,0.0,0.0,0.0,0.0,0.0,0.0,0.0,0.0,0.0,0.0,0.0,0.0,0.0,0.0,0.0,0.0,0.0,0.0,0.0,2.359,2.4005,2.4022,2.4923,2.5366,2.535,2.4367,2.4147,2.4496,2.4368,0.0,0.0,0.0,0.0,0.0,0.0,0.0,0.0,0.0,0.0,0.0,0.0,0.0,0.0,0.0,0.0,0.0,0.0,0.0,0.0,0.0,0.0,2.5745,2.5745,2.5745,2.5745,2.5745,0.0,0.0,0.0,0.0,0.0,0.0,0.0,0.0,0.0,0.0,0.0,2.9333,2.9948,3.0398,3.0398,3.0398,3.0398,3.0398,3.0007,2.9748,2.9713,2.9293,2.9044,0.0,0.0,0.0,0.0,0.0,0.0,0.0,0.0,0.0,0.0,0.0,0.0,0.0,0.0,0.0,0.0,0.0,0.0,0.0,0.0,0.0,0.0,0.0,0.0,0.0,0.0,0.0,0.0,0.0,0.0,0.0,0.0,1.9748,1.9833,0.0,0.0,0.0,0.0,0.0,0.0,0.0,0.0,0.0,0.0,0.0,0.0,0.0,2.3562,2.4188,2.4218,2.4218,2.4218,2.435,2.4414,2.4431,2.4577,2.479,2.5045,2.4893,0.0,2.5718,2.501,0.0,0.0,0.0,0.0,0.0,0.0,0.0,0.0,0.0,0.0,0.0,0.0,0.0,0.0,0.0,0.0,0.0,0.0,0.0,0.0,0.0,0.0,2.7563,2.7563,2.7563,2.7563,2.7563,2.6967,2.6697,2.7563,2.7736,2.7775,0.0,0.0,0.0,0.0,0.0,0.0,3.0237,3.0321,3.0398,3.0398,3.0398,3.0398,3.0398,3.0122,2.9893,2.9713,2.9474,2.9246,2.9017,2.8994,0.0,0.0,0.0,0.0,0.0,0.0,0.0,0.0,0.0,0.0,0.0,0.0,0.0,0.0,0.0,0.0,0.0,0.0,0.0,0.0,0.0,0.0,0.0,0.0,0.0,0.0,0.0,0.0,0.0,2.0196,2.067,2.067,2.1346,2.182,0.0,0.0,0.0,0.0,0.0,0.0,0.0,0.0,0.0,2.4002,2.4002,2.4154,2.4506,2.4506,2.4506,2.4506,2.4915,2.5118,2.5118,2.5541,2.5807,2.5965,2.5965,2.6268,2.6664,2.5821,2.5905,2.6557,0.0,0.0,0.0,0.0,2.6263,2.6321,2.6257,2.6284,2.6416,2.6683,0.0,0.0,0.0,0.0,0.0,0.0,0.0,2.7813,2.7428,2.7601,2.789,2.789,2.789,2.8025,2.8467,2.8275,2.8121,2.8486,2.8563,2.8736,2.9217,2.9602,0.0,0.0,0.0,3.0398,3.0398,3.0398,3.0398,3.0398,3.0398,3.0398,3.0398,3.0052,2.9796,2.9713,2.9375,2.9134,2.9017,2.8994,2.8994,0.0,0.0,0.0,0.0,0.0,0.0,0.0,0.0,0.0,0.0,0.0,0.0,0.0,0.0,0.0,0.0,0.0,0.0,0.0,0.0,0.0,0.0,0.0,0.0,0.0,0.0,0.0,0.0,2.0974,2.1465,2.1465,2.1972,2.231,0.0,0.0,0.0,0.0,0.0,0.0,2.3663,2.4188,2.4608,2.4763,2.4763,2.4864,2.5082,2.5082,2.5082,2.505,2.5625,2.5879,2.5896,2.6437,2.6691,2.6691,2.6691,2.6939,2.7213,2.6366,2.6441,2.7031,2.683,2.6929,2.72,2.6979,2.6948,2.6999,2.7167,2.7236,2.7361,2.7773,2.8044,2.8198,2.8198,0.0,0.0,0.0,0.0,2.8486,2.8255,2.8371,2.8544,2.8544,2.8544,2.8698,2.9294,2.9429,2.9429,2.9429,2.9429,2.964,3.0294,3.0398,0.0,3.0398,3.0398,3.0398,3.0398,3.0398,3.0398,3.0398,3.0398,3.0367,3.0311,2.9927,2.9678,2.9644,2.9228,2.8994,2.8994,2.8994,2.8994,2.8994,0.0,0.0,0.0,0.0,0.0,0.0,0.0,0.0,0.0,0.0,0.0,0.0,0.0,0.0,0.0,0.0,0.0,0.0,0.0,0.0,0.0,0.0,0.0,0.0,0.0,0.0,0.0,0.0,0.0,2.2243,2.2293,0.0,0.0,0.0,0.0,2.3342,2.4019,2.4455,2.4455,2.4489,2.4814,2.5524,2.5541,2.5879,2.6573,2.6573,2.6573,2.6573,2.6623,2.664,2.664,2.6674,2.6691,2.6691,2.6691,2.6939,2.7234,2.6424,2.6972,2.8222,2.7488,2.7858,2.8773,2.8026,2.7846,2.794,2.7389,2.7327,2.7535,2.7816,2.8409,2.9044,2.9044,2.9621,0.0,0.0,2.964,3.0083,2.9256,2.966,3.0263,3.0263,3.0263,3.0283,3.0321,3.0321,3.0321,3.0321,3.0321,3.034,3.0379,0.0,3.0398,3.0398,3.0398,3.0398,3.0398,3.0398,3.0398,3.0398,3.0398,3.0299,3.0028,2.9813,2.9626,2.9414,2.9138,2.8994,2.8994,2.8994,2.8994,2.8994,2.8994,0.0,0.0,0.0,0.0,0.0,0.0,0.0,0.0,0.0,0.0,0.0,0.0,0.0,0.0,0.0,0.0,0.0,0.0,0.0,0.0,0.0,0.0,0.0,0.0,0.0,0.0,0.0,0.0,2.231,2.2733,0.0,2.3004,2.3663,2.4103,2.4103,2.478,2.5203,2.5203,2.5659,2.6031,2.6302,2.6302,2.642,2.6691,2.6691,2.6691,2.6691,2.6691,2.6691,2.6691,2.6691,2.6691,2.6691,2.6691,2.6791,2.6872,2.6584,2.7105,2.8066,2.7993,2.8236,2.8621,2.8576,2.8621,2.8679,2.8632,2.8652,2.8777,2.9141,2.9557,2.9948,2.9948,3.016,3.034,3.0025,3.016,3.0321,3.0025,3.0179,3.0398,3.0398,3.0398,3.0398,3.0398,3.0398,3.0398,3.0398,3.0398,3.0398,3.0398,3.0398,3.0398,3.0398,3.0398,3.0398,3.0398,3.0398,3.0398,3.0398,3.0398,3.0299,3.0013,2.9813,2.9607,2.9394,2.9156,2.8994,2.8994,2.8994,2.8994,2.8994,2.8994,2.8994,0.0,0.0,0.0,0.0,0.0,0.0,0.0,0.0,0.0,0.0,0.0,0.0,0.0,0.0,0.0,0.0,0.0,0.0,0.0,0.0,0.0,0.0,0.0,0.0,0.0,2.231,2.2395,2.2649,2.3105,2.3494,2.3748,2.4425,2.4864,2.4864,2.5541,2.5981,2.5981,2.6437,2.6691,2.6691,2.6691,2.6691,2.6691,2.6691,2.6691,2.6691,2.6691,2.6691,2.6691,2.6691,2.6691,2.6691,2.6691,2.6691,2.6691,2.6691,2.7019,2.753,2.789,2.8192,2.842,2.8682,2.8887,2.904,2.931,2.9474,2.9662,2.9924,3.0182,3.0398,3.0398,3.0398,3.0398,3.0398,3.0398,3.0398,3.0398,3.0398,3.0398,3.0398,3.0398,3.0398,3.0398,3.0398,3.0398,3.0398,3.0398,3.0398,3.0398,3.0398,3.0398,3.0398,3.0398,3.0398,3.0398,3.0398,3.0398,3.0398,3.0311,3.0169,2.9924,2.9713,2.9494,2.9289,2.9089,2.8994,2.8994,2.8994,2.8994,2.8994,2.8994,2.8994,2.8994,0.0,0.0,0.0,0.0,0.0,0.0,0.0,0.0,0.0,0.0,0.0,0.0,0.0,0.0,0.0,0.0,0.0,0.0,0.0,0.0,0.0,0.0,0.0,2.2344,2.2344,2.2615,2.3342,2.3444,2.3748,2.4472,2.5203,2.5642,2.5642,2.6302,2.6691,2.6691,2.6691,2.6691,2.6691,2.6691,2.6708,2.6725,2.6725,2.6742,2.6725,2.6759,2.6759,2.6725,2.6759,2.6759,2.6759,2.6759,2.6759,2.6759,2.6759,2.6759,2.6826,2.7164,2.7747,2.8368,2.8394,2.8658,2.904,2.9289,2.9643,2.9984,2.9999,3.0163,3.0398,3.0398,3.0398,3.0398,3.0398,3.0398,3.0398,3.0398,3.0398,3.0398,3.0398,3.0398,3.0398,3.0398,3.0398,3.0398,3.0398,3.0398,3.0398,3.0398,3.0398,3.0398,3.0398,3.0398,0.0,3.0398,3.0398,3.0398,3.0398,3.015,2.9908,2.9713,2.9513,2.9289,2.9017,2.8994,2.8994,2.8994,2.8994,2.8994,2.8994,2.8994,2.8994,2.8994,0.0,0.0,0.0,0.0,0.0,0.0,0.0,0.0,0.0,0.0,0.0,0.0,0.0,0.0,0.0,0.0,0.0,0.0,0.0,0.0,0.0,2.275,2.3105,2.3105,2.3105,2.3359,2.4103,2.4661,2.5084,2.5287,2.5964,2.6404,2.6404,2.659,2.6691,2.6691,2.6691,2.6691,2.6691,2.6691,2.6962,2.7503,2.752,2.7561,2.7694,2.8152,2.8152,2.7732,2.8188,2.8349,2.8349,2.8349,2.8349,2.8349,2.8349,2.8349,2.8318,2.7594,2.7439,2.766,2.8192,2.8658,2.9017,2.9089,2.9312,2.9589,2.9748,2.9924,3.015,3.0343,3.0398,3.0398,3.0398,3.0398,3.0398,3.0398,3.0398,3.0398,3.0398,3.0398,3.0398,3.0398,3.0398,3.0398,3.0398,3.0398,3.0398,3.0398,3.0398,3.0398,3.0398,3.0398,3.0398,3.0398,3.0222,3.0103,3.0103,2.9908,2.9696,2.9494,2.9434,2.9289,2.9017,2.8994,2.8994,2.8994,2.8994,2.8994,2.8994,2.8994,2.8994,0.0,0.0,0.0,0.0,0.0,0.0,0.0,0.0,0.0,0.0,0.0,0.0,0.0,0.0,0.0,0.0,0.0,0.0,0.0,0.0,0.0,0.0,2.3122,2.3613,2.4239,2.4052,2.412,2.4864,2.5338,2.5727,2.6031,2.6437,2.6691,2.6691,2.6691,2.6691,2.6691,2.6996,2.7165,2.7165,2.7486,2.7858,2.8298,2.8298,2.8373,2.8477,2.8811,2.8811,2.8477,2.8848,2.9011,2.9011,2.9011,2.9011,2.9011,2.9011,2.9011,2.8926,0.0,0.0,0.0,0.0,2.8923,2.8994,2.8994,2.9178,2.9434,2.9625,2.9829,3.0061,3.0311,3.0398,3.0398,3.0398,3.0398,3.0398,3.0398,3.0398,3.0398,3.0398,3.0398,3.0398,3.0398,3.0398,3.0398,3.0398,3.0398,0.0,3.0398,3.0398,3.0398,3.0398,3.0398,3.0398,3.0398,3.0182,2.9999,2.9999,2.9729,2.9532,2.9412,2.9289,0.0,0.0,0.0,2.8994,2.8994,2.8994,0.0,0.0,0.0,2.8994,2.8994,2.8994,0.0,0.0,2.9156,2.9156,0.0,0.0,0.0,0.0,0.0,0.0,0.0,0.0,0.0,0.0,0.0,0.0,0.0,0.0,0.0,0.0,2.3528,2.4103,2.5423,2.5101,2.4983,2.5659,2.5727,2.5981,2.664,2.6691,2.6691,2.6691,2.6776,2.6826,2.6826,2.7537,0.0,0.0,0.0,2.9025,2.911,2.911,2.9144,2.9138,2.9228,2.9228,2.9138,2.9228,2.9228,2.9228,2.9228,2.9228,2.9228,2.9228,2.9228,2.9211,2.9042,2.9211,2.9502,2.9614,2.9471,2.9203,2.925,0.0,0.0,2.987,3.008,3.0266,3.0459,3.0521,3.0533,3.0417,3.0398,3.0398,3.0398,3.0398,3.0398,3.0398,3.0398,3.0398,3.0398,3.0398,3.0398,3.0398,3.0398,3.0398,3.0398,3.0398,3.0398,3.0398,3.0367,3.0355,3.0355,3.0109,2.9939,2.9939,2.9589,0.0,2.9351,2.9134,2.8994,2.8994,2.897,2.8952,2.8994,2.897,2.8952,2.8994,2.8994,2.8994,2.8994,2.8994,2.8994,2.8994,2.8994,2.8994,0.0,0.0,0.0,0.0,0.0,0.0,0.0,0.0,0.0,0.0,0.0,0.0,0.0,0.0,0.0,2.3376,2.4408,2.5287,2.5575,2.5981,2.6319,2.6471,2.6488,2.6539,2.6674,2.6691,2.6691,2.6691,2.7249,2.7604,2.7604,2.8332,2.8755,2.8755,2.8907,2.9279,2.9888,2.9888,2.9928,3.0063,3.0538,0.0,3.0063,3.0538,3.0768,3.0768,3.0768,3.0768,3.0768,3.0768,3.0768,3.0649,2.9448,2.9211,2.9538,2.9947,3.0241,3.0514,3.0826,3.0974,3.107,3.1309,3.156,3.1689,3.126,3.1282,0.0,3.0602,3.0398,3.0398,3.0398,3.0398,3.0398,3.0398,3.0398,3.0398,3.0398,3.0398,3.0398,3.0398,3.0398,3.0398,3.0398,3.0398,3.0398,3.0398,3.0209,3.0075,3.0075,2.9748,2.9513,2.9513,2.9249,2.9067,2.9067,2.904,2.8994,2.8994,2.87,2.8658,2.8994,2.8682,2.8658,2.8994,2.8994,2.8994,2.8994,2.8994,2.8994,2.8994,2.8994,2.8994,0.0,0.0,0.0,0.0,0.0,0.0,0.0,0.0,0.0,0.0,0.0,2.2412,2.2784,0.0,2.363,2.4374,2.5135,2.5744,2.6099,2.6471,2.6691,2.6691,2.6691,2.6691,2.6691,2.6691,2.6843,2.7232,2.757,2.7994,2.8383,2.9127,2.955,2.955,2.9604,2.9956,3.0649,3.0342,3.0389,3.074,3.1055,3.1055,3.074,3.1055,3.119,3.119,3.119,3.119,3.119,3.119,3.119,3.1123,3.0378,3.0063,3.011,3.0574,3.0766,3.0856,3.1258,3.1384,3.1483,3.1862,3.2108,3.2183,3.2119,3.2179,3.2218,3.1775,3.166,3.166,3.166,3.1352,3.1064,3.1064,3.0717,3.0398,3.0398,3.0398,3.0398,3.0398,3.0398,3.0398,3.0398,3.0398,3.0398,3.0398,3.0163,2.9999,2.9999,2.9643,2.9412,2.9412,2.9156,2.8994,2.8994,2.8994,2.8994,2.8994,2.8815,2.8773,2.8994,2.8815,2.8797,2.8994,2.8994,2.8994,2.8994,2.8994,2.8994,2.8994,2.8994,2.8994,0.0,0.0,0.0,0.0,0.0,0.0,0.0,2.1658,2.1718,2.2209,2.2412,2.2699,2.3291,2.363,2.4222,2.5423,2.5727,2.6031,2.6607,2.6691,2.6691,2.6691,2.6691,2.6691,2.6691,2.6826,2.7165,2.7739,2.806,2.8535,2.9161,2.9905,3.0311,3.0311,3.0399,3.0699,3.119,3.0699,3.0699,3.119,3.119,3.119,3.119,3.119,3.119,3.119,3.119,3.119,3.119,3.119,3.119,3.119,3.1291,3.1131,3.0889,3.1366,3.1408,3.1317,3.1715,3.1861,3.1943,3.2416,3.2637,3.2731,3.301,3.3115,3.3122,3.2949,3.2891,3.2891,3.2891,3.2429,3.1929,3.1929,3.141,3.0852,3.0698,3.0648,3.059,3.0417,3.0398,3.0398,3.0398,3.0398,3.0379,3.0323,3.0109,2.9924,2.9893,2.9533,2.933,2.933,2.9134,2.8994,2.8994,2.8994,2.8994,2.8994,2.8929,2.8929,2.8994,2.8929,2.8929,2.8994,2.8994,2.8994,2.8994,2.8994,2.8994,2.8994,2.8994,2.8994,1.9747,2.0345,2.1023,2.143,2.1552,2.1718,0.0,2.1899,2.1718,2.2209,2.2818,2.3291,2.3376,2.4475,2.5423,2.5575,2.615,2.6607,2.6674,2.6691,2.6691,2.6691,2.6691,2.6691,2.6691,2.73,2.7688,2.7772,2.9093,2.9888,2.9973,3.0683,3.1072,3.1072,3.11,3.1151,3.119,3.1151,3.1151,3.119,3.119,3.119,3.119,3.119,3.119,3.119,3.119,3.119,3.119,3.119,3.119,3.123,3.1603,3.17,3.1722,3.2175,3.2599,3.299,3.3378,3.3532,3.3566,3.3868,3.4183,3.4338,3.3834,3.3882,3.3891,3.3122,3.2891,3.2891,3.2891,3.2833,3.2776,3.2776,3.2699,3.2429,3.1718,3.1545,3.1333,3.0552,3.0398,3.0398,3.0398,3.0398,3.0311,3.0075,2.9861,2.9661,2.9494,2.9225,2.9044,2.9044,2.9017,2.8994,2.8994,2.8994,2.8994,2.8994,2.8658,2.8633,2.8994,2.8658,2.8633,2.8994,2.8994,2.8994,2.8994,2.8994,2.8994,2.8994,2.8994,2.8994,1.969,2.0345,2.0959,2.0878,2.1228,2.1658,2.1853,2.1718,2.1834,2.2748,2.319,2.3663,2.4526,2.5186,2.5744,2.6167,2.6488,2.6691,2.6691,2.6691,2.6691,2.6691,2.6691,2.686,2.73,2.7638,2.8161,2.9093,2.9753,3.0294,3.0717,3.1021,3.119,3.119,3.0878,3.0838,3.119,3.0838,3.0838,3.119,3.119,3.119,3.119,3.119,3.119,3.119,3.119,3.119,3.119,3.119,3.119,3.123,3.1711,3.1986,3.2264,3.2745,3.3045,3.3243,3.3652,3.3902,3.4093,3.4379,3.4695,3.4905,3.4818,3.4861,3.4891,3.4526,3.441,3.441,3.441,3.4045,3.366,3.366,3.3276,3.2814,3.2468,3.2391,3.216,3.1314,3.116,3.1006,3.0475,3.0267,3.0095,2.9861,2.9746,2.9644,2.9433,2.9584,2.9879,3.0356,3.0393,3.0393,3.0393,3.0393,3.021,2.9732,2.9558,2.9314,2.9012,2.8839,2.8839,2.8994,2.8994,2.8994,2.8994,2.8994,2.8994,2.8994,2.8994,2.8994,1.969,2.0243,2.0731,2.0382,2.0878,2.1479,2.1691,2.1817,2.2214,2.3254,2.3759,2.4323,2.5406,2.5778,2.6082,2.6607,2.6691,2.6691,2.6691,2.6691,2.6691,2.6691,2.6691,2.708,2.8044,2.8146,2.8687,3.0006,3.0294,3.0632,3.1157,3.119,3.119,3.119,3.0797,3.0757,3.119,3.0757,3.0781,3.119,3.119,3.119,3.119,3.119,3.119,3.119,3.119,3.119,3.119,3.119,3.1269,3.1411,3.1877,3.2334,3.2745,3.3196,3.3361,3.3419,3.3778,3.4043,3.4269,3.4675,3.4944,3.5138,3.5417,3.5493,3.5493,3.5493,3.5493,3.5493,3.5493,3.5026,3.4564,3.4564,3.4083,3.3545,3.3314,3.3256,3.3026,3.2199,3.2025,3.1744,3.081,3.0672,3.0516,3.0019,3.0152,3.0132,2.9683,3.0148,3.0742,3.1329,3.1384,3.1384,3.1384,3.1384,3.1146,3.0577,3.0522,3.0265,2.9696,2.9659,2.9567,2.9347,2.9347,2.9237,2.8994,2.8994,2.8994,2.8994,2.8994,2.8994,1.969,2.0,2.0314,2.0314,2.0649,2.1183,2.1821,2.2329,2.2847,2.3539,2.4662,2.5558,2.5609,2.6184,2.6674,2.6691,2.6691,2.6691,2.6691,2.6691,2.6691,2.6691,2.6691,2.7283,2.8805,2.8941,2.9262,3.004,3.0768,3.1173,3.119,3.119,3.119,3.119,3.119,3.119,3.119,3.119,3.119,3.119,3.119,3.119,3.119,3.119,3.119,3.119,3.119,3.119,3.119,3.119,3.1449,3.1825,3.2316,3.2777,3.3243,3.3634,3.3762,3.3815,3.4099,3.4176,3.4292,3.4888,3.5088,3.5138,3.5417,3.5493,3.5493,3.5493,3.5493,3.5493,3.5493,3.5488,3.5468,3.5468,3.5449,3.5199,3.4334,3.416,3.3891,3.3026,3.2852,3.2513,3.145,3.192,3.2005,3.0762,3.1238,3.1351,3.0312,3.087,3.1366,3.1384,3.1384,3.1384,3.1384,3.1384,3.1384,3.1366,3.1347,3.1347,3.1329,3.1329,3.0962,3.0173,3.0173,2.9787,2.8994,2.8994,2.8994,2.8994,2.8994,2.8994,2.0243,2.0314,2.0423,2.0837,2.1308,2.1853,2.2503,2.2801,2.3082,2.3826,2.4308,2.4759,2.5232,2.5832,2.6227,2.6227,2.6521,2.6691,2.6691,2.6691,2.6691,2.6691,2.6691,2.73,2.8839,2.9011,2.9499,3.0734,3.1055,3.119,3.119,3.119,3.119,3.119,3.119,3.119,3.119,3.119,3.119,3.119,3.119,3.119,3.119,3.119,3.119,3.119,3.119,3.119,3.123,3.147,3.1696,3.1897,3.2681,3.3045,3.3243,3.3652,3.3928,3.4093,3.4171,3.4449,3.4832,3.5034,3.5223,3.5383,3.546,3.5493,3.5493,3.5493,3.5493,3.5493,3.5493,3.5493,3.5493,3.5493,3.5493,3.543,3.5141,3.5064,3.4795,3.393,3.3757,3.3415,3.2294,3.221,3.2222,3.1959,3.1697,3.1599,3.177,3.2045,3.2394,3.2944,3.2981,3.2981,3.2981,3.2981,3.2761,3.2228,3.221,3.1953,3.1403,3.1384,3.1256,3.0999,3.0999,3.0852,3.0595,3.0595,3.032,2.9806,2.9995,2.9786,2.0228,2.0388,2.0543,2.0971,2.1481,2.2072,2.2736,2.2838,2.3065,2.4033,2.4169,2.4367,2.5054,2.5652,2.5941,2.5742,2.6139,2.6436,2.6436,2.6436,2.6505,2.6691,2.6691,2.73,2.8839,2.9011,2.96,3.1089,3.119,3.119,3.119,3.119,3.119,3.119,3.119,3.119,3.119,3.119,3.119,3.119,3.119,3.119,3.119,3.119,3.119,3.119,3.119,3.1291,3.1449,3.1696,3.1986,3.2366,3.2965,3.3343,3.3607,3.3858,3.4195,3.4492,3.4423,3.4695,3.5122,3.5207,3.5369,3.5493,3.5493,3.5493,3.5493,3.5493,3.5493,3.5493,3.5493,3.5493,3.5493,3.5493,3.5493,3.5493,3.5493,3.5493,3.5334,3.4776,3.4661,3.4271,3.3037,3.2542,3.2482,3.2959,3.2596,3.243,3.2963,3.3036,3.3238,3.3733,3.3807,3.3807,3.3807,3.3807,3.3587,3.3073,3.3036,3.2831,3.2404,3.241,3.2281,3.1985,3.1985,3.1783,3.1384,3.1384,3.1127,3.0632,3.0902,3.0689,1.9735,2.0213,2.0722,2.0752,2.1231,2.1874,2.2532,2.2552,2.2731,2.4024,2.4209,2.4313,2.5016,2.5577,2.5779,2.5297,2.5689,2.6049,2.6049,2.6049,2.6191,2.6657,2.6691,2.73,2.8839,2.9011,2.96,3.1089,3.119,3.119,3.119,3.119,3.119,3.119,3.119,3.119,3.119,3.119,3.119,3.119,3.119,3.119,3.119,3.119,3.119,3.119,3.123,3.1449,3.1808,3.1844,3.24,3.3214,3.3214,3.3616,3.42,3.42,3.4576,3.5051,3.4812,3.4908,3.5155,3.5417,3.5493,3.5493,3.5493,3.5493,3.5493,3.5493,3.5493,3.5493,3.5493,3.5493,3.5493,3.5493,3.5493,3.5493,3.5493,3.5493,3.5493,3.5493,3.5479,3.5036,3.3658,3.3018,3.2926,3.3697,3.3807,3.3807,3.3807,3.3807,3.3807,3.3807,3.3807,3.3807,3.3807,3.3807,3.3807,3.3807,3.3807,3.3928,3.4176,3.42,3.3846,3.3082,3.3063,3.2553,3.1513,3.1538,3.1519,3.1483,3.1745,3.1745,2.0318,2.0572,2.0842,2.1321,2.1575,2.1874,2.2532,2.2265,2.2143,2.2975,2.3127,2.327,2.3869,2.4776,2.5373,2.5221,2.5944,2.6505,2.6505,2.6505,2.659,2.6691,2.6691,2.73,2.8839,2.9011,2.96,3.1089,3.119,3.119,3.119,3.119,3.119,3.119,3.119,3.119,3.119,3.119,3.119,3.119,3.119,3.119,3.119,3.119,3.119,3.123,3.1507,3.1696,3.1844,3.2565,3.2965,3.3243,3.3522,3.3865,3.42,3.42,3.4576,3.5088,3.5016,3.5155,3.5417,3.5479,3.5493,3.5493,3.5493,3.5493,3.5493,3.5493,3.5493,3.5493,3.5493,3.5493,3.5493,3.5493,3.5493,3.5493,3.5493,3.5493,3.5493,3.5493,3.519,3.4718,3.4102,3.3722,3.3568,3.377,3.3807,3.3807,3.3807,3.3807,3.3807,3.3807,3.3807,3.3807,3.3807,3.3807,3.3807,3.3807,3.3807,3.3928,3.4176,3.42,3.4106,3.3902,3.3902,3.3642,3.3183,3.3383,3.3087,3.2327,3.2992,3.2826,2.0154,2.0483,2.0797,2.1171,2.1485,2.1799,2.2158,2.1739,2.1455,2.2113,2.2024,2.2099,2.3026,2.4075,2.4777,2.4847,2.5709,2.6401,2.6401,2.6401,2.647,2.6691,2.6691,2.7165,2.8366,2.8789,2.9465,3.0632,3.1021,3.119,3.119,3.119,3.119,3.119,3.119,3.119,3.119,3.119,3.119,3.119,3.119,3.119,3.119,3.1372,3.147,3.147,3.1933,3.223,3.2466,3.2965,3.3354,3.367,3.3891,3.4218,3.4576,3.4576,3.4888,3.5273,3.5273,3.5369,3.5493,3.5493,3.5493,3.5493,3.5493,3.5493,3.5493,3.5493,3.5493,3.5493,3.5493,3.5493,3.5493,3.5493,3.5493,3.5493,3.5493,3.5493,3.5479,3.5354,3.4981,3.4593,3.4265,3.3986,3.3807,3.3807,3.3807,3.3807,3.3807,3.3807,3.3807,3.3807,3.3807,3.3807,3.3807,3.3902,3.3986,3.3986,3.4111,3.433,3.4576,3.4576,3.4553,3.4423,3.4532,3.4401,3.3986,3.4265,3.411,3.3538,3.4112,3.3975,1.969,2.0183,2.0722,2.0722,2.1141,2.156,2.156,2.1051,2.0767,2.1425,2.1111,2.1096,2.2323,2.3414,2.4147,2.4358,2.5271,2.6013,2.6085,2.6068,2.6227,2.6657,2.6691,2.6996,2.774,2.8518,2.9296,3.004,3.0784,3.119,3.119,3.119,3.119,3.119,3.119,3.119,3.119,3.119,3.119,3.119,3.119,3.123,3.1291,3.1623,3.1808,3.1915,3.2366,3.2809,3.3214,3.3284,3.367,3.42,3.4246,3.4615,3.5105,3.5105,3.5273,3.5493,3.5493,3.5493,3.5493,3.5493,3.5493,3.5493,3.5493,3.5493,3.5493,3.5493,3.5493,3.5493,3.5493,3.5493,3.5493,3.5493,3.5493,3.5493,3.5493,3.546,3.5369,3.5105,3.4813,3.4529,3.4195,3.3961,3.3807,3.3807,3.3807,3.3807,3.3807,3.3807,3.3807,3.3807,3.3807,3.3815,3.3868,3.4068,3.4223,3.4246,3.4529,3.4813,3.5088,3.5105,3.4981,3.4754,3.4981,3.4813,3.4288,3.4593,3.4734,3.4694,3.4999,3.4999,1.969,2.0183,2.0722,2.0722,2.0797,2.0887,2.0887,2.0348,2.0049,2.0752,2.0797,2.0946,2.1724,2.2808,2.3669,2.4175,2.5224,2.6156,2.6505,2.659,2.6624,2.6691,2.6691,2.6996,2.774,2.8518,2.9296,3.004,3.0784,3.119,3.119,3.119,3.119,3.119,3.119,3.119,3.119,3.119,3.119,3.119,3.119,3.1372,3.1696,3.1789,3.1986,3.2417,3.2872,3.3105,3.3225,3.3802,3.4104,3.4242,3.4508,3.4813,3.5105,3.5105,3.5273,3.5493,3.5493,3.5493,3.5493,3.5493,3.5493,3.5493,3.5493,3.5493,3.5493,3.5493,3.5493,3.5493,3.5493,3.5493,3.5493,3.5493,3.5493,3.5493,3.5493,3.5339,3.5088,3.4813,3.4529,3.4195,3.3928,3.3842,3.3807,3.3807,3.3807,3.3807,3.3807,3.3807,3.3807,3.3807,3.3807,3.3876,3.4099,3.4152,3.4334,3.4612,3.4674,3.4813,3.5088,3.5105,3.5088,3.5016,3.5088,3.4944,3.4593,3.4889,3.4926,3.4714,3.5207,3.5289,1.969,1.9929,2.0183,2.0183,2.0183,2.0183,2.0183,1.9929,1.9779,2.0109,2.0183,2.0378,2.1066,2.2133,2.3079,2.3689,2.5033,2.6085,2.6297,2.6556,2.6691,2.6691,2.6691,2.6843,2.7199,2.8298,2.9127,2.9499,3.0565,3.119,3.119,3.119,3.119,3.119,3.119,3.119,3.119,3.119,3.119,3.119,3.1411,3.1603,3.1825,3.2298,3.2631,3.289,3.3332,3.3597,3.375,3.408,3.4383,3.4676,3.4851,3.507,3.5304,3.5304,3.5383,3.5493,3.5493,3.5493,3.5493,3.5493,3.5493,3.5493,3.5493,3.5493,3.5493,3.5493,3.5493,3.5493,3.5493,3.5493,3.5493,3.5493,3.5493,3.5493,3.5493,3.5398,3.5223,3.4963,3.4774,3.4532,3.4093,3.3993,3.3961,3.3815,3.3807,3.3868,3.3986,3.3993,3.3993,3.3993,3.3993,3.4141,3.4423,3.4595,3.4735,3.4908,3.5053,3.5155,3.5304,3.5304,3.5239,3.5105,3.5239,3.519,3.4908,3.519,3.5239,3.5122,3.5383,3.5432,1.969,1.969,1.969,1.969,1.969,1.9711,1.9818,1.9854,1.9839,1.9945,1.998,2.0147,2.0673,2.1759,2.2754,2.3415,2.4899,2.6049,2.6156,2.6487,2.6691,2.6691,2.6691,2.6691,2.6691,2.8078,2.9011,2.9011,3.0362,3.119,3.119,3.119,3.119,3.119,3.119,3.119,3.119,3.119,3.1252,3.1312,3.166,3.1915,3.2127,3.2872,3.3243,3.3332,3.3725,3.4012,3.42,3.4338,3.4676,3.5105,3.5155,3.5304,3.5493,3.5493,3.5493,3.5493,3.5493,3.5493,3.5493,3.5493,3.5493,3.5493,3.5493,3.5493,3.5493,3.5493,3.5493,3.5493,3.5493,3.5493,3.5493,3.5493,3.5493,3.5493,3.5493,3.5446,3.5354,3.5138,3.5034,3.487,3.4401,3.4311,3.4242,3.4012,3.4005,3.4062,3.4288,3.4311,3.4334,3.4383,3.4338,3.4445,3.4754,3.4981,3.5122,3.519,3.5383,3.5493,3.5493,3.5493,3.5398,3.519,3.5383,3.5403,3.519,3.5403,3.5493,3.5493,3.5493,3.5493,1.969,1.969,1.969,1.969,1.969,1.9782,2.0158,2.0246,2.0348,2.0797,2.0862,2.0893,2.0957,2.2088,2.3205,2.3768,2.5071,2.6156,2.659,2.6657,2.6691,2.6691,2.6691,2.6691,2.6691,2.8078,2.9011,2.9011,3.0362,3.119,3.119,3.119,3.119,3.119,3.119,3.119,3.119,3.119,3.1372,3.1752,3.1789,3.2264,3.3075,3.3154,3.339,3.3762,3.4043,3.4195,3.4246,3.4794,3.5051,3.5122,3.5369,3.5479,3.5493,3.5493,3.5493,3.5493,3.5493,3.5493,3.5493,3.5493,3.5493,3.5493,3.5493,3.5493,3.5493,3.5493,3.5493,3.5493,3.5493,3.5493,3.5493,3.5493,3.5493,3.5493,3.5493,3.5304,3.5122,3.5105,3.4908,3.4714,3.4674,3.4653,3.4653,3.4612,3.4612,3.4632,3.4653,3.4653,3.4754,3.4999,3.4793,3.4774,3.5034,3.5088,3.5207,3.5446,3.5493,3.5493,3.5493,3.5493,3.5493,3.546,3.5493,3.5493,3.546,3.5493,3.5493,3.5493,3.5493,3.5493,1.969,1.969,1.969,1.969,1.9874,2.0089,2.028,2.0516,2.0748,2.0959,2.0991,2.0991,2.0991,2.2159,2.3189,2.3363,2.4882,2.6085,2.6262,2.6505,2.6791,2.7019,2.6841,2.6791,2.7019,2.8236,2.9347,3.0243,3.0852,3.119,3.119,3.119,3.119,3.119,3.119,3.119,3.119,3.1449,3.1623,3.1825,3.2366,3.284,3.3214,3.3447,3.3752,3.4043,3.4152,3.4405,3.4774,3.4999,3.519,3.5354,3.5446,3.5493,3.5493,3.5493,3.5493,3.5493,3.5493,3.5493,3.5493,3.5493,3.5493,3.5493,3.5493,3.5493,3.5493,3.5493,3.5493,3.5493,3.5493,3.5493,3.5493,3.5493,3.5493,3.5493,3.5493,3.5417,3.5354,3.5354,3.5239,3.5122,3.4963,3.4944,3.4889,3.4714,3.4694,3.4694,3.4694,3.4694,3.4793,3.507,3.4999,3.5053,3.532,3.5354,3.5383,3.5493,3.5493,3.5493,3.5493,3.5493,3.5493,3.5493,3.5493,3.5493,3.5493,3.5493,3.5493,3.5493,3.5493,3.5526,1.9839,1.9782,1.9726,1.9839,2.0089,2.0382,2.0634,2.0943,2.1213,2.1354,2.1385,2.1385,2.1385,2.2557,2.3518,2.3518,2.5022,2.6227,2.6227,2.647,2.6825,2.7083,2.6873,2.6873,2.7272,2.8542,2.9883,3.1133,3.1329,3.1389,3.1389,3.1389,3.1312,3.119,3.119,3.1269,3.1389,3.166,3.1951,3.223,3.2872,3.3273,3.339,3.3752,3.4018,3.42,3.4383,3.4696,3.5105,3.519,3.532,3.5493,3.5493,3.5493,3.5493,3.5526,3.5526,3.5493,3.5526,3.5545,3.5545,3.5526,3.5526,3.5545,3.5526,3.5493,3.5493,3.5493,3.5493,3.5493,3.5493,3.5493,3.5493,3.5493,3.5493,3.5493,3.5493,3.5493,3.5493,3.5493,3.5493,3.5446,3.5239,3.5223,3.5122,3.487,3.4832,3.4774,3.4694,3.4754,3.4889,3.5088,3.5174,3.5289,3.5493,3.5493,3.5493,3.5493,3.5493,3.5493,3.5493,3.5493,3.5493,3.5493,3.5493,3.5493,3.5493,3.5526,3.5545,3.5545,3.5565,3.5579,2.0193,2.0,1.9782,2.0177,2.0314,2.055,2.1383,2.1582,2.1735,2.218,2.2282,2.2282,2.2282,2.3494,2.4475,2.4475,2.5727,2.6691,2.6691,2.6691,2.6691,2.6691,2.6691,2.6873,2.7272,2.9053,3.0504,3.1232,3.1603,3.1771,3.1771,3.1771,3.1603,3.123,3.119,3.1372,3.1789,3.1789,3.2264,3.3184,3.3184,3.339,3.3788,3.4074,3.42,3.4223,3.4832,3.5105,3.5122,3.5383,3.5493,3.5493,3.5493,3.5493,3.5526,3.5584,3.5565,3.5526,3.5584,3.5603,3.5603,3.5526,3.5545,3.5603,3.5526,3.5493,3.5493,3.5493,3.5493,3.5493,3.5493,3.5493,3.5493,3.5493,3.5493,3.5493,3.5493,3.5493,3.5493,3.5493,3.5493,3.5493,3.5493,3.5493,3.5398,3.5138,3.5105,3.4999,3.4734,3.4926,3.5105,3.5105,3.5354,3.5493,3.5493,3.5493,3.5493,3.5493,3.5493,3.5493,3.5493,3.5493,3.5493,3.5493,3.5493,3.5493,3.5493,3.5584,3.5603,3.5603,3.568,3.5701,2.0731,2.0698,2.0632,2.0764,2.0975,2.1259,2.1521,2.1989,2.2378,2.2546,2.2755,2.2908,2.2908,2.4147,2.5112,2.489,2.6134,2.7019,2.6758,2.6939,2.721,2.7487,2.7718,2.8028,2.8428,2.9506,3.0504,3.1246,3.191,3.2282,3.2282,3.2282,3.2074,3.1623,3.1914,3.2144,3.2282,3.2598,3.2903,3.3214,3.3494,3.3778,3.4093,3.4171,3.4427,3.4832,3.5016,3.5207,3.5383,3.546,3.5493,3.5493,3.5493,3.5493,3.5526,3.5584,3.5603,3.5584,3.5661,3.5641,3.5605,3.5621,3.5596,3.5545,3.5565,3.5545,3.5493,3.5493,3.5493,3.5493,3.5493,3.5493,3.5493,3.5493,3.5493,3.5493,3.5493,3.5493,3.5493,3.5493,3.5493,3.5493,3.5493,3.5354,3.5207,3.5105,3.4944,3.4812,3.4714,3.4774,3.4908,3.5088,3.519,3.5304,3.5493,3.5493,3.5493,3.5493,3.5493,3.5493,3.5493,3.5493,3.5526,3.5584,3.5584,3.5603,3.5641,3.5661,3.5662,3.5678,3.5777,3.5843,2.1275,2.1134,2.1039,2.1181,2.1399,2.1658,2.1823,2.2286,2.2695,2.2695,2.2972,2.3189,2.3189,2.4463,2.5429,2.5222,2.6487,2.7439,2.7178,2.7348,2.7619,2.7869,2.821,2.8496,2.8734,2.9912,3.0841,3.1296,3.2232,3.2745,3.2745,3.2745,3.2648,3.2332,3.2451,3.2583,3.2745,3.3045,3.3273,3.3419,3.3778,3.4043,3.42,3.4427,3.4736,3.5105,3.5207,3.5354,0.0,3.5493,3.5493,3.5493,3.5493,3.5526,3.5565,3.5622,3.5644,3.5635,3.5693,3.5707,3.5701,3.5639,3.5574,3.5526,3.5565,3.5545,3.5493,3.5493,3.5493,3.5493,3.5493,3.5493,3.5493,3.5493,3.5493,3.5493,3.5493,3.5493,3.5493,3.5493,3.5493,3.5493,3.5493,3.5289,3.5105,3.5105,3.487,3.4694,3.4694,3.4774,3.4926,3.5088,3.519,3.532,3.5493,3.5493,3.5493,3.5493,3.5493,3.5526,3.5545,3.5545,3.5584,3.5641,3.5635,3.5654,3.5693,3.5746,3.5773,3.5779,3.5867,3.5864,0.0,2.1385,2.1181,2.1568,2.1658,2.1764,2.2209,2.2527,0.0,2.2746,2.3021,2.3277,2.3348,2.4573,2.5577,2.563,2.6916,2.7926,2.7897,2.7926,2.7954,2.7982,2.8264,2.8446,2.8446,3.0239,3.1384,3.1384,3.2556,3.3243,3.3243,3.3243,3.3243,3.3243,3.2809,3.2809,3.3243,3.3243,3.3419,3.3788,3.4068,3.42,3.4265,3.4832,3.5105,3.5138,3.5383,3.5493,3.5493,3.5493,3.5493,3.5493,3.5493,3.5545,3.5603,3.5688,3.5715,3.5702,3.5721,3.5795,3.5853,3.5603,3.5526,3.5526,3.5493,3.5493,3.5493,3.5493,3.5493,3.5493,3.5493,3.5493,3.5493,3.5493,3.5493,3.5493,3.5493,3.5493,3.5493,3.5493,3.5493,3.5493,3.546,3.5254,3.5088,3.507,3.487,3.4694,3.4733,3.4944,3.5105,3.5122,3.5354,3.5493,3.5493,3.5493,3.5493,3.5526,3.5526,3.5545,3.5603,3.5611,3.5637,3.5689,3.5702,3.5708,3.5719,3.5824,3.5884,3.5894,3.5886,3.5817,2.218,0.0,2.202,2.2106,2.2135,2.2163,0.0,2.2695,2.3069,2.3069,2.3544,2.4158,2.478,2.5688,2.6436,2.6759,2.7625,2.8183,2.7954,2.8129,2.8412,2.87,2.8815,2.8863,2.8863,3.04,3.1384,3.1384,3.2792,3.3652,3.3652,3.3652,3.3652,3.3652,3.355,3.355,3.3652,3.3652,3.3707,3.3788,3.4068,3.4334,3.4593,3.4925,3.5207,3.5417,3.546,3.5493,3.5493,3.5493,3.5493,3.5493,3.5493,3.5545,3.5611,3.5679,3.5766,3.5867,3.5905,3.5933,3.5853,3.5661,3.5622,3.5641,3.5545,3.5493,3.5493,3.5493,3.5493,3.5493,3.5493,3.5493,3.5493,3.5493,3.5493,3.5493,3.5493,3.5493,3.5493,3.5493,3.5493,3.5432,3.5223,3.5138,3.5016,3.4813,3.4734,3.4774,3.4981,3.507,3.519,3.5383,3.546,3.5493,3.5493,3.5493,3.5526,3.5584,3.5584,3.5622,3.568,3.5688,3.5684,3.5692,3.5699,3.5758,3.5842,3.5786,3.5752,3.5743,3.5751,3.572,2.2712,2.2607,2.2473,2.2473,2.2607,2.2712,2.2712,2.3063,2.3414,2.3414,2.3837,2.4447,2.5256,2.6128,2.6901,2.7383,2.8315,2.8897,2.8628,2.8639,2.8749,2.8975,2.8994,2.8994,2.8994,3.0467,3.1384,3.1384,3.2889,3.3807,3.3807,3.3807,3.3807,3.3807,3.3807,3.3807,3.3807,3.391,3.3986,3.3986,3.4405,3.4715,3.4889,3.5155,3.5369,3.5493,3.5493,3.5493,3.5493,3.5493,3.5493,3.5493,3.5545,3.5603,3.5669,3.5762,3.5862,3.5954,3.5954,3.589,3.5783,3.5667,3.5674,3.568,3.5545,3.5526,3.5545,3.5526,3.5493,3.5493,3.5493,3.5493,3.5493,3.5493,3.5493,3.5493,3.5493,3.5493,3.5493,3.5493,3.5493,3.5446,3.5304,3.519,3.5088,3.507,3.4963,3.4981,3.5239,3.5289,3.5354,3.5493,3.5493,3.5526,3.5545,3.5565,3.5565,3.5603,3.5628,3.5689,3.579,3.5721,3.5702,3.571,3.5691,3.5736,3.5815,3.5751,3.5689,3.564,3.5656,3.5641,2.3189,2.3021,2.2848,2.2797,2.2996,2.3189,2.3189,2.3459,2.3692,2.3692,2.4067,2.4631,2.5481,2.6432,2.7288,2.7932,2.8949,2.9607,2.9474,2.9249,2.9112,2.9067,2.9044,2.9044,2.9017,3.0467,3.1409,3.144,3.2948,3.3876,3.3928,3.3928,3.3928,3.3928,3.3928,3.3928,3.3928,3.4099,3.4242,3.4269,3.4832,3.5105,3.5105,3.5369,3.5493,3.5493,3.5493,3.5493,3.5493,3.5493,3.5526,3.5526,3.5584,3.5661,3.5738,3.5853,3.5931,3.5996,3.5911,3.5838,3.5735,3.5721,3.5697,3.568,3.5547,3.5553,3.5584,3.5526,3.5493,3.5493,3.5493,3.5493,3.5493,3.5493,3.5493,3.5493,3.5493,3.5493,3.5493,3.5493,3.5493,3.5493,3.5446,3.5289,3.5223,3.5417,3.5289,3.5239,3.546,3.5493,3.5493,3.5493,3.5526,3.5545,3.5603,3.5641,3.5643,3.5608,3.5671,3.5748,3.5852,3.5745,3.5683,3.5694,3.5669,3.5679,3.568,3.568,3.5641,3.5584,3.5584,3.5565,2.3189,2.3369,2.3477,2.3189,2.3165,2.3189,2.3189,2.3459,2.3692,2.3692,2.4504,2.5499,2.6488,2.7363,2.8183,2.9016,2.9319,2.9494,2.9625,2.9625,2.9533,2.9372,2.933,2.9246,2.9017,3.0467,3.1489,3.1734,3.3217,3.4265,3.4548,3.4569,3.4569,3.4569,3.4569,3.4569,3.4569,3.4334,3.4357,3.4632,3.4944,3.5105,3.5105,3.5369,3.5493,3.5493,3.5493,3.5493,3.5493,3.5493,3.5545,3.5603,3.5603,3.5718,3.5872,3.5892,3.5931,3.5992,3.592,3.591,3.5921,3.5756,3.5701,3.5701,3.5609,3.555,3.5526,3.5493,3.5493,3.5493,3.5493,3.5493,3.5493,3.5493,3.5493,3.5493,3.5493,3.5493,3.5493,3.5493,3.5493,3.5432,3.5207,3.5304,3.5369,3.519,3.532,3.5446,3.5493,3.5493,3.5493,3.5493,3.5565,3.5603,3.5603,3.5757,3.5813,3.5684,3.5698,3.5703,3.5728,3.5648,3.563,3.5699,3.5599,3.556,3.5622,3.5565,3.5545,3.5526,3.5526,3.5526,2.3735,2.3837,2.3958,2.3925,2.3906,2.4037,2.4578,2.4838,2.5042,2.5371,2.5854,2.6488,2.7382,2.796,2.8681,2.9766,2.9732,2.9625,2.9829,2.9763,2.9661,2.957,2.9551,2.9514,2.9397,3.0327,3.1195,3.1759,3.2896,3.3821,3.4405,3.4593,3.4694,3.4694,3.4694,3.4754,3.4926,3.4774,3.4774,3.4926,3.519,3.5304,3.532,3.5446,3.5493,3.5493,3.5493,3.5493,3.5493,3.5545,3.5584,3.5622,3.5718,3.5815,3.5907,3.5943,3.5978,3.5995,3.5968,3.5976,3.5974,3.5853,3.582,3.5833,3.5706,3.5624,3.5622,3.5622,3.5565,3.5493,3.5493,3.5493,3.5493,3.5493,3.5493,3.5493,3.5493,3.5493,3.5493,3.5493,3.5493,3.546,3.5339,3.5417,3.5446,3.532,3.5432,3.5493,3.5493,3.5545,3.5565,3.5565,3.5622,3.5647,3.5645,3.5743,3.5804,3.5801,3.5733,3.5674,3.5658,3.5624,3.5603,3.5603,3.5545,3.5526,3.5565,3.5526,3.5493,3.5493,3.5354,3.5289,2.419,2.4228,2.4358,2.4752,2.4676,2.4748,2.5778,2.5993,2.6192,2.6854,2.7157,2.7493,2.8145,2.8621,2.9224,3.0247,3.0075,2.9886,3.0061,2.9958,2.9848,2.9782,2.9763,2.9746,2.9713,3.0302,3.1026,3.1931,3.2718,3.3567,3.4475,3.4755,3.4889,3.4889,3.4889,3.4981,3.519,3.519,3.519,3.5207,3.5398,3.5493,3.5493,3.5493,3.5493,3.5493,3.5493,3.5493,3.5526,3.5584,3.5605,3.5642,3.5836,3.5919,3.5941,3.5977,3.5996,3.5996,3.5976,3.5992,3.5999,3.5929,3.5929,3.5951,3.5791,3.572,3.5707,3.5707,3.5605,3.5515,3.552,3.5526,3.5493,3.5493,3.5493,3.5493,3.5493,3.5493,3.5493,3.5493,3.5493,3.5493,3.5493,3.5493,3.5493,3.5493,3.5493,3.5526,3.5526,3.5584,3.5611,3.5611,3.5695,3.5756,3.5747,3.5692,3.5723,3.5817,3.5738,3.5661,3.5584,3.5584,3.5565,3.5493,3.5493,3.5479,3.5417,3.5417,3.5369,3.5304,3.5105,3.4999,2.419,2.4339,2.4696,2.5653,2.5182,2.4748,2.5778,2.5993,2.6239,2.7104,2.7911,2.8531,2.8717,2.9478,3.0151,3.0374,3.0275,3.0208,3.0362,3.0355,3.0254,2.9999,2.9984,2.9908,2.9731,3.0413,3.1334,3.2461,3.3299,3.4238,3.536,3.5432,3.5446,3.5446,3.5446,3.5446,3.546,3.546,3.546,3.546,3.5493,3.5493,3.5493,3.5493,3.5493,3.5493,3.5493,3.5493,3.5526,3.5584,3.5654,3.5706,3.5847,3.5937,3.5994,3.5996,3.5996,3.5996,3.5937,3.5956,3.5982,3.5931,3.5891,3.5898,3.5896,3.5795,3.5702,3.5695,3.5659,3.5591,3.5599,3.5565,3.5493,3.5493,3.5493,3.5493,3.5493,3.5493,3.5493,3.5493,3.5493,3.5493,3.5493,3.5493,3.5493,3.5493,3.5493,3.5526,3.5584,3.5603,3.5623,3.5687,3.5809,3.5892,3.5886,3.5721,3.5618,3.5622,3.5622,3.5584,3.5526,3.5526,3.5493,3.5493,3.5493,3.5369,3.5122,3.5122,3.4999,3.4773,3.4734,3.4714,2.5174,2.537,2.5687,2.6726,2.6707,0.0,2.7701,2.7918,2.8122,2.8817,2.9311,2.9602,2.9669,3.0089,3.0446,3.0456,3.0452,3.0465,3.0513,3.0487,3.0424,3.0324,3.0273,3.0228,3.0142,3.0259,3.095,3.2419,3.287,3.3704,3.5162,3.5417,3.5493,3.5493,3.5493,3.5493,3.5493,3.5493,3.5493,3.5493,3.5493,3.5493,3.5493,3.5493,3.5493,3.5493,3.5493,3.5526,3.5584,3.5641,3.574,3.5841,3.5924,3.5988,3.5996,3.5996,3.5996,3.5996,3.5976,3.5976,3.5995,3.5966,3.5952,3.5957,3.5957,3.5894,3.583,3.5871,3.5773,3.5657,3.5663,3.5622,3.5565,3.5565,3.5565,3.5565,3.5526,3.5493,3.5493,3.5493,3.5493,3.5493,3.5493,3.5493,3.5526,3.5565,3.5565,3.5603,3.5661,3.5738,3.5791,3.5817,3.5802,3.5754,3.5727,3.5622,3.5545,3.5545,3.5545,3.5545,3.5493,3.5493,3.5493,3.5493,3.5339,3.5207,3.5105,3.4926,3.4793,3.4694,3.4486,3.4379,2.5887,2.625,2.6769,2.7804,0.0,0.0,2.936,2.9333,2.9329,3.0048,3.024,3.0318,3.0351,3.0483,3.0579,3.0549,3.0586,3.0613,3.0598,3.0559,3.0528,3.0498,3.0467,3.0417,3.0398,3.0222,3.0729,3.2129,3.2541,3.3325,3.4745,3.5264,3.5493,3.5493,3.5493,3.5493,3.5493,3.5493,3.5493,3.5493,3.5493,3.5493,3.5493,3.5493,3.5493,3.5493,3.5493,3.5545,3.5603,3.5662,3.5803,3.5948,3.5979,3.5996,3.5996,3.5996,3.5996,3.5996,3.5996,3.5996,3.5996,3.5996,3.5996,3.5996,3.5996,3.5976,3.5932,3.5986,3.5885,3.5776,3.5791,3.5701,3.5639,3.5604,3.5599,3.5584,3.5526,3.5493,3.5493,3.5493,3.5493,3.5493,3.5493,3.5526,3.5565,3.5603,3.5618,3.5662,3.5751,3.5809,3.5842,3.5838,3.5742,3.5649,3.5597,3.5545,3.5493,3.5493,3.5493,3.5493,3.5493,3.5417,3.5369,3.5369,3.5105,3.4907,3.4813,3.4634,3.4486,3.4398,3.4189,3.4074,2.6107,2.6854,2.7872,2.8848,2.9161,2.9459,3.039,2.9883,2.9478,3.041,3.0559,3.0549,3.068,3.0659,3.0606,3.0594,3.066,3.0678,3.0608,3.0606,3.0579,3.0513,3.0506,3.0467,3.0398,3.0398,3.0756,3.1641,3.2449,3.3276,3.4141,3.5026,3.5493,3.5493,3.5493,3.5493,3.5493,3.5493,3.5493,3.5493,3.5493,3.5493,3.5493,3.5493,3.5493,3.5493,3.5493,3.5545,3.5611,3.5676,3.581,3.5996,3.5996,3.5996,3.5996,3.5996,3.5996,3.5996,3.5996,3.5996,3.5996,3.5996,3.5996,3.5996,3.5996,3.5996,3.5996,3.5996,3.5946,3.592,3.5977,3.5843,3.5689,3.5609,3.5612,3.5584,3.5526,3.5493,3.5493,3.5493,3.5493,3.5493,3.5493,3.5565,3.5603,3.5603,3.566,3.5752,3.5881,3.5772,3.5693,3.5704,3.5646,3.5603,3.5603,3.5545,3.5493,3.5493,3.5493,3.5493,3.5493,3.5239,3.5105,3.5105,3.4832,3.4529,3.42,3.42,3.4068,3.3807,3.3807,3.3807,2.8115,2.856,2.9074,2.9932,3.0172,3.0272,3.059,3.0414,3.0272,3.0609,3.0648,3.0645,3.069,3.0767,3.0774,3.0684,3.0774,3.0839,3.0811,3.0732,3.0667,3.0645,3.0602,3.0544,3.0487,3.0467,3.0814,3.1641,3.2449,3.3276,3.4141,3.5026,3.5493,3.5493,3.5493,3.5493,3.5493,3.5493,3.5493,3.5493,3.5493,3.5493,3.5493,3.5493,3.5493,3.5493,3.5565,3.5622,3.5682,3.5836,3.5953,3.5996,3.5996,3.5996,3.5996,3.5996,3.5996,3.5996,3.5996,3.5996,3.5996,3.5996,3.5996,3.5996,3.5996,3.5996,3.5996,3.5996,3.5993,3.596,3.5994,3.5951,3.5858,3.5702,3.5618,3.5584,3.5526,3.5493,3.5493,3.5493,3.5545,3.5584,3.5584,3.5641,3.5699,3.5795,3.583,3.585,3.5888,3.5768,3.5669,3.5631,3.5599,3.5584,3.5545,3.5526,3.5493,3.5493,3.532,3.5223,3.5223,3.5138,3.4999,3.4813,3.451,3.4311,3.42,3.3993,3.3876,3.3807,3.3807,3.3807,2.9165,2.9602,3.0017,3.0584,3.0675,3.0653,3.0764,3.0746,3.072,3.0769,3.0749,3.0729,3.0768,3.0806,3.0808,3.0775,3.0846,3.0898,3.0898,3.082,3.0762,3.0703,3.0661,3.0614,3.0549,3.0535,3.0871,3.1667,3.2487,3.3308,3.4141,3.5026,3.5493,3.5493,3.5493,3.5493,3.5493,3.5493,3.5493,3.5493,3.5493,3.5526,3.5545,3.5545,3.5545,3.5565,3.568,3.5738,3.5791,3.5935,3.5996,3.5996,3.5996,3.5996,3.5996,3.5996,3.5996,3.5996,3.5996,3.5996,3.5996,3.5996,3.5996,3.5996,3.5996,3.5996,3.5996,3.5996,3.5996,3.5994,3.5977,3.5915,3.5861,3.5737,3.5678,3.5622,3.5526,3.5493,3.5526,3.5545,3.5584,3.5605,3.5643,3.5714,3.5815,3.5892,3.5908,3.5875,3.5784,3.5718,3.5641,3.5584,3.5565,3.5545,3.5493,3.5398,3.5354,3.5354,3.5088,3.4889,3.4755,3.4736,3.4675,3.4489,3.4213,3.4043,3.4043,3.3876,3.3807,3.3807,3.3807,3.3807,2.9553,3.0102,3.0671,3.0849,3.0807,3.0739,3.0865,3.0906,3.0898,3.0898,3.0801,3.0762,3.0879,3.08,3.0757,3.0874,3.0898,3.0898,3.0898,3.0898,3.0859,3.0723,3.0723,3.0696,3.0619,3.0604,3.094,3.1754,3.2569,3.3365,3.4193,3.5045,3.5526,3.5526,3.5526,3.5526,3.5526,3.5526,3.5526,3.5526,3.5526,3.5565,3.5622,3.5603,3.5622,3.5641,3.5815,3.5894,3.5898,3.5962,3.5996,3.5996,3.5996,3.5996,3.5996,3.5996,3.5996,3.5996,3.5996,3.5996,3.5996,3.5996,3.5996,3.5996,3.5996,3.5996,3.5996,3.5996,3.5996,3.5984,3.5913,3.5822,3.5724,3.5721,3.5699,3.5661,3.5545,3.5526,3.5545,3.5603,3.5622,3.5642,3.5696,3.5823,3.5894,3.5879,3.5876,3.5815,3.5622,3.5603,3.5584,3.5526,3.5493,3.5493,3.5479,3.5239,3.5088,3.507,3.4813,3.4529,3.42,3.42,3.4176,3.4152,3.391,3.3807,3.3807,3.3807,3.3762,3.3734,3.3734,3.3734,3.0433,3.062,3.0852,3.0899,3.0877,3.0858,3.0897,3.0894,3.0898,3.0898,3.0879,3.0879,3.0898,3.0873,3.0866,3.0898,3.0898,3.0898,3.0898,3.0898,3.0898,3.0859,3.0859,3.08,3.0698,3.0689,3.1005,3.1831,3.2664,3.3532,3.4392,3.5213,3.5641,3.5584,3.5641,3.5641,3.5584,3.5641,3.5661,3.5661,3.5661,3.5661,3.568,3.5622,3.5699,3.5834,3.5872,3.5922,3.5974,3.5994,3.5996,3.5996,3.5996,3.5996,3.5996,3.5996,3.5996,3.5996,3.5996,3.5996,3.5996,3.5996,3.5996,3.5996,3.5996,3.5996,3.5996,3.5996,3.5996,3.6003,3.5971,3.5958,3.5919,3.588,3.5738,3.5622,3.5584,3.5622,3.5661,3.568,3.5757,3.5809,3.5718,3.5818,3.5872,3.5757,3.5706,3.5661,3.5622,3.5565,3.5526,3.5493,3.5493,3.5398,3.5207,3.5122,3.4999,3.4793,3.4489,3.4288,3.42,3.42,3.4099,3.3876,3.3815,3.3807,3.3807,3.3807,3.3652,3.3332,3.3332,3.3136,3.0703,3.0807,3.0898,3.0898,3.0898,3.0898,3.0898,3.0898,3.0875,3.0818,3.0855,3.0898,3.0898,3.0898,3.0898,3.0898,3.0898,3.0898,3.0898,3.0898,3.0898,3.0898,3.0898,3.0879,3.0801,3.1172,3.1735,3.2511,3.339,3.4221,3.503,3.5475,3.5678,3.5658,3.5695,3.5682,3.5658,3.5678,3.5697,3.5697,3.5697,3.5717,3.5795,3.5757,3.5817,3.5942,3.5942,3.5977,3.5996,3.5996,3.5996,3.5996,3.5996,3.5996,3.5996,3.5996,3.5996,3.5996,3.5996,3.5996,3.5996,3.5996,3.5996,3.5996,3.5996,3.5996,3.5996,3.5996,3.5996,3.5993,3.595,3.5949,3.5926,3.582,3.5758,3.5734,3.5665,3.5678,3.5712,3.5778,3.5795,3.5806,3.5807,3.5803,3.5766,3.5678,3.5623,3.5603,3.5565,3.5526,3.5493,3.5493,3.5383,3.5239,3.5105,3.4832,3.4615,3.4467,3.4189,3.3993,3.3993,3.3993,3.3935,3.3788,3.3807,3.3707,3.3522,3.3522,3.3302,3.284,3.284,3.2745,3.0735,3.0797,3.0864,3.0864,3.0852,3.0856,3.0856,3.0856,3.081,3.0714,3.0769,3.087,3.0879,3.0858,3.0855,3.0866,3.0876,3.0879,3.0879,3.0898,3.0898,3.0898,3.0898,3.0898,3.0898,3.1699,3.2519,3.3262,3.4121,3.4953,3.5713,3.5747,3.5747,3.5727,3.5742,3.5763,3.5729,3.5762,3.5747,3.5747,3.5748,3.5805,3.5925,3.5925,3.5942,3.5996,3.5996,3.5996,3.5996,3.5996,3.5996,3.5996,3.5996,3.5996,3.5996,3.5996,3.5996,3.5996,3.5996,3.5996,3.5996,3.5996,3.5996,3.5996,3.5996,3.5996,3.5996,3.5996,3.5996,3.5996,3.5937,3.5922,3.588,3.5772,3.5843,3.5875,3.5765,3.5733,3.5763,3.5877,3.5776,3.5714,3.5842,3.5757,3.5661,3.5603,3.5584,3.5565,3.5526,3.546,3.5432,3.5432,3.519,3.4999,3.4944,3.4492,3.4176,3.4123,3.391,3.3807,3.3807,3.3734,3.3707,3.3707,3.3707,3.3522,3.3214,3.3105,3.284,3.2384,3.2384,3.235,3.0831,3.0794,3.0742,3.0742,3.068,3.0633,3.0633,3.0633,3.0623,3.062,3.0671,3.0734,3.0736,3.0677,3.0665,3.0714,3.0735,3.0723,3.0723,3.082,3.0898,3.0898,3.0898,3.0898,3.0898,3.1699,3.2539,3.332,3.4199,3.5058,3.5916,3.5955,3.5935,3.5877,3.5921,3.5919,3.5875,3.5924,3.5955,3.5954,3.5959,3.5965,3.5996,3.5986,3.5992,3.5996,3.5996,3.5996,3.5996,3.5996,3.5996,3.5996,3.5996,3.5996,3.5996,3.5996,3.5996,3.5996,3.5996,3.5996,3.5996,3.5996,3.5996,3.5996,3.5996,3.5996,3.5996,3.5996,3.5996,3.5996,3.5996,3.5994,3.5974,3.595,3.5979,3.5963,3.5901,3.5878,3.5889,3.5911,3.5731,3.5611,3.5636,3.5584,3.5526,3.5526,3.5526,3.5526,3.5493,3.5304,3.5138,3.5138,3.4926,3.4634,3.4338,3.4246,3.4099,3.385,3.3815,3.3807,3.3807,3.3465,3.3273,3.3273,3.3273,3.3243,3.3214,3.2777,3.2332,3.188,3.188,3.1714,3.072,3.0684,3.0645,3.0648,3.0625,3.0588,3.0588,3.0588,3.0588,3.0549,3.0576,3.0604,3.0644,3.0633,3.0605,3.0629,3.0653,3.0645,3.0638,3.0735,3.0781,3.0781,3.0859,3.1094,3.1582,3.2383,3.3223,3.4062,3.4941,3.5605,3.5976,3.5996,3.5996,3.5957,3.597,3.5988,3.5969,3.5984,3.5996,3.5996,3.6005,3.6008,3.5994,3.6005,3.5996,3.5996,3.5996,3.5996,3.5996,3.5996,3.5996,3.5996,3.5996,3.5996,3.5996,3.5996,3.5996,3.5996,3.5996,3.5996,3.5996,3.5996,3.5996,3.5996,3.5996,3.5996,3.5996,3.5996,3.5996,3.5996,3.5996,3.5974,3.5942,3.5938,3.5894,3.5825,3.5786,3.5846,3.5872,3.5757,3.5661,3.5603,3.5565,3.5526,3.5493,3.5493,3.5493,3.5446,3.5289,3.5155,3.5034,3.4889,3.4614,3.4357,3.42,3.4068,3.3928,3.3807,3.3578,3.3447,3.3447,3.3045,3.2809,3.2809,3.2809,3.2681,3.2433,3.2196,3.1878,3.147,3.147,3.1389,3.0591,3.0591,3.0579,3.0582,3.0564,3.0544,3.0544,3.0544,3.0525,3.0487,3.0467,3.0487,3.0544,3.0559,3.0543,3.0579,3.0564,3.0565,3.0576,3.0624,3.0687,3.0703,3.0976,3.1445,3.2129,3.3125,3.4004,3.4648,3.5508,3.5996,3.5996,3.5996,3.5996,3.5996,3.5996,3.5996,3.5996,3.5996,3.5996,3.5996,3.5996,3.5996,3.5996,3.5996,3.5996,3.5996,3.5996,3.5996,3.5996,3.5996,3.5996,3.5996,3.5996,3.5996,3.5996,3.5996,3.5996,3.5996,3.5996,3.5996,3.5996,3.5996,3.5996,3.5996,3.5996,3.5996,3.5996,3.5996,3.5996,3.5996,3.5996,3.5956,3.5911,3.5892,3.5809,3.5743,3.5685,3.5739,3.5776,3.5622,3.5584,3.5565,3.5526,3.5446,3.5432,3.5493,3.5383,3.5239,3.5122,3.4981,3.4794,3.4593,3.4288,3.4099,3.4099,3.3928,3.3762,3.3634,3.3361,3.3154,3.3014,3.2583,3.2316,3.2316,3.2213,3.2039,3.1789,3.1696,3.1507,3.119,3.119,3.119,3.0606,3.0548,3.0498,3.0506,3.0467,3.0398,3.0398,3.0398,3.0398,3.0398,3.0398,3.0398,3.0398,3.0421,3.0421,3.0487,3.0506,3.0506,3.051,3.056,3.064,3.0681,3.1445,3.2012,3.2187,3.3672,3.4648,3.4707,3.5508,3.5996,3.5996,3.5996,3.5996,3.5996,3.5996,3.5996,3.5996,3.5996,3.5996,3.5996,3.5996,3.5996,3.5996,3.5996,3.5996,3.5996,3.5996,3.5996,3.5996,3.5996,3.5996,3.5996,3.5996,3.5996,3.5996,3.5996,3.5996,3.5996,3.5996,3.5996,3.5996,3.5996,3.5996,3.5996,3.5996,3.5996,3.5996,3.5996,3.5996,3.5996,3.5996,3.5995,3.5982,3.5911,3.5886,3.5842,3.5649,3.5617,3.5603,3.5526,3.5526,3.5493,3.5493,3.5289,3.5207,3.546,3.507,3.4832,3.507,3.4615,3.4246,3.4242,3.3986,3.3815,3.3815,3.3807,3.3652,3.3243,3.3214,3.3014,3.255,3.2109,3.1861,3.1861,3.1449,3.1449,3.1789,3.1411,3.123,3.119,3.119,3.119,3.0207,3.009,3.0,3.0,3.0071,3.015,3.015,3.015,3.0196,3.0367,3.0267,3.015,3.015,3.0279,3.0398,3.0417,3.0448,3.0448,3.0448,3.0487,3.0758,3.1335,3.176,3.2461,3.3633,3.4316,3.4922,3.5488,3.582,3.5996,3.5996,3.5996,3.5996,3.5996,3.5996,3.5996,3.5996,3.5996,3.5996,3.5996,3.5996,3.5996,3.5996,3.5996,3.5996,3.5996,3.5996,3.5996,3.5996,3.5996,3.5996,3.5996,3.5996,3.5996,3.5996,3.5996,3.5996,3.5996,3.5996,3.5996,3.5996,3.5996,3.5996,3.5996,3.5996,3.5996,3.5996,3.5996,3.5996,3.5996,3.5996,3.5973,3.5902,3.5734,3.568,3.5622,3.5565,3.5584,3.5584,3.5526,3.5493,3.5493,3.5493,3.5289,3.5122,3.5223,3.4944,3.4674,3.4553,3.4338,3.4123,3.3961,3.3868,3.3707,3.3437,3.3419,3.3225,3.2777,3.2466,3.223,3.2057,3.164,3.1411,3.1411,3.1252,3.1252,3.1411,3.1252,3.119,3.119,3.119,3.119,2.9924,2.9796,2.9696,2.9696,2.9796,2.9908,2.9908,2.9908,2.9939,3.0128,3.0018,2.9908,2.9908,3.0032,3.0188,3.0254,3.0343,3.0398,3.0398,3.0448,3.0802,3.1686,3.2132,3.2954,3.4453,3.4902,3.5351,3.5957,3.5996,3.5996,3.5996,3.5996,3.5996,3.5996,3.5996,3.5996,3.5996,3.5996,3.5996,3.5996,3.5996,3.5996,3.5996,3.5996,3.5996,3.5996,3.5985,3.5971,3.5996,3.5985,3.5974,3.5996,3.5929,3.5932,3.5996,3.5929,3.5932,3.5996,3.5976,3.5976,3.5996,3.5996,3.5996,3.5996,3.5996,3.5996,3.5996,3.5996,3.5996,3.5995,3.5994,3.5922,3.5795,3.5644,3.5565,3.5493,3.5493,3.5545,3.5565,3.5526,3.5432,3.5369,3.5369,3.5051,3.4832,3.4944,3.4634,3.4353,3.4218,3.4123,3.3943,3.3634,3.3606,3.3419,3.3014,3.2983,3.2777,3.2298,3.1951,3.1752,3.1603,3.1351,3.119,3.119,3.119,3.119,3.119,3.119,3.119,3.119,3.119,3.119,0.0,0.0,0.0,2.9678,2.9696,2.9696,2.9696,2.9696,2.9696,2.9696,2.9696,2.9696,2.9696,2.9696,2.9746,2.9954,3.0209,3.0398,3.0417,3.0436,3.0782,3.1763,3.2615,3.3529,3.4527,3.539,3.5918,3.5996,3.5996,3.5996,3.5996,3.5996,3.5996,3.5996,3.5996,3.5996,3.5996,3.5996,3.5996,3.5996,3.5996,3.5996,3.5996,3.5996,3.5996,3.5995,3.5922,3.5937,3.5993,3.5921,3.5926,3.5974,3.5783,3.583,3.5974,3.5763,3.581,3.5976,3.5918,3.5937,3.5996,3.5996,3.5996,3.5996,3.5996,3.5996,3.5996,3.5996,3.5996,3.5982,3.5983,3.5843,3.5682,3.5624,3.5565,3.5493,3.5493,3.5493,3.5493,3.5493,3.5289,3.5105,3.5088,3.4576,3.4311,3.4632,3.4184,3.3876,3.4147,3.3935,3.3625,3.3214,3.3184,3.2983,3.2517,3.2484,3.2282,3.1825,3.1789,3.1603,3.123,3.119,3.119,3.119,3.119,3.119,3.119,3.119,3.119,3.119,3.119,3.119,3.0806,0.0,0.0,0.0,0.0,0.0,2.9474,2.9474,2.9532,2.9661,2.9589,2.9474,2.9474,2.9607,2.9661,2.957,2.988,3.0393,3.1212,3.1352,3.1891,3.3353,3.3795,3.4333,3.5243,3.558,3.5768,3.5788,3.5866,3.5885,3.5788,3.587,3.5957,3.5996,3.5996,3.5985,3.5931,3.5921,3.5877,3.5788,3.5788,3.5788,3.5788,3.5788,3.5788,3.5783,3.5772,3.5766,3.5786,3.5756,3.5766,3.5776,3.5725,3.5729,3.5776,3.5714,3.5741,3.5776,3.5749,3.5837,3.5917,3.5818,3.5876,3.5975,3.5834,3.5845,3.5902,3.5819,3.5788,3.5772,3.5788,3.5707,3.5623,3.5597,3.5565,3.5446,3.5239,3.5207,3.5207,3.5207,3.5138,3.5053,3.4832,3.4467,3.4223,3.4334,3.4037,3.3716,3.3496,3.34,3.3196,3.2745,3.2681,3.25,3.2022,3.1986,3.1789,3.1372,3.1389,3.1329,3.119,3.119,3.119,3.119,3.119,3.119,3.119,3.119,3.119,3.119,3.119,3.0975,3.1486,3.1024,3.0595,3.0118,0.0,0.0,3.0224,3.0224,3.0268,3.0402,3.0315,3.0224,3.0224,3.0318,3.0423,3.04,3.0603,3.0926,3.1459,3.1813,3.2568,3.4026,3.4218,3.4603,3.5507,3.5643,3.566,3.5699,3.5757,3.5776,3.5699,3.5777,3.5835,3.5874,3.5874,3.585,3.5811,3.5817,3.5784,3.5699,3.5699,3.5699,3.5699,3.5699,3.5699,3.5699,3.566,3.5662,3.5655,3.5637,3.5643,3.5674,3.5637,3.5662,3.5688,3.5637,3.5651,3.5707,3.5667,3.5729,3.58,3.5736,3.5781,3.5858,3.5736,3.5737,3.5797,3.5716,3.5699,3.5679,3.566,3.5639,3.5556,3.5426,3.5358,3.5273,3.4981,3.4944,3.4944,3.4944,3.4813,3.4676,3.4529,3.4237,3.4018,3.4018,3.3752,3.3447,3.3243,3.3014,3.2745,3.2264,3.2196,3.2039,3.1603,3.1528,3.1449,3.123,3.119,3.119,3.119,3.119,3.119,3.119,3.119,3.1072,3.0838,3.1072,3.1055,3.0821,3.0821,3.0518,3.2077,3.1747,3.1513,3.1403,3.1384,0.0,3.1384,3.1384,3.1384,3.1384,3.1384,3.1384,3.1384,3.1384,3.1483,3.1723,3.1842,3.1813,3.1578,3.2159,3.3004,3.4117,3.4274,3.4634,3.546,3.557,3.5622,3.568,3.568,3.568,3.5699,3.5699,3.5694,3.5694,3.5694,3.5694,3.5694,3.5697,3.5699,3.568,3.568,3.568,3.568,3.568,3.568,3.568,3.5622,3.5603,3.5584,3.5526,3.5584,3.568,3.5565,3.5584,3.5661,3.5545,3.5584,3.568,3.5622,3.5641,3.5695,3.5687,3.5678,3.5695,3.5668,3.5678,3.5699,3.568,3.568,3.5661,3.5603,3.5603,3.5508,3.5174,3.5105,3.5016,3.4714,3.4653,3.4632,3.4612,3.4379,3.4176,3.4171,3.3935,3.3734,3.3734,3.339,3.3105,3.3045,3.2681,3.2248,3.1789,3.1716,3.1603,3.123,3.119,3.119,3.119,3.119,3.119,3.119,3.119,3.119,3.119,3.1151,3.0781,3.0208,3.0797,3.0797,3.0208,3.0208,2.9892,3.3278,3.2724,3.221,3.1549,3.1384,0.0,3.1384,3.1384,3.1384,3.1384,3.1384,3.1384,3.1384,3.1384,3.1409,3.1483,3.2035,3.2562,3.2938,3.3129,3.3564,3.4491,3.4786,3.4999,3.519,3.5388,3.5526,3.5545,3.5545,3.5603,3.5699,3.565,3.5649,3.5707,3.5707,3.5669,3.563,3.5611,3.5603,3.5545,3.5545,3.5545,3.5545,3.5545,3.5545,3.5545,3.5545,3.5526,3.5526,3.5526,3.5526,3.5545,3.5526,3.5526,3.5545,3.5526,3.5526,3.5545,3.5526,3.5565,3.5617,3.5566,3.5618,3.5674,3.5566,3.5579,3.5622,3.5565,3.5545,3.5545,3.5526,3.5526,3.5451,3.5174,3.5105,3.4944,3.4405,3.4311,3.4242,3.403,3.4093,3.4123,3.3928,3.356,3.3302,3.3302,3.2952,3.2517,3.2127,3.1986,3.177,3.1351,3.1329,3.1291,3.119,3.119,3.119,3.119,3.119,3.119,3.119,3.119,3.119,3.119,3.0699,3.0166,2.9585,3.0166,3.0166,2.9585,2.9585,2.9496,3.3944,3.3528,3.3109,3.2687,3.2596,0.0,0.0,3.2596,3.2525,3.2347,3.2293,3.2293,3.2293,3.2293,3.2347,3.2551,3.2944,3.3287,3.3571,3.3717,3.402,3.4636,3.4832,3.4944,3.5088,3.5223,3.5354,3.5493,3.5493,3.5545,3.5603,3.5584,3.5584,3.5603,3.5603,3.5584,3.5565,3.5565,3.5545,3.5493,3.5493,3.5493,3.5493,3.5493,3.5493,3.5493,3.5493,3.5493,3.5493,3.5493,3.5493,3.5493,3.5493,3.5493,3.5493,3.5493,3.5493,3.5493,3.5493,3.5526,3.5545,3.5526,3.5565,3.5603,3.5526,3.5526,3.5545,3.5526,3.5493,3.5493,3.5493,3.5493,3.5398,3.4999,3.4908,3.4754,3.4141,3.4012,3.3961,3.3815,3.3752,3.3661,3.3504,3.3332,3.3105,3.289,3.2468,3.2092,3.1825,3.1623,3.1411,3.123,3.119,3.119,3.119,3.119,3.119,3.119,3.119,3.119,3.119,3.0918,3.0617,3.0293,2.9995,2.954,2.8966,2.9271,2.9225,2.8966,2.8966,2.8764,3.4288,3.3993,3.3807,3.3807,3.3807,3.3807,0.0,0.0,0.0,3.339,3.3302,3.3302,3.3302,3.3302,3.3382,3.3533,3.3697,3.3752,3.3587,3.3894,3.4218,3.4486,3.4572,3.4675,3.4907,3.5034,3.5174,3.532,3.5383,3.5398,3.5354,3.5383,3.5432,3.5432,3.546,3.5493,3.5493,3.5493,3.5493,3.5493,3.5493,3.5493,3.5493,3.5493,3.5493,3.5493,3.5446,3.5432,3.5432,3.5369,3.5354,3.5354,3.546,3.5479,3.5432,3.5432,3.5432,3.5432,3.5432,3.5446,3.5493,3.5493,3.5493,3.5493,3.5493,3.5493,3.5493,3.5493,3.5493,3.5493,3.5432,3.5432,3.5289,3.4715,3.4593,3.4442,3.3921,3.3807,3.3807,3.3807,3.355,3.3302,3.3214,3.3045,3.2809,3.2417,3.2039,3.1748,3.1696,3.1411,3.119,3.119,3.119,3.119,3.119,3.119,3.1151,3.1015,3.1015,3.0975,3.0878,3.0393,2.9848,2.9225,2.9225,2.8904,2.8334,2.8334,2.8334,2.8334,2.8334,2.814,3.4288,3.3993,3.3807,3.3807,3.3807,3.3807,3.3807,0.0,3.3807,3.3734,0.0,3.3734,3.3734,0.0,0.0,3.2826,3.333,3.355,3.2852,3.3374,3.3868,3.3895,3.4117,3.4269,3.4292,3.4794,3.5016,3.4812,3.4999,3.5034,3.4793,3.5035,3.5157,3.5157,3.5369,3.5493,3.5493,3.5493,3.5493,3.5493,3.5493,3.5493,3.5493,3.5493,3.5493,3.5493,3.5258,3.5157,3.5122,3.4889,3.4774,3.4851,3.5304,3.5354,3.5157,3.5157,3.5157,3.5157,3.5157,3.5304,3.5493,3.5493,3.5493,3.5493,3.5493,3.5493,3.5493,3.5493,3.5493,3.5446,3.5207,3.5157,3.4999,3.4383,3.4265,3.4171,3.3868,3.3807,3.3807,3.3807,3.3762,3.3606,3.3273,3.25,3.1951,3.188,3.1545,3.1269,3.1252,3.123,3.119,3.119,3.119,3.119,3.119,3.119,3.0975,3.0435,3.0393,3.0166,2.9629,2.954,2.9225,2.8606,2.8606,2.8319,2.771,2.771,2.771,2.771,2.771,2.7944,3.4093,3.4012,3.3993,3.3842,3.3928,3.3986,3.3842,3.3807,3.3734,3.3494,0.0,0.0,0.0,0.0,0.0,0.0,3.3587,3.3678,3.3348,3.3587,3.3807,3.3807,3.3902,3.4018,3.4176,3.4755,3.4981,3.4714,3.4944,3.4981,3.4714,3.4812,3.487,3.487,3.4981,3.5053,3.5053,3.5053,3.5053,3.5053,3.5053,3.5053,3.5053,3.5053,3.5053,3.5016,3.4926,3.487,3.487,3.4753,3.4694,3.4714,3.4944,3.4963,3.487,3.487,3.487,3.487,3.487,3.4944,3.507,3.5223,3.5155,3.5088,3.5417,3.5289,3.507,3.5223,3.5174,3.4999,3.4908,3.487,3.4774,3.4292,3.42,3.4123,3.3868,3.3807,3.3734,3.3494,3.3225,3.2903,3.2466,3.2298,3.2039,3.1545,3.1329,3.119,3.119,3.119,3.119,3.119,3.119,3.1055,3.0699,3.0699,3.0435,2.9805,2.9761,2.9496,2.8919,2.8873,2.8591,2.7993,2.8008,2.786,2.7625,2.7625,2.7625,2.7625,2.7625,2.771,3.3954,3.3935,3.4043,3.3842,3.3935,3.4043,3.3842,3.3807,3.3707,3.3419,3.3273,0.0,0.0,0.0,3.323,3.3305,0.0,3.3715,3.3495,3.366,3.3807,3.3807,3.3807,3.3876,3.4068,3.4553,3.4735,3.4464,3.4695,3.4735,3.4483,3.4508,3.4551,3.4551,3.4653,3.4694,3.4694,3.4694,3.4694,3.4694,3.4694,3.4694,3.4694,3.4694,3.4694,3.4694,3.4593,3.4551,3.4551,3.4464,3.4442,3.4442,3.4442,3.4442,3.4442,3.4529,3.4551,3.4551,3.4551,3.4614,3.4734,3.4926,3.487,3.4774,3.5155,3.4999,3.4734,3.4944,3.4851,3.4674,3.4572,3.4551,3.4486,3.4171,3.4074,3.4018,3.3716,3.3652,3.3522,3.3075,3.2745,3.235,3.1897,3.2004,3.1932,3.1291,3.119,3.119,3.119,3.119,3.1151,3.0975,3.0958,3.0699,3.0107,3.0038,2.9805,2.918,2.8996,2.8732,2.8271,2.8238,2.8042,2.7625,2.7625,2.7625,2.7625,2.7625,2.7625,2.7625,2.7625,2.7625,3.3954,3.3807,3.3815,3.3788,3.3807,3.3815,3.3788,3.3807,3.3807,3.3762,3.3465,3.3214,3.3214,3.3214,3.2931,3.2173,3.3058,0.0,0.0,3.3311,3.3807,3.3807,3.3807,3.3788,3.3815,3.4068,3.4123,3.3842,3.4093,3.4099,3.3842,3.4068,3.42,3.42,3.4529,3.4694,3.4694,3.4694,3.4694,3.4694,3.4694,3.4694,3.4694,3.4694,3.4694,3.4674,3.4357,3.42,3.4195,3.3954,3.3815,3.3815,3.3815,3.3815,3.3868,3.4123,3.42,3.42,3.42,3.4423,3.4694,3.4694,3.4694,3.4694,3.4714,3.4714,3.4694,3.4694,3.4713,3.4632,3.4311,3.42,3.4147,3.3876,3.3815,3.3689,3.3302,3.3214,3.3075,3.2616,3.2517,3.235,3.1897,3.147,3.123,3.119,3.119,3.119,3.119,3.119,3.0975,3.0393,3.0351,3.0064,2.9496,2.9406,2.918,2.8559,2.7993,2.766,2.7625,2.7625,2.7625,2.7625,2.7625,2.7625,2.7625,2.7625,2.7625,2.7625,2.7625,2.7625,3.3902,3.391,3.4018,3.3842,3.3935,3.4018,3.3842,3.3807,3.3734,3.3465,3.3302,3.3124,3.2777,3.2745,3.2656,3.2375,3.2662,3.2845,0.0,3.2773,3.2934,3.2934,3.3447,3.3807,3.3807,3.4043,3.4093,3.3815,3.4043,3.4074,3.3815,3.3876,3.3954,3.3954,3.4037,3.4087,3.4087,3.4087,3.4087,3.4087,3.4087,3.4087,3.4087,3.4087,3.4087,3.4087,3.3986,3.3954,3.3928,3.3842,3.3807,3.3807,3.3807,3.3807,3.3815,3.3902,3.3954,3.3954,3.3954,3.4012,3.4136,3.4311,3.426,3.4184,3.4591,3.442,3.4136,3.4311,3.4237,3.4087,3.3961,3.3954,3.3831,3.3476,3.339,3.3273,3.284,3.2745,3.2616,3.2127,3.2039,3.1897,3.1487,3.1291,3.119,3.119,3.0878,3.0601,3.0601,3.0251,2.9935,2.9717,2.9717,2.9451,2.8873,2.8448,2.8125,2.791,2.771,2.7625,2.7625,2.7625,2.7625,2.7625,2.7625,2.7625,2.7625,2.7625,2.7625,2.7625,2.7625,2.7625,3.3876,3.3928,3.4018,3.3842,3.391,3.4018,3.3842,3.368,3.355,3.3437,3.3027,3.2713,3.2745,3.2484,3.2316,3.2484,3.2484,3.2484,0.0,3.2484,3.2484,3.2484,3.2996,3.3343,3.3343,3.3487,3.3524,3.3343,3.3643,3.3768,3.3606,3.3734,3.3807,3.3807,3.3807,3.3807,3.3807,3.3807,3.3807,3.3807,3.3807,3.3807,3.3807,3.3807,3.3807,3.3807,3.3807,3.3807,3.3807,3.3807,3.3807,3.3807,3.3807,3.3807,3.3807,3.3807,3.3807,3.3807,3.3807,3.3807,3.3815,3.3993,3.3935,3.3868,3.4279,3.4111,3.3842,3.3993,3.3935,3.378,3.3606,3.3578,3.3494,3.3045,3.2952,3.2809,3.2332,3.223,3.2109,3.166,3.1418,3.1189,3.0902,3.0699,3.0617,3.0838,3.0559,3.0208,3.0038,2.9629,2.9316,2.9088,2.9088,2.8826,2.8222,2.781,2.7625,2.7625,2.7625,2.7625,2.7625,2.7625,2.7679,2.7934,2.7694,2.7694,2.7934,2.7745,2.7625,2.7625,2.7625,2.7625]},{"header":{"parameterUnit":"m.s-1","parameterCategory":1,"la1":30.6,"la2":29.2853,"lo1":-89.7004,"lo2":-87.6739,"dy":0.0162,"dx":0.0183,"nx":112,"ny":82,"refTime":"2023-08-20T06:00:00:Z","depth":0,"parameterNumber":3,"parameterNumberName":"V-component_of_WINDS"},"data":[0.0,0.0,0.0,0.0,0.0,0.0,0.0,0.0,0.0,0.0,0.0,0.0,0.0,0.0,0.0,0.0,0.0,0.0,0.0,0.0,0.0,0.0,0.0,0.0,0.0,0.0,0.0,0.0,0.0,0.0,0.0,0.0,0.0,0.0,0.0,0.0,0.0,0.0,0.0,0.0,0.0,0.0,0.0,0.0,0.0,0.0,0.0,0.0,0.0,0.0,0.0,0.0,0.0,0.0,0.0,0.0,0.0,0.0,0.0,0.0,0.0,0.0,0.0,0.0,0.0,0.0,0.0,0.0,0.0,0.0,0.0,0.0,0.0,0.0,0.0,0.0,0.0,0.0,0.0,0.0,0.0,0.0,0.0,0.0,0.0,0.0,0.0,0.0,0.0,0.0,-0.7902,-0.7996,-0.7995,-0.8014,-0.8014,-0.8014,-0.8014,-0.8014,0.0,0.0,0.0,0.0,0.0,0.0,0.0,0.0,0.0,0.0,0.0,0.0,0.0,0.0,0.0,0.0,0.0,0.0,0.0,0.0,0.0,0.0,0.0,0.0,0.0,0.0,0.0,0.0,0.0,0.0,0.0,0.0,0.0,0.0,0.0,0.0,0.0,0.0,0.0,0.0,0.0,0.0,0.0,0.0,0.0,0.0,0.0,0.0,0.0,0.0,0.0,0.0,0.0,0.0,0.0,0.0,0.0,0.0,0.0,0.0,0.0,0.0,0.0,0.0,0.0,0.0,0.0,0.0,0.0,0.0,0.0,0.0,0.0,0.0,0.0,0.0,0.0,0.0,0.0,0.0,0.0,0.0,0.0,0.0,0.0,0.0,0.0,0.0,0.0,0.0,0.0,0.0,0.0,0.0,0.0,0.0,0.0,0.0,0.0,0.0,0.0,0.0,0.0,0.0,-0.8029,-0.8277,-0.853,-0.8677,-0.8677,-0.8677,-0.8677,-0.8677,0.0,0.0,0.0,0.0,0.0,0.0,0.0,0.0,0.0,0.0,0.0,0.0,0.0,0.0,0.0,0.0,0.0,0.0,0.0,0.0,0.0,0.0,0.0,0.0,0.0,0.0,0.0,0.0,0.0,0.0,0.0,0.0,0.0,0.0,0.0,0.0,0.0,0.0,0.0,0.0,0.0,0.0,0.0,0.0,0.0,0.0,0.0,0.0,0.0,0.0,0.0,0.0,0.0,0.0,0.0,0.0,0.0,0.0,0.0,0.0,0.0,0.0,0.0,0.0,0.0,0.0,0.0,0.0,0.0,0.0,0.0,0.0,0.0,0.0,0.0,0.0,0.0,0.0,0.0,0.0,0.0,0.0,0.0,0.0,0.0,0.0,0.0,0.0,0.0,0.0,0.0,0.0,0.0,0.0,0.0,0.0,0.0,0.0,0.0,0.0,0.0,0.0,0.0,-0.849,-0.8457,-0.8597,-0.8731,-0.8804,-0.8804,-0.8804,-0.8804,-0.8804,-0.8557,0.0,0.0,0.0,0.0,0.0,0.0,0.0,0.0,0.0,0.0,0.0,0.0,0.0,0.0,0.0,0.0,0.0,0.0,0.0,0.0,0.0,0.0,0.0,0.0,0.0,0.0,0.0,0.0,0.0,0.0,0.0,0.0,0.0,0.0,0.0,0.0,0.0,0.0,0.0,0.0,0.0,0.0,0.0,0.0,0.0,0.0,0.0,0.0,0.0,0.0,0.0,0.0,0.0,0.0,0.0,0.0,0.0,0.0,0.0,0.0,0.0,0.0,0.0,0.0,0.0,0.0,0.0,0.0,0.0,0.0,0.0,0.0,0.0,0.0,0.0,0.0,0.0,0.0,0.0,0.0,0.0,0.0,0.0,0.0,0.0,0.0,0.0,0.0,0.0,0.0,0.0,0.0,0.0,0.0,0.0,0.0,0.0,0.0,0.0,0.0,0.0,0.0,-0.8533,-0.8533,-0.8533,-0.8699,-0.8804,-0.8804,-0.8804,-0.8804,-0.8804,-0.8804,0.0,0.0,0.0,0.0,0.0,0.0,0.0,0.0,0.0,0.0,0.0,0.0,0.0,0.0,0.0,0.0,0.0,0.0,0.0,0.0,0.0,0.0,0.0,0.0,0.0,0.0,0.0,0.0,0.0,0.0,0.0,0.0,0.0,0.0,0.0,0.0,0.0,0.0,0.0,0.0,0.0,0.0,0.0,0.0,0.0,0.0,0.0,0.0,0.0,0.0,0.0,0.0,0.0,0.0,0.0,0.0,0.0,0.0,0.0,0.0,0.0,0.0,0.0,0.0,0.0,0.0,0.0,0.0,0.0,0.0,0.0,0.0,0.0,0.0,0.0,0.0,0.0,0.0,0.0,0.0,0.0,0.0,0.0,0.0,0.0,0.0,0.0,0.0,0.0,0.0,0.0,0.0,0.0,0.0,0.0,0.0,0.0,0.0,0.0,0.0,0.0,0.0,-0.7777,-0.7777,-0.7777,-0.8374,-0.8804,-0.8804,-0.8804,-0.8804,-0.8804,-0.8804,0.0,0.0,0.0,0.0,0.0,0.0,0.0,0.0,0.0,0.0,0.0,0.0,0.0,0.0,0.0,0.0,0.0,0.0,0.0,0.0,0.0,0.0,0.0,0.0,0.0,0.0,0.0,0.0,0.0,0.0,0.0,0.0,0.0,0.0,0.0,0.0,0.0,0.0,0.0,0.0,0.0,0.0,0.0,0.0,0.0,0.0,0.0,0.0,0.0,0.0,0.0,0.0,0.0,0.0,0.0,0.0,0.0,0.0,0.0,0.0,0.0,0.0,0.0,0.0,0.0,0.0,0.0,0.0,0.0,0.0,0.0,0.0,0.0,0.0,0.0,0.0,0.0,0.0,0.0,0.0,0.0,0.0,0.0,0.0,0.0,0.0,0.0,0.0,0.0,0.0,0.0,0.0,0.0,0.0,0.0,0.0,0.0,0.0,0.0,0.0,0.0,0.0,-0.7723,-0.7723,-0.7723,-0.8374,-0.8804,-0.8804,-0.8804,-0.8804,-0.8804,0.0,0.0,0.0,0.0,0.0,0.0,0.0,0.0,0.0,0.0,0.0,0.0,0.0,0.0,0.0,0.0,0.0,0.0,0.0,0.0,0.0,0.0,0.0,0.0,0.0,0.0,0.0,0.0,0.0,0.0,0.0,0.0,0.0,0.0,0.0,0.0,0.0,0.0,0.0,0.0,0.0,0.0,0.0,0.0,0.0,0.0,0.0,0.0,0.0,0.0,0.0,0.0,0.0,0.0,0.0,0.0,0.0,0.0,0.0,0.0,0.0,0.0,0.0,0.0,0.0,0.0,0.0,0.0,0.0,0.0,0.0,0.0,0.0,0.0,0.0,0.0,0.0,0.0,0.0,0.0,0.0,0.0,0.0,0.0,0.0,0.0,0.0,0.0,0.0,0.0,0.0,0.0,0.0,0.0,0.0,0.0,0.0,0.0,0.0,0.0,0.0,0.0,-0.6902,-0.7015,-0.7015,-0.7015,-0.7664,-0.8209,-0.8427,-0.8427,-0.8533,-0.8804,0.0,0.0,0.0,0.0,0.0,0.0,0.0,0.0,0.0,0.0,0.0,0.0,0.0,0.0,0.0,0.0,0.0,0.0,0.0,0.0,0.0,0.0,0.0,0.0,0.0,0.0,0.0,0.0,0.0,0.0,0.0,0.0,0.0,0.0,0.0,0.0,0.0,0.0,0.0,0.0,0.0,0.0,0.0,0.0,0.0,0.0,0.0,0.0,0.0,0.0,0.0,0.0,0.0,0.0,0.0,0.0,0.0,0.0,0.0,0.0,0.0,0.0,0.0,0.0,0.0,0.0,0.0,0.0,0.0,0.0,0.0,0.0,0.0,0.0,0.0,0.0,0.0,0.0,0.0,0.0,0.0,0.0,0.0,0.0,0.0,0.0,0.0,0.0,0.0,0.0,0.0,0.0,0.0,0.0,0.0,0.0,0.0,0.0,0.0,0.0,0.0,0.0,-0.5433,-0.5487,-0.5487,-0.5487,-0.615,-0.6918,-0.7616,-0.7676,-0.8002,0.0,0.0,0.0,0.0,0.0,0.0,0.0,0.0,0.0,0.0,0.0,0.0,0.0,0.0,0.0,0.0,0.0,0.0,0.0,0.0,0.0,0.0,0.0,0.0,0.0,0.0,0.0,0.0,0.0,0.0,0.0,0.0,0.0,0.0,0.0,0.0,0.0,0.0,0.0,0.0,0.0,0.0,0.0,0.0,0.0,0.0,0.0,0.0,0.0,0.0,0.0,0.0,0.0,0.0,0.0,0.0,0.0,0.0,0.0,0.0,0.0,0.0,0.0,0.0,0.0,0.0,0.0,0.0,0.0,0.0,0.0,0.0,0.0,0.0,0.0,0.0,0.0,0.0,0.0,0.0,0.0,0.0,0.0,0.0,0.0,0.0,0.0,0.0,0.0,0.0,0.0,0.0,0.0,0.0,0.0,0.0,0.0,0.0,0.0,0.0,0.0,0.0,0.0,-0.5433,-0.5487,-0.5487,-0.5487,-0.6271,-0.6921,-0.7088,-0.7807,-0.8309,-0.8486,0.0,0.0,0.0,0.0,0.0,0.0,0.0,0.0,0.0,0.0,0.0,0.0,0.0,0.0,0.0,0.0,0.0,0.0,0.0,0.0,0.0,0.0,0.0,0.0,0.0,0.0,0.0,0.0,0.0,0.0,0.0,0.0,0.0,0.0,0.0,0.0,0.0,0.0,0.0,0.0,0.0,0.0,0.0,0.0,0.0,0.0,0.0,0.0,0.0,0.0,0.0,0.0,0.0,0.0,0.0,0.0,0.0,0.0,0.0,0.0,0.0,0.0,0.0,0.0,0.0,0.0,0.0,0.0,0.0,0.0,0.0,0.0,0.0,0.0,0.0,0.0,0.0,0.0,0.0,0.0,0.0,0.0,0.0,0.0,0.0,0.0,0.0,0.0,0.0,0.0,0.0,0.0,0.0,0.0,0.0,0.0,0.0,0.0,0.0,0.0,0.0,0.0,-0.5102,-0.522,-0.5262,-0.5262,-0.576,-0.6231,-0.6522,-0.739,-0.8063,-0.8358,0.0,0.0,0.0,0.0,0.0,0.0,0.0,0.0,0.0,0.0,0.0,0.0,0.0,0.0,0.0,0.0,0.0,0.0,0.0,0.0,0.0,0.0,0.0,0.0,0.0,0.0,0.0,0.0,0.0,0.0,0.0,0.0,0.0,0.0,0.0,0.0,0.0,0.0,0.0,0.0,0.0,0.0,0.0,0.0,0.0,0.0,0.0,0.0,0.0,0.0,0.0,0.0,0.0,0.0,0.0,0.0,0.0,0.0,0.0,0.0,0.0,0.0,0.0,0.0,0.0,0.0,0.0,0.0,0.0,0.0,0.0,0.0,0.0,0.0,0.0,0.0,0.0,0.0,0.0,0.0,0.0,0.0,0.0,0.0,0.0,0.0,0.0,0.0,0.0,0.0,0.0,0.0,0.0,0.0,0.0,0.0,0.0,0.0,0.0,0.0,0.0,0.0,-0.4711,-0.4833,-0.4918,-0.4918,-0.4931,-0.5179,-0.5836,-0.6745,-0.7589,-0.8309,0.0,0.0,0.0,0.0,0.0,0.0,0.0,0.0,0.0,0.0,0.0,0.0,0.0,0.0,0.0,0.0,0.0,0.0,0.0,0.0,0.0,0.0,0.0,0.0,0.0,0.0,0.0,0.0,0.0,0.0,0.0,0.0,0.0,0.0,0.0,0.0,0.0,0.0,0.0,0.0,0.0,0.0,0.0,0.0,0.0,0.0,0.0,0.0,0.0,0.0,0.0,0.0,0.0,0.0,0.0,0.0,0.0,0.0,0.0,0.0,-0.8817,-0.8624,0.0,0.0,0.0,0.0,0.0,0.0,0.0,0.0,0.0,0.0,0.0,0.0,0.0,0.0,0.0,0.0,0.0,0.0,0.0,0.0,0.0,0.0,0.0,0.0,0.0,0.0,0.0,0.0,0.0,0.0,0.0,0.0,0.0,0.0,0.0,0.0,0.0,0.0,0.0,0.0,-0.487,-0.4897,-0.4918,-0.4918,-0.502,-0.5147,-0.5269,-0.6264,-0.7177,-0.8011,-0.8908,0.0,0.0,0.0,0.0,0.0,0.0,0.0,0.0,0.0,0.0,0.0,0.0,0.0,0.0,0.0,0.0,0.0,0.0,0.0,0.0,0.0,0.0,0.0,0.0,0.0,0.0,0.0,0.0,0.0,0.0,0.0,0.0,0.0,0.0,0.0,0.0,0.0,0.0,0.0,0.0,0.0,0.0,0.0,0.0,0.0,0.0,0.0,0.0,0.0,0.0,0.0,0.0,0.0,0.0,0.0,0.0,0.0,0.0,0.0,-0.9753,-0.9113,0.0,0.0,0.0,0.0,0.0,0.0,0.0,0.0,0.0,0.0,0.0,0.0,0.0,0.0,0.0,0.0,0.0,0.0,0.0,0.0,0.0,0.0,0.0,0.0,0.0,0.0,0.0,0.0,0.0,0.0,0.0,0.0,0.0,0.0,0.0,0.0,0.0,0.0,0.0,0.0,-0.502,-0.5084,-0.5131,-0.5131,-0.5199,-0.524,-0.524,-0.6538,-0.7502,-0.7962,-0.9198,0.0,0.0,0.0,0.0,0.0,0.0,0.0,0.0,0.0,0.0,0.0,0.0,0.0,0.0,0.0,0.0,0.0,0.0,0.0,0.0,0.0,0.0,0.0,0.0,0.0,0.0,0.0,0.0,0.0,0.0,0.0,0.0,0.0,0.0,0.0,0.0,0.0,0.0,0.0,0.0,0.0,0.0,0.0,0.0,0.0,0.0,0.0,0.0,0.0,0.0,0.0,0.0,0.0,-1.2875,-1.2764,-1.2773,-1.2562,-1.2372,-1.2227,-1.0913,-0.994,-0.9159,-0.9111,0.0,0.0,0.0,0.0,0.0,0.0,0.0,0.0,0.0,0.0,0.0,0.0,0.0,0.0,0.0,0.0,0.0,0.0,0.0,0.0,0.0,0.0,-0.4597,-0.4597,-0.4597,-0.4597,-0.4597,0.0,0.0,0.0,0.0,0.0,0.0,0.0,0.0,0.0,0.0,0.0,-0.5172,-0.5281,-0.5428,-0.5428,-0.5428,-0.5428,-0.5428,-0.6859,-0.7832,-0.7962,-0.9518,-1.0428,0.0,0.0,0.0,0.0,0.0,0.0,0.0,0.0,0.0,0.0,0.0,0.0,0.0,0.0,0.0,0.0,0.0,0.0,0.0,0.0,0.0,0.0,0.0,0.0,0.0,0.0,0.0,0.0,0.0,0.0,0.0,0.0,-1.1459,-1.1508,0.0,0.0,0.0,0.0,0.0,0.0,0.0,0.0,0.0,0.0,0.0,0.0,0.0,-1.3603,-1.3965,-1.3912,-1.3912,-1.3912,-1.3917,-1.3883,-1.3893,-1.3834,-1.353,-1.2968,-1.2752,0.0,-1.0587,-1.0359,0.0,0.0,0.0,0.0,0.0,0.0,0.0,0.0,0.0,0.0,0.0,0.0,0.0,0.0,0.0,0.0,0.0,0.0,0.0,0.0,0.0,0.0,-0.486,-0.486,-0.486,-0.486,-0.486,-0.4755,-0.4707,-0.486,-0.4891,-0.4897,0.0,0.0,0.0,0.0,0.0,0.0,-0.5332,-0.5415,-0.5428,-0.5428,-0.5428,-0.5428,-0.5428,-0.6334,-0.7177,-0.7962,-0.8941,-0.9786,-1.0561,-1.0624,0.0,0.0,0.0,0.0,0.0,0.0,0.0,0.0,0.0,0.0,0.0,0.0,0.0,0.0,0.0,0.0,0.0,0.0,0.0,0.0,0.0,0.0,0.0,0.0,0.0,0.0,0.0,0.0,0.0,-1.166,-1.1934,-1.1934,-1.2324,-1.2598,0.0,0.0,0.0,0.0,0.0,0.0,0.0,0.0,0.0,-1.3857,-1.3857,-1.3945,-1.4077,-1.4077,-1.4077,-1.4077,-1.4385,-1.4502,-1.4502,-1.4746,-1.4675,-1.4393,-1.4393,-1.3747,-1.2647,-1.1295,-1.0335,-0.9666,0.0,0.0,0.0,0.0,-0.8851,-0.8362,-0.6974,-0.631,-0.5917,-0.5006,0.0,0.0,0.0,0.0,0.0,0.0,0.0,-0.4904,-0.4836,-0.4867,-0.4918,-0.4918,-0.4918,-0.4942,-0.502,-0.4986,-0.4958,-0.5023,-0.5036,-0.5067,-0.5152,-0.522,0.0,0.0,0.0,-0.5428,-0.5428,-0.5428,-0.5428,-0.5428,-0.5428,-0.5428,-0.5428,-0.6662,-0.7567,-0.7962,-0.9262,-1.0174,-1.0561,-1.0624,-1.0624,0.0,0.0,0.0,0.0,0.0,0.0,0.0,0.0,0.0,0.0,0.0,0.0,0.0,0.0,0.0,0.0,0.0,0.0,0.0,0.0,0.0,0.0,0.0,0.0,0.0,0.0,0.0,0.0,-1.2109,-1.2393,-1.2393,-1.2686,-1.2881,0.0,0.0,0.0,0.0,0.0,0.0,-1.3662,-1.3965,-1.4136,-1.4297,-1.4297,-1.4355,-1.4408,-1.4408,-1.4408,-1.4463,-1.4795,-1.4941,-1.4951,-1.5264,-1.541,-1.541,-1.541,-1.4932,-1.4091,-1.2365,-1.1088,-1.0241,-1.0165,-1.0068,-0.99,-0.982,-0.9675,-0.9296,-0.779,-0.7171,-0.6759,-0.5336,-0.4945,-0.4972,-0.4972,0.0,0.0,0.0,0.0,-0.5023,-0.4982,-0.5003,-0.5033,-0.5033,-0.5033,-0.506,-0.5165,-0.5189,-0.5189,-0.5189,-0.5189,-0.5226,-0.5342,-0.5428,0.0,-0.5428,-0.5428,-0.5428,-0.5428,-0.5428,-0.5428,-0.5428,-0.5428,-0.5491,-0.5686,-0.7116,-0.8091,-0.8291,-0.9779,-1.0624,-1.0624,-1.0624,-1.0624,-1.0624,0.0,0.0,0.0,0.0,0.0,0.0,0.0,0.0,0.0,0.0,0.0,0.0,0.0,0.0,0.0,0.0,0.0,0.0,0.0,0.0,0.0,0.0,0.0,0.0,0.0,0.0,0.0,0.0,0.0,-1.2842,-1.2871,0.0,0.0,0.0,0.0,-1.3477,-1.3867,-1.4048,-1.4048,-1.4068,-1.4326,-1.4736,-1.4746,-1.4941,-1.5342,-1.5342,-1.5342,-1.5342,-1.5371,-1.5381,-1.5381,-1.54,-1.541,-1.541,-1.541,-1.4932,-1.4177,-1.3829,-1.2865,-1.169,-1.1316,-1.0974,-1.0544,-1.02,-0.9656,-0.8877,-0.7724,-0.6813,-0.6104,-0.5218,-0.5009,-0.5121,-0.5121,-0.5223,0.0,0.0,-0.5226,-0.5304,-0.5159,-0.523,-0.5404,-0.5404,-0.5404,-0.5408,-0.5415,-0.5415,-0.5415,-0.5415,-0.5415,-0.5418,-0.5425,0.0,-0.5428,-0.5428,-0.5428,-0.5428,-0.5428,-0.5428,-0.5428,-0.5428,-0.5428,-0.5752,-0.6588,-0.7502,-0.8355,-0.9204,-1.0104,-1.0624,-1.0624,-1.0624,-1.0624,-1.0624,-1.0624,0.0,0.0,0.0,0.0,0.0,0.0,0.0,0.0,0.0,0.0,0.0,0.0,0.0,0.0,0.0,0.0,0.0,0.0,0.0,0.0,0.0,0.0,0.0,0.0,0.0,0.0,0.0,0.0,-1.2881,-1.3125,0.0,-1.3281,-1.3662,-1.3916,-1.3916,-1.4307,-1.4551,-1.4551,-1.4814,-1.5029,-1.5186,-1.5186,-1.5254,-1.541,-1.541,-1.541,-1.541,-1.541,-1.541,-1.541,-1.541,-1.541,-1.541,-1.541,-1.5235,-1.4972,-1.4888,-1.396,-1.2496,-1.1882,-1.1552,-1.1274,-1.0684,-1.0276,-0.9875,-0.889,-0.8419,-0.7981,-0.6527,-0.5678,-0.5281,-0.5281,-0.5318,-0.5418,-0.5294,-0.5318,-0.5415,-0.5294,-0.5321,-0.5428,-0.5428,-0.5428,-0.5428,-0.5428,-0.5428,-0.5428,-0.5428,-0.5428,-0.5428,-0.5428,-0.5428,-0.5428,-0.5428,-0.5428,-0.5428,-0.5428,-0.5428,-0.5428,-0.5428,-0.5428,-0.5752,-0.6654,-0.7502,-0.835,-0.9268,-1.011,-1.0624,-1.0624,-1.0624,-1.0624,-1.0624,-1.0624,-1.0624,0.0,0.0,0.0,0.0,0.0,0.0,0.0,0.0,0.0,0.0,0.0,0.0,0.0,0.0,0.0,0.0,0.0,0.0,0.0,0.0,0.0,0.0,0.0,0.0,0.0,-1.2881,-1.293,-1.3076,-1.334,-1.3564,-1.3711,-1.4102,-1.4355,-1.4355,-1.4746,-1.5,-1.5,-1.5264,-1.541,-1.541,-1.541,-1.541,-1.541,-1.541,-1.541,-1.541,-1.541,-1.541,-1.541,-1.541,-1.541,-1.541,-1.541,-1.541,-1.541,-1.541,-1.4746,-1.3726,-1.2931,-1.2258,-1.1772,-1.1226,-1.08,-1.0498,-0.9594,-0.8941,-0.8226,-0.7046,-0.6141,-0.5428,-0.5428,-0.5428,-0.5428,-0.5428,-0.5428,-0.5428,-0.5428,-0.5428,-0.5428,-0.5428,-0.5428,-0.5428,-0.5428,-0.5428,-0.5428,-0.5428,-0.5428,-0.5428,-0.5428,-0.5428,-0.5428,-0.5428,-0.5428,-0.5428,-0.5428,-0.5428,-0.5428,-0.5428,-0.5686,-0.6207,-0.7046,-0.7962,-0.8807,-0.9658,-1.0301,-1.0624,-1.0624,-1.0624,-1.0624,-1.0624,-1.0624,-1.0624,-1.0624,0.0,0.0,0.0,0.0,0.0,0.0,0.0,0.0,0.0,0.0,0.0,0.0,0.0,0.0,0.0,0.0,0.0,0.0,0.0,0.0,0.0,0.0,0.0,-1.29,-1.29,-1.3057,-1.3477,-1.3535,-1.3711,-1.4058,-1.4551,-1.4805,-1.4805,-1.5186,-1.541,-1.541,-1.541,-1.541,-1.541,-1.541,-1.542,-1.543,-1.543,-1.5439,-1.5508,-1.5449,-1.5449,-1.5508,-1.5449,-1.5449,-1.5449,-1.5449,-1.5449,-1.5449,-1.5449,-1.5449,-1.5332,-1.4519,-1.3235,-1.1896,-1.1834,-1.1288,-1.0498,-0.9658,-0.8221,-0.6785,-0.6719,-0.6137,-0.5428,-0.5428,-0.5428,-0.5428,-0.5428,-0.5428,-0.5428,-0.5428,-0.5428,-0.5428,-0.5428,-0.5428,-0.5428,-0.5428,-0.5428,-0.5428,-0.5428,-0.5428,-0.5428,-0.5428,-0.5428,-0.5428,-0.5428,-0.5428,0.0,-0.5428,-0.5428,-0.5428,-0.5428,-0.6203,-0.7111,-0.7962,-0.8812,-0.9658,-1.0561,-1.0624,-1.0624,-1.0624,-1.0624,-1.0624,-1.0624,-1.0624,-1.0624,-1.0624,0.0,0.0,0.0,0.0,0.0,0.0,0.0,0.0,0.0,0.0,0.0,0.0,0.0,0.0,0.0,0.0,0.0,0.0,0.0,0.0,0.0,-1.3135,-1.334,-1.334,-1.334,-1.3486,-1.3916,-1.4238,-1.4482,-1.46,-1.499,-1.5244,-1.5244,-1.5352,-1.541,-1.541,-1.541,-1.541,-1.541,-1.541,-1.5566,-1.5879,-1.5889,-1.6397,-1.7305,-1.6665,-1.6665,-1.7245,-1.6604,-1.6367,-1.6367,-1.6367,-1.6367,-1.6367,-1.6367,-1.6367,-1.6185,-1.475,-1.3906,-1.3416,-1.2258,-1.1288,-1.0561,-1.0301,-0.9524,-0.8484,-0.7832,-0.7046,-0.6203,-0.5624,-0.5428,-0.5428,-0.5428,-0.5428,-0.5428,-0.5428,-0.5428,-0.5428,-0.5428,-0.5428,-0.5428,-0.5428,-0.5428,-0.5428,-0.5428,-0.5428,-0.5428,-0.5428,-0.5428,-0.5428,-0.5428,-0.5428,-0.5428,-0.5428,-0.5943,-0.633,-0.633,-0.7111,-0.8027,-0.8877,-0.9139,-0.9658,-1.0561,-1.0624,-1.0624,-1.0624,-1.0624,-1.0624,-1.0624,-1.0624,-1.0624,0.0,0.0,0.0,0.0,0.0,0.0,0.0,0.0,0.0,0.0,0.0,0.0,0.0,0.0,0.0,0.0,0.0,0.0,0.0,0.0,0.0,0.0,-1.335,-1.3633,-1.3994,-1.3887,-1.3926,-1.4355,-1.4629,-1.4853,-1.5029,-1.5264,-1.541,-1.541,-1.541,-1.541,-1.541,-1.5586,-1.5684,-1.5684,-1.5869,-1.6084,-1.6338,-1.6338,-1.6713,-1.7451,-1.6971,-1.6971,-1.7451,-1.6908,-1.6665,-1.6665,-1.6665,-1.6665,-1.6665,-1.6665,-1.6665,-1.6617,0.0,0.0,0.0,0.0,-1.1466,-1.0624,-1.0624,-1.0047,-0.9139,-0.8285,-0.7437,-0.6527,-0.5686,-0.5428,-0.5428,-0.5428,-0.5428,-0.5428,-0.5428,-0.5428,-0.5428,-0.5428,-0.5428,-0.5428,-0.5428,-0.5428,-0.5428,-0.5428,-0.5428,0.0,-0.5428,-0.5428,-0.5428,-0.5428,-0.5428,-0.5428,-0.5428,-0.6141,-0.6719,-0.6719,-0.7827,-0.8748,-0.9274,-0.9658,0.0,0.0,0.0,-1.0624,-1.0624,-1.0624,0.0,0.0,0.0,-1.0624,-1.0624,-1.0624,0.0,0.0,-1.011,-1.011,0.0,0.0,0.0,0.0,0.0,0.0,0.0,0.0,0.0,0.0,0.0,0.0,0.0,0.0,0.0,0.0,-1.3584,-1.3916,-1.4678,-1.4492,-1.4424,-1.4814,-1.4853,-1.5,-1.5381,-1.541,-1.541,-1.541,-1.5459,-1.5488,-1.5488,-1.5898,0.0,0.0,0.0,-1.6758,-1.6807,-1.6807,-1.6826,-1.6992,-1.6875,-1.6875,-1.6992,-1.6875,-1.6875,-1.6875,-1.6875,-1.6875,-1.6875,-1.6875,-1.6875,-1.6865,-1.6768,-1.6192,-1.5276,-1.334,-1.1832,-1.0846,-1.0719,0.0,0.0,-0.8495,-0.7639,-0.6779,-0.5852,-0.5519,-0.5452,-0.5432,-0.5428,-0.5428,-0.5428,-0.5428,-0.5428,-0.5428,-0.5428,-0.5428,-0.5428,-0.5428,-0.5428,-0.5428,-0.5428,-0.5428,-0.5428,-0.5428,-0.5428,-0.5428,-0.5491,-0.5557,-0.5557,-0.64,-0.6981,-0.6981,-0.8484,0.0,-0.9466,-1.0174,-1.0624,-1.0624,-1.0688,-1.0681,-1.0624,-1.0688,-1.0681,-1.0624,-1.0624,-1.0624,-1.0624,-1.0624,-1.0624,-1.0624,-1.0624,-1.0624,0.0,0.0,0.0,0.0,0.0,0.0,0.0,0.0,0.0,0.0,0.0,0.0,0.0,0.0,0.0,-1.3496,-1.4092,-1.46,-1.4766,-1.5,-1.5195,-1.5283,-1.5293,-1.5322,-1.54,-1.541,-1.541,-1.541,-1.5732,-1.5937,-1.5937,-1.6357,-1.6602,-1.6602,-1.6689,-1.6904,-1.7256,-1.7256,-1.7805,-1.8785,-1.8078,0.0,-1.8785,-1.8078,-1.7764,-1.7764,-1.7764,-1.7764,-1.7764,-1.7764,-1.7764,-1.7695,-1.7002,-1.6192,-1.5377,-1.4204,-1.3228,-1.2328,-1.1525,-1.1121,-1.085,-0.9947,-0.905,-0.8048,-0.7074,-0.6222,0.0,-0.5396,-0.5428,-0.5428,-0.5428,-0.5428,-0.5428,-0.5428,-0.5428,-0.5428,-0.5428,-0.5428,-0.5428,-0.5428,-0.5428,-0.5428,-0.5428,-0.5428,-0.5428,-0.5428,-0.6009,-0.6461,-0.6461,-0.7832,-0.8812,-0.8812,-0.9716,-1.0364,-1.0364,-1.0498,-1.0624,-1.0624,-1.1233,-1.1288,-1.0624,-1.1226,-1.1288,-1.0624,-1.0624,-1.0624,-1.0624,-1.0624,-1.0624,-1.0624,-1.0624,-1.0624,0.0,0.0,0.0,0.0,0.0,0.0,0.0,0.0,0.0,0.0,0.0,-1.2939,-1.3154,0.0,-1.3643,-1.4072,-1.4512,-1.4863,-1.5068,-1.5283,-1.541,-1.541,-1.541,-1.541,-1.541,-1.541,-1.5498,-1.5723,-1.5998,-1.6162,-1.6387,-1.6816,-1.7061,-1.7061,-1.77,-1.7911,-1.7695,-1.8141,-1.8441,-1.8654,-1.8202,-1.8202,-1.8654,-1.8202,-1.8008,-1.8008,-1.8008,-1.8008,-1.8008,-1.8008,-1.8008,-1.7969,-1.7539,-1.675,-1.5674,-1.4747,-1.3779,-1.2781,-1.1765,-1.1423,-1.1149,-0.9817,-0.898,-0.8323,-0.69,-0.6109,-0.5681,-0.5603,-0.5583,-0.5583,-0.5583,-0.5528,-0.5477,-0.5477,-0.5416,-0.5428,-0.5428,-0.5428,-0.5428,-0.5428,-0.5428,-0.5428,-0.5428,-0.5428,-0.5428,-0.5428,-0.6137,-0.6719,-0.6719,-0.8221,-0.9274,-0.9274,-1.011,-1.0624,-1.0624,-1.0624,-1.0624,-1.0624,-1.0989,-1.1045,-1.0624,-1.0989,-1.0982,-1.0624,-1.0624,-1.0624,-1.0624,-1.0624,-1.0624,-1.0624,-1.0624,-1.0624,0.0,0.0,0.0,0.0,0.0,0.0,0.0,-1.3732,-1.3637,-1.3017,-1.2939,-1.3105,-1.3447,-1.3643,-1.3984,-1.4678,-1.4853,-1.5029,-1.5361,-1.541,-1.541,-1.541,-1.541,-1.541,-1.541,-1.5488,-1.5684,-1.6096,-1.6282,-1.6475,-1.6836,-1.7266,-1.75,-1.75,-1.8537,-1.8721,-1.8008,-1.8721,-1.8721,-1.8008,-1.8008,-1.8008,-1.8008,-1.8008,-1.8008,-1.8008,-1.8008,-1.8008,-1.8008,-1.8008,-1.8008,-1.8008,-1.7794,-1.7079,-1.608,-1.5129,-1.4066,-1.2892,-1.1937,-1.1597,-1.1312,-0.9602,-0.8898,-0.8389,-0.6641,-0.5988,-0.584,-0.581,-0.58,-0.58,-0.58,-0.5718,-0.563,-0.563,-0.5538,-0.544,-0.5413,-0.5473,-0.5463,-0.5432,-0.5428,-0.5428,-0.5428,-0.5428,-0.5425,-0.562,-0.64,-0.7046,-0.7177,-0.8608,-0.953,-0.953,-1.0174,-1.0624,-1.0624,-1.0624,-1.0624,-1.0624,-1.0744,-1.0744,-1.0624,-1.0744,-1.0744,-1.0624,-1.0624,-1.0624,-1.0624,-1.0624,-1.0624,-1.0624,-1.0624,-1.0624,-1.6423,-1.5611,-1.4652,-1.405,-1.3862,-1.3637,0.0,-1.342,-1.3637,-1.3017,-1.3174,-1.3447,-1.3496,-1.4131,-1.4678,-1.4766,-1.5098,-1.5361,-1.54,-1.541,-1.541,-1.541,-1.541,-1.541,-1.541,-1.5762,-1.6066,-1.6115,-1.6797,-1.7256,-1.7305,-1.7715,-1.7939,-1.7939,-1.8046,-1.8076,-1.8008,-1.8076,-1.8076,-1.8008,-1.8008,-1.8008,-1.8008,-1.8008,-1.8008,-1.8008,-1.8008,-1.8008,-1.8008,-1.8008,-1.8008,-1.794,-1.707,-1.6678,-1.6426,-1.552,-1.4514,-1.3497,-1.2563,-1.2204,-1.2051,-1.0923,-0.9963,-0.896,-0.7734,-0.6663,-0.5976,-0.584,-0.58,-0.58,-0.58,-0.5789,-0.5779,-0.5779,-0.5766,-0.5718,-0.5593,-0.5562,-0.5525,-0.5456,-0.5428,-0.5428,-0.5428,-0.5428,-0.5686,-0.6461,-0.7307,-0.8156,-0.8877,-0.9849,-1.0428,-1.0428,-1.0561,-1.0624,-1.0624,-1.0624,-1.0624,-1.0624,-1.1288,-1.1351,-1.0624,-1.1288,-1.1351,-1.0624,-1.0624,-1.0624,-1.0624,-1.0624,-1.0624,-1.0624,-1.0624,-1.0624,-1.6522,-1.5611,-1.4744,-1.4824,-1.4318,-1.3732,-1.3457,-1.3637,-1.371,-1.3333,-1.3389,-1.3662,-1.416,-1.4541,-1.4863,-1.5107,-1.5293,-1.541,-1.541,-1.541,-1.541,-1.541,-1.541,-1.5508,-1.5762,-1.5957,-1.6341,-1.6797,-1.7178,-1.749,-1.7734,-1.791,-1.8008,-1.8008,-1.8462,-1.8529,-1.8008,-1.8529,-1.8529,-1.8008,-1.8008,-1.8008,-1.8008,-1.8008,-1.8008,-1.8008,-1.8008,-1.8008,-1.8008,-1.8008,-1.8008,-1.794,-1.695,-1.6298,-1.5649,-1.4665,-1.4027,-1.36,-1.2666,-1.1922,-1.1242,-1.0265,-0.9216,-0.8219,-0.7163,-0.654,-0.6152,-0.6088,-0.6067,-0.6067,-0.6067,-0.6003,-0.5935,-0.5935,-0.5867,-0.5786,-0.5725,-0.5711,-0.5671,-0.5521,-0.5494,-0.5467,-0.5442,-0.5815,-0.6465,-0.7307,-0.7762,-0.8291,-0.921,-1.0187,-1.0875,-1.1049,-1.1062,-1.1062,-1.1062,-1.1062,-1.0995,-1.0822,-1.1125,-1.1106,-1.0631,-1.0926,-1.0926,-1.0624,-1.0624,-1.0624,-1.0624,-1.0624,-1.0624,-1.0624,-1.0624,-1.0624,-1.6522,-1.5744,-1.5062,-1.5499,-1.4824,-1.4082,-1.4221,-1.41,-1.3948,-1.3972,-1.3925,-1.4043,-1.4668,-1.4883,-1.5059,-1.5361,-1.541,-1.541,-1.541,-1.541,-1.541,-1.541,-1.541,-1.5635,-1.6191,-1.625,-1.6562,-1.7324,-1.749,-1.7686,-1.7988,-1.8008,-1.8008,-1.8008,-1.8596,-1.8664,-1.8008,-1.8664,-1.8586,-1.8008,-1.8008,-1.8008,-1.8008,-1.8008,-1.8008,-1.8008,-1.8008,-1.8008,-1.8008,-1.8008,-1.7872,-1.7501,-1.6594,-1.5596,-1.4665,-1.3665,-1.331,-1.3164,-1.2211,-1.1391,-1.0559,-0.9291,-0.8389,-0.7629,-0.6644,-0.6338,-0.6338,-0.6338,-0.6338,-0.6338,-0.6338,-0.6176,-0.6095,-0.6095,-0.601,-0.5915,-0.5874,-0.5864,-0.5823,-0.5677,-0.5647,-0.5669,-0.578,-0.638,-0.7256,-0.8325,-0.8504,-0.8854,-0.9645,-1.0528,-1.1189,-1.1403,-1.1423,-1.1423,-1.1423,-1.1423,-1.1336,-1.1129,-1.1109,-1.1015,-1.0808,-1.0795,-1.0762,-1.0681,-1.0681,-1.0641,-1.0624,-1.0624,-1.0624,-1.0624,-1.0624,-1.0624,-1.6522,-1.6051,-1.5588,-1.5588,-1.5141,-1.4832,-1.535,-1.492,-1.4555,-1.5068,-1.4965,-1.4756,-1.4785,-1.5117,-1.54,-1.541,-1.541,-1.541,-1.541,-1.541,-1.541,-1.541,-1.541,-1.5752,-1.6631,-1.6709,-1.6894,-1.7344,-1.7764,-1.7998,-1.8008,-1.8008,-1.8008,-1.8008,-1.8008,-1.8008,-1.8008,-1.8008,-1.8008,-1.8008,-1.8008,-1.8008,-1.8008,-1.8008,-1.8008,-1.8008,-1.8008,-1.8008,-1.8008,-1.8008,-1.7432,-1.6567,-1.5587,-1.4593,-1.36,-1.2659,-1.2372,-1.2224,-1.1162,-1.0858,-1.0484,-0.8456,-0.7859,-0.7629,-0.6644,-0.6338,-0.6338,-0.6338,-0.6338,-0.6338,-0.6338,-0.6257,-0.6254,-0.6254,-0.6251,-0.6207,-0.6054,-0.6023,-0.5976,-0.5823,-0.5793,-0.6026,-0.6757,-0.7077,-0.7832,-0.9405,-0.9849,-1.0262,-1.0883,-1.1236,-1.1416,-1.1423,-1.1423,-1.1423,-1.1423,-1.1423,-1.1423,-1.1416,-1.141,-1.141,-1.1403,-1.1403,-1.1269,-1.0982,-1.0982,-1.0842,-1.0624,-1.0624,-1.0624,-1.0624,-1.0624,-1.0624,-1.6986,-1.6377,-1.5671,-1.6061,-1.5695,-1.5373,-1.5977,-1.5892,-1.5864,-1.6299,-1.6319,-1.631,-1.6622,-1.6377,-1.6151,-1.6151,-1.57,-1.541,-1.541,-1.541,-1.541,-1.541,-1.541,-1.5762,-1.665,-1.6665,-1.7031,-1.7744,-1.793,-1.8008,-1.8008,-1.8008,-1.8008,-1.8008,-1.8008,-1.8008,-1.8008,-1.8008,-1.8008,-1.8008,-1.8008,-1.8008,-1.8008,-1.8008,-1.8008,-1.8008,-1.8008,-1.8008,-1.794,-1.7354,-1.6853,-1.6428,-1.4807,-1.4027,-1.36,-1.2666,-1.1848,-1.1242,-1.0938,-0.9959,-0.8685,-0.8008,-0.7326,-0.6718,-0.6412,-0.6338,-0.6338,-0.6338,-0.6338,-0.6338,-0.6338,-0.6338,-0.6338,-0.6338,-0.6338,-0.6247,-0.6196,-0.6183,-0.6135,-0.5983,-0.5952,-0.6193,-0.7012,-0.7733,-0.886,-1.0849,-1.1069,-1.1112,-1.1563,-1.1663,-1.179,-1.1991,-1.2004,-1.2004,-1.2004,-1.2004,-1.1924,-1.173,-1.1724,-1.163,-1.143,-1.1423,-1.1376,-1.1283,-1.1283,-1.1229,-1.1136,-1.1136,-1.1035,-1.0848,-1.0255,-0.9894,-1.6974,-1.6658,-1.6341,-1.6681,-1.6633,-1.6632,-1.7211,-1.6977,-1.6834,-1.7461,-1.724,-1.7062,-1.7543,-1.6978,-1.6606,-1.6877,-1.6255,-1.5806,-1.5806,-1.5806,-1.569,-1.541,-1.541,-1.5762,-1.665,-1.6665,-1.709,-1.7949,-1.8008,-1.8008,-1.8008,-1.8008,-1.8008,-1.8008,-1.8008,-1.8008,-1.8008,-1.8008,-1.8008,-1.8008,-1.8008,-1.8008,-1.8008,-1.8008,-1.8008,-1.8008,-1.8008,-1.7794,-1.7432,-1.6853,-1.621,-1.5438,-1.4163,-1.3302,-1.2565,-1.199,-1.0864,-0.9809,-1.0115,-0.9216,-0.7706,-0.7403,-0.6795,-0.6338,-0.6338,-0.6338,-0.6338,-0.6338,-0.6338,-0.6338,-0.6338,-0.6338,-0.6338,-0.6338,-0.6338,-0.6338,-0.6338,-0.6338,-0.623,-0.6132,-0.6112,-0.6506,-0.7627,-0.8948,-1.032,-1.1834,-1.1864,-1.1804,-1.1997,-1.2024,-1.2098,-1.2278,-1.2305,-1.2305,-1.2305,-1.2305,-1.2225,-1.2037,-1.2024,-1.1787,-1.1237,-1.116,-1.1115,-1.1013,-1.1013,-1.1177,-1.1423,-1.1423,-1.1329,-1.1149,-1.019,-0.9898,-1.6559,-1.6961,-1.7388,-1.7413,-1.7815,-1.8355,-1.8907,-1.8019,-1.7442,-1.8517,-1.7751,-1.7104,-1.7598,-1.709,-1.6821,-1.7468,-1.6922,-1.6436,-1.6436,-1.6436,-1.6208,-1.5468,-1.541,-1.5762,-1.665,-1.6665,-1.709,-1.7949,-1.8008,-1.8008,-1.8008,-1.8008,-1.8008,-1.8008,-1.8008,-1.8008,-1.8008,-1.8008,-1.8008,-1.8008,-1.8008,-1.8008,-1.8008,-1.8008,-1.8008,-1.8008,-1.794,-1.7432,-1.6558,-1.6489,-1.5367,-1.3673,-1.3673,-1.2485,-1.0783,-1.0783,-0.9508,-0.7931,-0.8922,-0.8542,-0.7553,-0.6644,-0.6338,-0.6338,-0.6338,-0.6338,-0.6338,-0.6338,-0.6338,-0.6338,-0.6338,-0.6338,-0.6338,-0.6338,-0.6338,-0.6338,-0.6338,-0.6338,-0.6338,-0.6338,-0.6416,-0.6969,-0.8626,-1.0569,-1.1984,-1.2265,-1.2305,-1.2305,-1.2305,-1.2305,-1.2305,-1.2305,-1.2305,-1.2305,-1.2305,-1.2305,-1.2305,-1.2305,-1.2305,-1.1848,-1.0858,-1.0783,-1.0672,-1.0431,-1.0425,-1.0734,-1.147,-1.1401,-1.1394,-1.1381,-1.0315,-1.0315,-1.7049,-1.7262,-1.7488,-1.789,-1.8103,-1.8355,-1.8907,-1.8435,-1.8091,-1.8771,-1.8645,-1.8592,-1.9157,-1.8167,-1.7357,-1.7578,-1.6528,-1.569,-1.569,-1.569,-1.5584,-1.541,-1.541,-1.5762,-1.665,-1.6665,-1.709,-1.7949,-1.8008,-1.8008,-1.8008,-1.8008,-1.8008,-1.8008,-1.8008,-1.8008,-1.8008,-1.8008,-1.8008,-1.8008,-1.8008,-1.8008,-1.8008,-1.8008,-1.8008,-1.794,-1.7285,-1.6853,-1.6489,-1.5013,-1.4163,-1.36,-1.2952,-1.1909,-1.0783,-1.0783,-0.9508,-0.7859,-0.8084,-0.7553,-0.6644,-0.6416,-0.6338,-0.6338,-0.6338,-0.6338,-0.6338,-0.6338,-0.6338,-0.6338,-0.6338,-0.6338,-0.6338,-0.6338,-0.6338,-0.6338,-0.6338,-0.6338,-0.6338,-0.6338,-0.748,-0.8898,-1.0101,-1.1365,-1.2218,-1.2291,-1.2305,-1.2305,-1.2305,-1.2305,-1.2305,-1.2305,-1.2305,-1.2305,-1.2305,-1.2305,-1.2305,-1.2305,-1.2305,-1.1848,-1.0858,-1.0783,-1.0754,-1.0689,-1.0689,-1.1175,-1.2078,-1.1332,-1.1232,-1.1686,-0.9227,-0.8566,-1.6911,-1.7187,-1.7451,-1.7765,-1.8028,-1.8292,-1.8593,-1.8242,-1.8003,-1.8555,-1.848,-1.8543,-1.9321,-1.8225,-1.7429,-1.797,-1.6856,-1.5864,-1.5864,-1.5864,-1.5748,-1.541,-1.541,-1.5684,-1.6377,-1.6621,-1.7012,-1.7686,-1.791,-1.8008,-1.8008,-1.8008,-1.8008,-1.8008,-1.8008,-1.8008,-1.8008,-1.8008,-1.8008,-1.8008,-1.8008,-1.8008,-1.8008,-1.7569,-1.7354,-1.7354,-1.6358,-1.572,-1.5226,-1.4163,-1.3222,-1.2338,-1.1835,-1.0789,-0.9508,-0.9508,-0.8456,-0.7176,-0.7176,-0.6795,-0.6338,-0.6338,-0.6338,-0.6338,-0.6338,-0.6338,-0.6338,-0.6338,-0.6338,-0.6338,-0.6338,-0.6338,-0.6338,-0.6338,-0.6338,-0.6338,-0.6338,-0.6338,-0.6416,-0.6872,-0.8237,-0.9593,-1.064,-1.162,-1.2305,-1.2305,-1.2305,-1.2305,-1.2305,-1.2305,-1.2305,-1.2305,-1.2305,-1.2305,-1.2305,-1.1922,-1.162,-1.162,-1.1248,-1.0496,-0.9508,-0.9508,-0.9664,-1.0115,-0.9739,-1.019,-1.162,-1.064,-1.0347,-1.0736,-0.8584,-0.8078,-1.6522,-1.6936,-1.7388,-1.7388,-1.7739,-1.8091,-1.8091,-1.7664,-1.7426,-1.7978,-1.7714,-1.7702,-1.8731,-1.7804,-1.7304,-1.8272,-1.7368,-1.6492,-1.6379,-1.6368,-1.6151,-1.5468,-1.541,-1.5586,-1.6016,-1.6465,-1.6914,-1.7344,-1.7773,-1.8008,-1.8008,-1.8008,-1.8008,-1.8008,-1.8008,-1.8008,-1.8008,-1.8008,-1.8008,-1.8008,-1.8008,-1.794,-1.7794,-1.6991,-1.6558,-1.6349,-1.5438,-1.4522,-1.3673,-1.3448,-1.2338,-1.0783,-1.0634,-0.9437,-0.7783,-0.7783,-0.7176,-0.6338,-0.6338,-0.6338,-0.6338,-0.6338,-0.6338,-0.6338,-0.6338,-0.6338,-0.6338,-0.6338,-0.6338,-0.6338,-0.6338,-0.6338,-0.6338,-0.6338,-0.6338,-0.6338,-0.6338,-0.6412,-0.6795,-0.7783,-0.8841,-0.982,-1.0864,-1.1694,-1.2305,-1.2305,-1.2305,-1.2305,-1.2305,-1.2305,-1.2305,-1.2305,-1.2305,-1.2224,-1.2077,-1.1316,-1.0708,-1.0634,-0.982,-0.8841,-0.7859,-0.7783,-0.8237,-0.9069,-0.8237,-0.8761,-1.0565,-0.9593,-0.9145,-0.9296,-0.8161,-0.8161,-1.6522,-1.6936,-1.7388,-1.7388,-1.7451,-1.7526,-1.7526,-1.7074,-1.6823,-1.7413,-1.7451,-1.7576,-1.8229,-1.798,-1.7594,-1.7164,-1.6775,-1.6265,-1.569,-1.5584,-1.5526,-1.541,-1.541,-1.5586,-1.6016,-1.6465,-1.6914,-1.7344,-1.7773,-1.8008,-1.8008,-1.8008,-1.8008,-1.8008,-1.8008,-1.8008,-1.8008,-1.8008,-1.8008,-1.8008,-1.8008,-1.7569,-1.6853,-1.6636,-1.621,-1.5376,-1.4378,-1.3882,-1.3593,-1.197,-1.1081,-1.0714,-0.9895,-0.8841,-0.7783,-0.7783,-0.7176,-0.6338,-0.6338,-0.6338,-0.6338,-0.6338,-0.6338,-0.6338,-0.6338,-0.6338,-0.6338,-0.6338,-0.6338,-0.6338,-0.6338,-0.6338,-0.6338,-0.6338,-0.6338,-0.6338,-0.6338,-0.6949,-0.7859,-0.8841,-0.982,-1.0864,-1.1848,-1.215,-1.2305,-1.2305,-1.2305,-1.2305,-1.2305,-1.2305,-1.2305,-1.2305,-1.2305,-1.1996,-1.1162,-1.0932,-1.0415,-0.9599,-0.9372,-0.8841,-0.7859,-0.7783,-0.7859,-0.8084,-0.7859,-0.8389,-0.9593,-0.8537,-0.8466,-0.9221,-0.7403,-0.7099,-1.6522,-1.6722,-1.6936,-1.6936,-1.6936,-1.6936,-1.6936,-1.6722,-1.6597,-1.6873,-1.6936,-1.7099,-1.7677,-1.7605,-1.747,-1.737,-1.6885,-1.6379,-1.6036,-1.5642,-1.541,-1.541,-1.541,-1.5498,-1.5703,-1.6338,-1.6816,-1.7031,-1.7646,-1.8008,-1.8008,-1.8008,-1.8008,-1.8008,-1.8008,-1.8008,-1.8008,-1.8008,-1.8008,-1.8008,-1.7501,-1.707,-1.6567,-1.5579,-1.4871,-1.4386,-1.3382,-1.2645,-1.2117,-1.1156,-1.0185,-0.921,-0.8689,-0.7936,-0.7022,-0.7022,-0.6718,-0.6338,-0.6338,-0.6338,-0.6338,-0.6338,-0.6338,-0.6338,-0.6338,-0.6338,-0.6338,-0.6338,-0.6338,-0.6338,-0.6338,-0.6338,-0.6338,-0.6338,-0.6338,-0.6338,-0.6338,-0.6641,-0.7326,-0.8313,-0.8912,-0.9739,-1.1242,-1.1539,-1.1694,-1.2224,-1.2305,-1.2077,-1.162,-1.1539,-1.1539,-1.1539,-1.1539,-1.1093,-1.0115,-0.9513,-0.9064,-0.8542,-0.8012,-0.7553,-0.7022,-0.7022,-0.7249,-0.7783,-0.7249,-0.748,-0.8542,-0.748,-0.7249,-0.7706,-0.6718,-0.6567,-1.6522,-1.6522,-1.6522,-1.6522,-1.6522,-1.6466,-1.6337,-1.6293,-1.6281,-1.6151,-1.6107,-1.6242,-1.6741,-1.6848,-1.6991,-1.7248,-1.6874,-1.6436,-1.6265,-1.5758,-1.541,-1.541,-1.541,-1.541,-1.541,-1.6211,-1.6665,-1.6665,-1.7529,-1.8008,-1.8008,-1.8008,-1.8008,-1.8008,-1.8008,-1.8008,-1.8008,-1.8008,-1.7862,-1.7716,-1.6922,-1.6349,-1.593,-1.4378,-1.36,-1.3382,-1.2358,-1.1545,-1.0783,-1.0335,-0.921,-0.7783,-0.7553,-0.7022,-0.6338,-0.6338,-0.6338,-0.6338,-0.6338,-0.6338,-0.6338,-0.6338,-0.6338,-0.6338,-0.6338,-0.6338,-0.6338,-0.6338,-0.6338,-0.6338,-0.6338,-0.6338,-0.6338,-0.6338,-0.6338,-0.6338,-0.6338,-0.649,-0.6872,-0.7629,-0.8008,-0.8613,-1.019,-1.049,-1.0714,-1.1545,-1.1626,-1.1397,-1.0565,-1.049,-1.0415,-1.0185,-1.0335,-1.004,-0.9069,-0.8237,-0.7706,-0.748,-0.6718,-0.6338,-0.6338,-0.6338,-0.6641,-0.748,-0.6718,-0.6721,-0.748,-0.6721,-0.6338,-0.6338,-0.6338,-0.6338,-1.6522,-1.6522,-1.6522,-1.6522,-1.6522,-1.638,-1.582,-1.5676,-1.5543,-1.4971,-1.488,-1.4903,-1.4949,-1.5683,-1.6098,-1.5435,-1.5972,-1.6265,-1.5584,-1.5468,-1.541,-1.541,-1.541,-1.541,-1.541,-1.6211,-1.6665,-1.6665,-1.7529,-1.8008,-1.8008,-1.8008,-1.8008,-1.8008,-1.8008,-1.8008,-1.8008,-1.8008,-1.7569,-1.6706,-1.6636,-1.5649,-1.3954,-1.3818,-1.3237,-1.2372,-1.1391,-1.0864,-1.0634,-0.8836,-0.7931,-0.7706,-0.6795,-0.6416,-0.6338,-0.6338,-0.6338,-0.6338,-0.6338,-0.6338,-0.6338,-0.6338,-0.6338,-0.6338,-0.6338,-0.6338,-0.6338,-0.6338,-0.6338,-0.6338,-0.6338,-0.6338,-0.6338,-0.6338,-0.6338,-0.6338,-0.6338,-0.7022,-0.7706,-0.7783,-0.8542,-0.9221,-0.9372,-0.9448,-0.9448,-0.9599,-0.9599,-0.9523,-0.9448,-0.9448,-0.9069,-0.8161,-0.8917,-0.8993,-0.8008,-0.7859,-0.7403,-0.649,-0.6338,-0.6338,-0.6338,-0.6338,-0.6338,-0.6412,-0.6338,-0.6338,-0.6412,-0.6338,-0.6338,-0.6338,-0.6338,-0.6338,-1.6522,-1.6522,-1.6522,-1.6522,-1.6238,-1.5908,-1.5632,-1.532,-1.5005,-1.4744,-1.4698,-1.4698,-1.4698,-1.5516,-1.6087,-1.5833,-1.6158,-1.6379,-1.6093,-1.569,-1.5235,-1.4746,-1.5108,-1.5235,-1.4746,-1.5894,-1.6943,-1.7461,-1.7812,-1.8008,-1.8008,-1.8008,-1.8008,-1.8008,-1.8008,-1.8008,-1.8008,-1.7432,-1.6991,-1.6567,-1.5438,-1.445,-1.3673,-1.3091,-1.2285,-1.1391,-1.0932,-1.011,-0.8912,-0.8161,-0.748,-0.6872,-0.649,-0.6338,-0.6338,-0.6338,-0.6338,-0.6338,-0.6338,-0.6338,-0.6338,-0.6338,-0.6338,-0.6338,-0.6338,-0.6338,-0.6338,-0.6338,-0.6338,-0.6338,-0.6338,-0.6338,-0.6338,-0.6338,-0.6338,-0.6338,-0.6338,-0.6644,-0.6872,-0.6872,-0.7249,-0.7706,-0.8313,-0.8389,-0.8618,-0.9221,-0.9296,-0.9296,-0.9296,-0.9296,-0.8917,-0.7936,-0.8161,-0.8012,-0.6945,-0.6872,-0.6718,-0.6338,-0.6338,-0.6338,-0.6338,-0.6338,-0.6338,-0.6338,-0.6338,-0.6338,-0.6338,-0.6338,-0.6338,-0.6338,-0.6338,-0.6264,-1.6281,-1.638,-1.6479,-1.6281,-1.5908,-1.5499,-1.5129,-1.4732,-1.4376,-1.4201,-1.4154,-1.4154,-1.4154,-1.493,-1.5566,-1.5566,-1.5941,-1.6151,-1.6151,-1.5748,-1.5177,-1.4628,-1.505,-1.505,-1.4273,-1.5256,-1.6225,-1.6992,-1.7366,-1.7579,-1.7579,-1.7579,-1.7716,-1.8008,-1.8008,-1.7872,-1.7579,-1.6922,-1.628,-1.572,-1.4378,-1.3528,-1.3237,-1.2285,-1.1465,-1.0783,-1.0185,-0.9135,-0.7783,-0.748,-0.6945,-0.6338,-0.6338,-0.6338,-0.6338,-0.6264,-0.6264,-0.6338,-0.6264,-0.6268,-0.6268,-0.6264,-0.6264,-0.6268,-0.6264,-0.6338,-0.6338,-0.6338,-0.6338,-0.6338,-0.6338,-0.6338,-0.6338,-0.6338,-0.6338,-0.6338,-0.6338,-0.6338,-0.6338,-0.6338,-0.6338,-0.649,-0.7249,-0.7326,-0.7706,-0.8694,-0.8846,-0.8993,-0.9296,-0.9069,-0.8618,-0.7859,-0.7557,-0.7099,-0.6338,-0.6338,-0.6338,-0.6338,-0.6338,-0.6338,-0.6338,-0.6338,-0.6338,-0.6338,-0.6338,-0.6338,-0.6338,-0.6264,-0.6268,-0.6268,-0.6271,-0.5954,-1.5776,-1.6051,-1.638,-1.5764,-1.5588,-1.5276,-1.4086,-1.3815,-1.3647,-1.3065,-1.2929,-1.2929,-1.2929,-1.3564,-1.4131,-1.4131,-1.4853,-1.541,-1.541,-1.541,-1.541,-1.541,-1.541,-1.505,-1.4273,-1.417,-1.4305,-1.473,-1.5929,-1.6627,-1.6627,-1.6627,-1.707,-1.794,-1.8008,-1.7569,-1.6636,-1.6636,-1.5649,-1.3745,-1.3745,-1.3237,-1.2298,-1.1236,-1.0783,-1.0708,-0.8685,-0.7783,-0.7706,-0.6718,-0.6338,-0.6338,-0.6338,-0.6338,-0.6264,-0.6274,-0.6271,-0.6264,-0.6274,-0.6278,-0.6278,-0.6264,-0.6268,-0.6278,-0.6264,-0.6338,-0.6338,-0.6338,-0.6338,-0.6338,-0.6338,-0.6338,-0.6338,-0.6338,-0.6338,-0.6338,-0.6338,-0.6338,-0.6338,-0.6338,-0.6338,-0.6338,-0.6338,-0.6338,-0.6641,-0.7629,-0.7783,-0.8161,-0.9145,-0.8466,-0.7783,-0.7783,-0.6872,-0.6338,-0.6338,-0.6338,-0.6338,-0.6338,-0.6338,-0.6338,-0.6338,-0.6338,-0.6338,-0.6338,-0.6338,-0.6338,-0.6338,-0.6274,-0.6278,-0.6278,-0.6291,-0.5176,-1.5062,-1.5107,-1.5197,-1.5017,-1.4687,-1.4272,-1.3909,-1.3082,-1.2404,-1.2178,-1.1783,-1.1484,-1.1484,-1.2105,-1.2795,-1.3304,-1.4042,-1.4746,-1.5294,-1.4932,-1.4392,-1.3855,-1.3295,-1.3144,-1.3712,-1.3995,-1.4305,-1.4653,-1.5306,-1.5658,-1.5658,-1.5658,-1.6079,-1.6991,-1.6437,-1.5939,-1.5658,-1.4942,-1.4307,-1.3673,-1.3025,-1.2211,-1.1242,-1.0938,-1.0034,-0.8685,-0.8084,-0.7403,-0.6718,-0.6412,-0.6338,-0.6338,-0.6338,-0.6338,-0.6264,-0.6274,-0.6278,-0.6274,-0.6288,-0.6285,-0.6038,-0.4611,-0.5082,-0.6268,-0.6271,-0.6268,-0.6338,-0.6338,-0.6338,-0.6338,-0.6338,-0.6338,-0.6338,-0.6338,-0.6338,-0.6338,-0.6338,-0.6338,-0.6338,-0.6338,-0.6338,-0.6338,-0.6338,-0.6872,-0.7403,-0.7783,-0.8389,-0.8922,-0.9221,-0.8993,-0.8542,-0.7859,-0.748,-0.7022,-0.6338,-0.6338,-0.6338,-0.6338,-0.6338,-0.6338,-0.6338,-0.6338,-0.6264,-0.6274,-0.6274,-0.6278,-0.6285,-0.6288,-0.5569,-0.4144,-0.5587,-0.5918,-1.4283,-1.4525,-1.4663,-1.4422,-1.4097,-1.3732,-1.3505,-1.2609,-1.1814,-1.1814,-1.1266,-1.0813,-1.0813,-1.1407,-1.2061,-1.2575,-1.3278,-1.3906,-1.4451,-1.4085,-1.3545,-1.307,-1.2266,-1.2096,-1.2869,-1.3006,-1.3171,-1.3446,-1.4183,-1.4665,-1.4665,-1.4665,-1.4879,-1.5508,-1.5305,-1.5021,-1.4665,-1.4027,-1.3528,-1.3164,-1.2211,-1.1391,-1.0783,-1.0034,-0.8983,-0.7783,-0.7403,-0.6872,0.0,-0.6338,-0.6338,-0.6338,-0.6338,-0.6264,-0.6271,-0.6281,-0.5805,-0.5087,-0.5096,-0.5655,-0.6054,-0.4771,-0.5237,-0.6264,-0.6271,-0.6268,-0.6338,-0.6338,-0.6338,-0.6338,-0.6338,-0.6338,-0.6338,-0.6338,-0.6338,-0.6338,-0.6338,-0.6338,-0.6338,-0.6338,-0.6338,-0.6338,-0.6338,-0.7099,-0.7783,-0.7783,-0.8694,-0.9296,-0.9296,-0.8993,-0.8466,-0.7859,-0.748,-0.6945,-0.6338,-0.6338,-0.6338,-0.6338,-0.6338,-0.6264,-0.6268,-0.6268,-0.6274,-0.6285,-0.5485,-0.509,-0.5096,-0.5902,-0.3997,0.039,-0.0939,-0.1958,0.0,-1.4154,-1.4422,-1.3873,-1.3732,-1.36,-1.3017,-1.2295,0.0,-1.1715,-1.1166,-1.0669,-1.0702,-1.1263,-1.1791,-1.1816,-1.248,-1.2948,-1.3009,-1.2948,-1.2887,-1.2826,-1.2143,-1.171,-1.171,-1.1532,-1.1423,-1.1423,-1.2742,-1.36,-1.36,-1.36,-1.36,-1.36,-1.4522,-1.4522,-1.36,-1.36,-1.3164,-1.2298,-1.1316,-1.0783,-1.064,-0.8685,-0.7783,-0.7629,-0.6718,-0.6338,-0.6338,-0.6338,-0.6338,-0.6338,-0.6338,-0.6268,-0.6278,-0.6132,-0.494,-0.3359,-0.3361,-0.4633,-0.6322,-0.6278,-0.6264,-0.6264,-0.6338,-0.6338,-0.6338,-0.6338,-0.6338,-0.6338,-0.6338,-0.6338,-0.6338,-0.6338,-0.6338,-0.6338,-0.6338,-0.6338,-0.6338,-0.6338,-0.6338,-0.6338,-0.6412,-0.7173,-0.7859,-0.7936,-0.8694,-0.9296,-0.9226,-0.8389,-0.7783,-0.7706,-0.6872,-0.6338,-0.6338,-0.6338,-0.6338,-0.6264,-0.6264,-0.6268,-0.6278,-0.6119,-0.5964,-0.5892,-0.3752,-0.2575,-0.2419,-0.4557,-0.1567,0.6087,0.6247,0.5193,-1.3065,0.0,-1.3296,-1.3152,-1.3104,-1.3055,0.0,-1.194,-1.1065,-1.1065,-1.0115,-0.9334,-0.9512,-0.9925,-1.048,-1.129,-1.1797,-1.2328,-1.2887,-1.2451,-1.1841,-1.1233,-1.0989,-1.0863,-1.0863,-1.1215,-1.1423,-1.1423,-1.2179,-1.2666,-1.2666,-1.2666,-1.2666,-1.2666,-1.2879,-1.2879,-1.2666,-1.2666,-1.2519,-1.2298,-1.1316,-1.0415,-0.9593,-0.8385,-0.7403,-0.6644,-0.6412,-0.6338,-0.6338,-0.6338,-0.6338,-0.6338,-0.6338,-0.6268,-0.6119,-0.446,-0.455,-0.552,-0.5526,-0.5852,-0.6322,-0.6288,-0.6281,-0.6285,-0.6268,-0.6338,-0.6338,-0.6338,-0.6338,-0.6338,-0.6338,-0.6338,-0.6338,-0.6338,-0.6338,-0.6338,-0.6338,-0.6338,-0.6338,-0.6338,-0.6338,-0.6567,-0.7326,-0.7629,-0.8084,-0.8841,-0.9145,-0.8993,-0.8237,-0.7936,-0.748,-0.6718,-0.6412,-0.6338,-0.6338,-0.6338,-0.6264,-0.6274,-0.6274,-0.6281,-0.6291,-0.4698,-0.3122,-0.148,0.0545,0.2422,0.4084,0.1954,0.1874,0.3915,0.5503,0.6058,-1.195,-1.2147,-1.2393,-1.2393,-1.2147,-1.195,-1.195,-1.1124,-1.0364,-1.0364,-0.951,-0.8898,-0.913,-0.9124,-0.946,-1.058,-1.0376,-1.0375,-1.1205,-1.1281,-1.1108,-1.0618,-1.0624,-1.0624,-1.0624,-1.1089,-1.1423,-1.1423,-1.1971,-1.2305,-1.2305,-1.2305,-1.2305,-1.2305,-1.2305,-1.2305,-1.2305,-1.1842,-1.162,-1.162,-1.011,-0.914,-0.8618,-0.7553,-0.6795,-0.6338,-0.6338,-0.6338,-0.6338,-0.6338,-0.6338,-0.6338,-0.6268,-0.6278,-0.6129,-0.5026,-0.4086,-0.3383,-0.3383,-0.401,-0.487,-0.4854,-0.5491,-0.6291,-0.6268,-0.6264,-0.6268,-0.6264,-0.6338,-0.6338,-0.6338,-0.6338,-0.6338,-0.6338,-0.6338,-0.6338,-0.6338,-0.6338,-0.6338,-0.6338,-0.6338,-0.649,-0.7022,-0.748,-0.7859,-0.7936,-0.8313,-0.8237,-0.7249,-0.7099,-0.6872,-0.6338,-0.6338,-0.6264,-0.6268,-0.6271,-0.6271,-0.6278,-0.5404,-0.5254,-0.623,-0.3361,-0.0234,0.281,0.3044,0.4151,0.6315,0.5104,0.454,0.4613,0.5727,0.6285,-1.0813,-1.1166,-1.1516,-1.1616,-1.1216,-1.0813,-1.0813,-1.0261,-0.9814,-0.9814,-0.9299,-0.8904,-0.9023,-0.8716,-0.8801,-0.9823,-0.8989,-0.842,-0.9011,-0.9716,-1.0238,-1.0364,-1.0428,-1.0428,-1.0561,-1.1089,-1.1354,-1.1211,-1.1749,-1.1996,-1.1848,-1.1848,-1.1848,-1.1848,-1.1848,-1.1848,-1.1848,-1.1162,-1.0714,-1.0559,-0.8685,-0.7783,-0.7783,-0.6795,-0.6338,-0.6338,-0.6338,-0.6338,-0.6338,-0.6338,-0.6264,-0.6264,-0.6274,-0.6288,-0.6302,-0.6322,-0.3618,-0.0079,-0.0705,-0.1721,-0.2734,-0.3361,-0.4779,-0.6291,-0.6028,-0.6109,-0.6274,-0.6264,-0.6338,-0.6338,-0.6338,-0.6338,-0.6338,-0.6338,-0.6338,-0.6338,-0.6338,-0.6338,-0.6338,-0.6338,-0.6338,-0.6338,-0.649,-0.7099,-0.7326,-0.6644,-0.7099,-0.7249,-0.6412,-0.6338,-0.6338,-0.6338,-0.6264,-0.6268,-0.6278,-0.6285,-0.6045,-0.5401,-0.3671,-0.3285,-0.48,-0.1092,0.2652,0.6213,0.4538,0.446,0.6291,0.6291,0.6285,0.6274,0.6274,0.6271,-1.0813,-1.0466,-1.0269,-1.0813,-1.0864,-1.0813,-1.0813,-1.0261,-0.9814,-0.9814,-0.9468,-0.903,-0.8607,-0.8628,-0.8886,-0.9358,-0.9244,-0.8877,-0.8285,-0.8285,-0.8678,-0.9402,-0.953,-0.9786,-1.0561,-1.1089,-1.1073,-1.0158,-1.0713,-1.064,-0.9825,-0.975,-0.975,-0.975,-0.975,-0.975,-0.975,-1.0415,-1.034,-0.9523,-0.8389,-0.7783,-0.7783,-0.6795,-0.6338,-0.6338,-0.6338,-0.6338,-0.6338,-0.6338,-0.6268,-0.6278,-0.6278,-0.6298,-0.6325,-0.6329,-0.3618,-0.055,-0.4093,-0.3221,-0.1097,-0.4628,-0.6054,-0.6054,-0.4846,-0.5392,-0.6264,-0.6338,-0.6338,-0.6338,-0.6338,-0.6338,-0.6338,-0.6338,-0.6338,-0.6338,-0.6338,-0.6338,-0.6338,-0.6338,-0.6338,-0.6567,-0.7403,-0.7022,-0.6795,-0.748,-0.6945,-0.649,-0.6338,-0.6338,-0.6338,-0.6338,-0.6271,-0.6278,-0.6278,-0.6305,-0.4794,-0.1168,-0.0623,0.0156,0.156,0.4062,0.5643,0.6295,0.5957,0.5951,0.6281,0.6271,0.6268,0.6264,0.6264,0.6264,-0.971,-0.951,-0.9256,-0.9124,-0.9117,-0.9047,-0.8764,-0.8431,-0.8379,-0.8922,-0.8902,-0.8734,-0.8634,-0.8348,-0.7887,-0.7284,-0.7967,-0.8285,-0.7437,-0.7697,-0.8156,-0.8549,-0.8613,-0.8742,-0.9128,-1.0,-1.0362,-1.0014,-1.0372,-1.0421,-1.011,-0.9593,-0.9296,-0.9296,-0.9296,-0.9069,-0.8466,-0.8912,-0.8912,-0.8466,-0.748,-0.7022,-0.6945,-0.649,-0.6338,-0.6338,-0.6338,-0.6338,-0.6338,-0.6268,-0.6274,-0.6281,-0.6298,-0.6315,-0.6009,-0.3698,-0.1649,-0.0314,-0.22,-0.3147,-0.3385,-0.2979,-0.2898,-0.3214,-0.4859,-0.5802,-0.6281,-0.6281,-0.6271,-0.6338,-0.6338,-0.6338,-0.6338,-0.6338,-0.6338,-0.6338,-0.6338,-0.6338,-0.6338,-0.6338,-0.6338,-0.6412,-0.6949,-0.6644,-0.649,-0.6945,-0.6567,-0.6338,-0.6338,-0.6268,-0.6271,-0.6271,-0.6281,-0.5407,-0.3119,-0.2891,-0.1094,0.3132,0.3441,0.3828,0.4774,0.5802,0.6278,0.6278,0.6268,0.6264,0.6271,0.6264,0.6338,0.6338,0.6872,0.7099,-0.8804,-0.8699,-0.8387,-0.7686,-0.7603,-0.7566,-0.7028,-0.6904,-0.7141,-0.7955,-0.8238,-0.834,-0.8204,-0.7736,-0.6949,-0.5606,-0.6736,-0.7451,-0.6527,-0.6985,-0.7442,-0.7702,-0.7697,-0.7762,-0.7962,-0.8832,-0.9412,-0.9383,-0.9614,-0.9704,-0.9723,-0.8988,-0.8618,-0.8618,-0.8618,-0.8237,-0.748,-0.748,-0.748,-0.7403,-0.6641,-0.6338,-0.6338,-0.6338,-0.6338,-0.6338,-0.6338,-0.6338,-0.6264,-0.6274,-0.6038,-0.5565,-0.6077,-0.5689,-0.4413,-0.1178,0.0,0.0,0.0,-0.2123,-0.442,-0.2198,-0.0784,-0.0628,-0.3841,-0.5179,-0.5655,-0.6136,-0.6038,-0.5864,-0.6183,-0.6264,-0.6338,-0.6338,-0.6338,-0.6338,-0.6338,-0.6338,-0.6338,-0.6338,-0.6338,-0.6338,-0.6338,-0.6338,-0.6338,-0.6338,-0.6338,-0.6264,-0.6264,-0.6274,-0.6119,-0.564,-0.5973,-0.4153,0.1014,0.148,0.289,0.6074,0.6302,0.6288,0.6274,0.6274,0.6271,0.6338,0.6338,0.6416,0.6644,0.6644,0.6795,0.7022,0.7783,0.8161,-0.8804,-0.8321,-0.7668,-0.7114,-0.734,-0.7566,-0.7028,-0.6904,-0.6969,-0.7136,-0.774,-0.7845,-0.663,-0.6806,-0.6753,-0.5561,-0.6366,-0.6766,-0.5627,-0.5557,-0.5881,-0.6719,-0.6785,-0.7111,-0.7897,-0.8292,-0.8176,-0.7345,-0.7535,-0.7356,-0.6633,-0.6567,-0.649,-0.649,-0.649,-0.649,-0.6412,-0.6412,-0.6412,-0.6412,-0.6338,-0.6338,-0.6338,-0.6338,-0.6338,-0.6338,-0.6338,-0.6338,-0.6264,-0.6274,-0.509,-0.3517,-0.5517,-0.3936,-0.0393,-0.0079,0.0,0.0,0.0,-0.0235,-0.1021,-0.4651,-0.3219,-0.0078,-0.0392,-0.1798,-0.3752,-0.5733,-0.5329,-0.4686,-0.5957,-0.6271,-0.6338,-0.6338,-0.6338,-0.6338,-0.6338,-0.6338,-0.6338,-0.6338,-0.6338,-0.6338,-0.6338,-0.6338,-0.6338,-0.6338,-0.6338,-0.6264,-0.6274,-0.6278,-0.5562,-0.3515,-0.5112,-0.2982,0.5123,0.5817,0.596,0.6281,0.6281,0.6274,0.6264,0.6264,0.6338,0.6338,0.6338,0.6795,0.7706,0.7706,0.8161,0.9074,0.9145,0.9221,-0.7576,-0.7395,-0.7063,-0.6478,-0.6473,0.0,-0.5888,-0.5807,-0.5977,-0.6719,-0.7172,-0.738,-0.685,-0.6396,-0.5918,-0.5439,-0.5782,-0.5922,-0.5449,-0.5376,-0.5502,-0.5826,-0.5885,-0.6013,-0.6338,-0.6986,-0.7288,-0.7261,-0.7212,-0.7241,-0.7234,-0.6644,-0.6338,-0.6338,-0.6338,-0.6338,-0.6338,-0.6338,-0.6338,-0.6338,-0.6338,-0.6338,-0.6338,-0.6338,-0.6338,-0.6338,-0.6338,-0.6264,-0.6274,-0.6285,-0.5821,-0.4878,-0.3064,-0.1414,0.0,0.0,0.0,0.0,0.0,0.0,-0.0236,-0.1885,-0.1334,0.0,0.0,-0.0548,-0.1878,-0.5361,-0.4948,-0.3984,-0.5808,-0.6281,-0.6271,-0.6271,-0.6271,-0.6271,-0.6264,-0.6338,-0.6338,-0.6338,-0.6338,-0.6338,-0.6338,-0.6338,-0.6264,-0.6271,-0.6271,-0.6278,-0.6288,-0.6302,-0.5989,-0.5193,-0.2347,0.1405,0.5899,0.6281,0.6268,0.6268,0.6268,0.6268,0.6338,0.6338,0.6338,0.6338,0.6949,0.7403,0.7783,0.8466,0.8917,0.9296,0.997,1.0265,-0.6997,-0.685,-0.655,-0.6419,0.0,0.0,-0.5243,-0.5172,-0.5304,-0.6113,-0.6152,-0.5756,-0.5011,-0.5169,-0.5186,-0.4634,-0.4095,-0.3894,-0.4436,-0.4567,-0.4767,-0.5309,-0.5372,-0.5432,-0.5428,-0.5943,-0.6392,-0.6756,-0.6695,-0.6856,-0.7227,-0.6615,-0.6338,-0.6338,-0.6338,-0.6338,-0.6338,-0.6338,-0.6338,-0.6338,-0.6338,-0.6338,-0.6338,-0.6338,-0.6338,-0.6338,-0.6338,-0.6268,-0.6278,-0.5569,-0.4873,-0.4016,-0.1099,0.0,0.0,0.0,0.0,0.0,0.0,0.0,0.0,0.0,0.0,0.0,0.0,0.0,-0.0627,-0.3465,-0.3692,-0.3602,-0.5749,-0.5814,-0.5326,-0.5559,-0.5957,-0.6274,-0.6264,-0.6338,-0.6338,-0.6338,-0.6338,-0.6338,-0.6338,-0.6264,-0.6271,-0.6278,-0.5721,-0.5569,-0.6224,-0.5112,-0.4084,-0.3372,0.117,0.4693,0.6197,0.6268,0.6338,0.6338,0.6338,0.6338,0.6338,0.6644,0.6795,0.6795,0.7783,0.8461,0.8761,0.9442,0.997,1.0271,1.0944,1.1236,-0.7302,-0.6695,-0.6115,-0.6926,-0.6065,-0.5128,-0.5359,-0.5202,-0.5132,-0.5362,-0.4431,-0.2874,-0.0469,-0.2952,-0.4779,-0.3013,-0.1205,-0.0602,-0.2409,-0.2678,-0.3349,-0.5106,-0.5379,-0.5372,-0.5428,-0.5428,-0.5423,-0.5579,-0.5722,-0.5867,-0.602,-0.6176,-0.6338,-0.6338,-0.6338,-0.6338,-0.6338,-0.6338,-0.6338,-0.6338,-0.6338,-0.6338,-0.6338,-0.6338,-0.6338,-0.6338,-0.6338,-0.6268,-0.6119,-0.3986,-0.1877,0.0,0.0,0.0,0.0,0.0,0.0,0.0,0.0,0.0,0.0,0.0,0.0,0.0,0.0,0.0,0.0,0.0,-0.1491,-0.3538,-0.5698,-0.4719,-0.3279,-0.4057,-0.5243,-0.6274,-0.6264,-0.6338,-0.6338,-0.6338,-0.6338,-0.6338,-0.6338,-0.6271,-0.6278,-0.6278,-0.4457,-0.3837,-0.5924,-0.2501,0.0857,0.2888,0.501,0.6278,0.6278,0.6268,0.6338,0.6338,0.6338,0.6338,0.6338,0.7249,0.7783,0.7783,0.8765,0.982,1.0783,1.0783,1.1316,1.2305,1.2305,1.2305,-0.572,-0.4587,-0.3763,-0.548,-0.4644,-0.3784,-0.5119,-0.4342,-0.3784,-0.5122,-0.5129,-0.4648,-0.3904,-0.2624,-0.2287,-0.4244,-0.2017,-0.0202,-0.074,-0.0805,-0.1004,-0.1539,-0.3825,-0.5386,-0.5376,-0.5372,-0.5433,-0.5579,-0.5722,-0.5867,-0.602,-0.6176,-0.6338,-0.6338,-0.6338,-0.6338,-0.6338,-0.6338,-0.6338,-0.6338,-0.6338,-0.6338,-0.6338,-0.6338,-0.6338,-0.6338,-0.6271,-0.6281,-0.6051,-0.2427,-0.0549,0.0,0.0,0.0,0.0,0.0,0.0,0.0,0.0,0.0,0.0,0.0,0.0,0.0,0.0,0.0,0.0,0.0,-0.0471,-0.1099,-0.1729,-0.362,-0.504,-0.3752,-0.4927,-0.6274,-0.6264,-0.6338,-0.6338,-0.6338,-0.6268,-0.6274,-0.6274,-0.6285,-0.6295,-0.6312,-0.5755,-0.3452,0.1881,0.368,0.4696,0.5246,0.5957,0.6274,0.6268,0.6264,0.6338,0.6338,0.6945,0.7326,0.7326,0.7629,0.8161,0.8841,0.9814,1.049,1.0783,1.1539,1.1996,1.2305,1.2305,1.2305,-0.488,-0.3635,-0.289,-0.4913,-0.4584,-0.4036,-0.5148,-0.3435,-0.1946,-0.303,-0.3232,-0.323,-0.3234,-0.2627,-0.2357,-0.3167,-0.1414,0.0,0.0,0.0,0.0,0.0,-0.1942,-0.3556,-0.4225,-0.4973,-0.5443,-0.5655,-0.5728,-0.5798,-0.602,-0.6176,-0.6338,-0.6338,-0.6338,-0.6338,-0.6338,-0.6338,-0.6338,-0.6338,-0.6338,-0.6264,-0.6268,-0.6268,-0.6268,-0.6271,-0.6291,-0.6302,-0.5989,-0.1726,0.0,0.0,0.0,0.0,0.0,0.0,0.0,0.0,0.0,0.0,0.0,0.0,0.0,0.0,0.0,0.0,0.0,0.0,0.0,-0.0393,-0.2043,-0.3775,-0.488,-0.4467,-0.5332,-0.6281,-0.6264,-0.6338,-0.6264,-0.6268,-0.6274,-0.6038,-0.5168,-0.5736,-0.6315,-0.6329,-0.3458,0.0548,0.5668,0.6298,0.6285,0.6274,0.6271,0.6268,0.6338,0.6641,0.6872,0.6872,0.7859,0.8537,0.8988,0.8983,0.9291,0.989,1.087,1.1391,1.1391,1.1996,1.2305,1.2305,1.2305,1.2305,-0.4681,-0.3563,-0.2818,-0.4473,-0.4879,-0.4937,-0.4889,-0.2364,0.0,0.0,0.0,0.0,0.0,-0.2695,-0.3845,-0.0539,0.0,0.0,0.0,0.0,0.0,0.0,0.0,-0.067,-0.2275,-0.3961,-0.5039,-0.5385,-0.5596,-0.5808,-0.5952,-0.6179,-0.6264,-0.6264,-0.6264,-0.6264,-0.6264,-0.6264,-0.6264,-0.6264,-0.6264,-0.6271,-0.6281,-0.6278,-0.6281,-0.6285,-0.6315,-0.6087,-0.5445,-0.157,0.0,0.0,0.0,0.0,0.0,0.0,0.0,0.0,0.0,0.0,0.0,0.0,0.0,0.0,0.0,0.0,0.0,0.0,0.0,-0.0942,-0.5207,-0.4875,-0.3912,-0.5817,-0.6295,-0.6288,-0.6268,-0.6264,-0.6268,-0.6278,-0.6281,-0.5565,-0.3202,-0.4081,-0.5204,-0.5442,0.1253,0.6315,0.6281,0.6278,0.6274,0.6264,0.6338,0.6338,0.6416,0.7249,0.7859,0.7936,0.8841,0.982,1.0783,1.0783,1.0858,1.0932,1.1842,1.2305,1.2305,1.2305,1.2372,1.2445,1.2445,1.2445,-0.5229,-0.2948,-0.0673,-0.1079,-0.1146,-0.1145,-0.1146,-0.0539,0.0,0.0,0.0,0.0,0.0,-0.0606,-0.0876,-0.0135,0.0,0.0,0.0,0.0,0.0,0.0,0.0,-0.0134,-0.0536,-0.0938,-0.1761,-0.3205,-0.4882,-0.5762,-0.5832,-0.613,-0.6285,-0.6274,-0.6285,-0.6285,-0.6274,-0.6285,-0.6288,-0.6288,-0.6288,-0.6288,-0.6291,-0.6281,-0.6295,-0.6318,-0.6325,-0.4411,-0.1256,-0.0393,0.0,0.0,0.0,0.0,0.0,0.0,0.0,0.0,0.0,0.0,0.0,0.0,0.0,0.0,0.0,0.0,0.0,0.0,0.0,-0.0943,-0.5216,-0.5937,-0.5689,-0.6165,-0.6302,-0.6281,-0.6274,-0.6281,-0.6288,-0.6291,-0.6305,-0.5112,-0.1325,0.172,0.2981,0.1327,0.4068,0.6288,0.6281,0.6271,0.6264,0.6338,0.6338,0.6641,0.7403,0.7706,0.8161,0.8917,0.989,1.0565,1.0783,1.0783,1.1162,1.1996,1.2224,1.2305,1.2305,1.2305,1.2666,1.3382,1.3382,1.381,-0.3295,-0.1412,0.0,0.0,0.0,0.0,0.0,0.0,0.0472,0.2223,0.1212,0.0,0.0,0.0,0.0,0.0,0.0,0.0,0.0,0.0,0.0,0.0,0.0,0.0,0.0,0.0,-0.0415,-0.1348,-0.2408,-0.3446,-0.4456,-0.467,-0.4776,-0.4774,-0.5733,-0.5811,-0.4774,-0.4776,-0.4779,-0.4779,-0.4779,-0.5338,-0.6312,-0.6305,-0.5193,-0.3303,-0.3303,-0.2043,0.0,0.0,0.0,0.0,0.0,0.0,0.0,0.0,0.0,0.0,0.0,0.0,0.0,0.0,0.0,0.0,0.0,0.0,0.0,0.0,0.0,-0.0471,-0.275,-0.4813,-0.6012,-0.5034,-0.5584,-0.598,-0.5012,-0.4776,-0.5098,-0.6067,-0.4633,-0.1955,0.2268,0.4873,0.5905,0.4776,0.5562,0.6278,0.6271,0.6264,0.6338,0.6338,0.6718,0.7249,0.7783,0.8685,0.9437,0.9965,1.0944,1.1539,1.1539,1.1539,1.1768,1.2298,1.2305,1.2519,1.2952,1.2952,1.3455,1.445,1.445,1.4665,-0.0671,0.047,0.0943,0.0943,0.0673,0.0471,0.0471,0.0471,0.1345,0.4317,0.2827,0.0741,0.0135,0.0269,0.0539,0.0876,0.0404,0.0,0.0,0.0,0.0,0.0,0.0,0.0,0.0,0.0,0.0,0.0,0.0,-0.0763,-0.2497,-0.2578,-0.2578,-0.2577,-0.5023,-0.5425,-0.3677,-0.2893,-0.2578,-0.2578,-0.3285,-0.4555,-0.6254,-0.5529,-0.3303,0.0,0.0,0.0,0.0,0.0,0.0,0.0,0.0,0.0,0.0,0.0,0.0,0.0,0.0,0.0,0.0,0.0,0.0,0.0,0.0,0.0,0.0,0.0,0.0,0.0,0.0,-0.2591,-0.4883,-0.3444,-0.4719,-0.5843,-0.4075,-0.2499,-0.2031,-0.3771,-0.1327,0.2184,0.5677,0.6305,0.6288,0.6278,0.6274,0.6271,0.6264,0.6412,0.6567,0.6567,0.748,0.8161,0.8309,0.9809,1.0858,1.1087,1.1842,1.2305,1.2305,1.2445,1.2519,1.2519,1.2519,1.2952,1.3673,1.3882,1.445,1.5446,1.5446,1.5517,0.074,0.2288,0.4663,0.4663,0.3496,0.2344,0.2344,0.2344,0.2477,0.2948,0.3902,0.3706,0.0604,0.1272,0.2885,0.4453,0.2014,0.0,0.0,0.0,0.0,0.0,0.0,0.0,0.0,0.0,0.0,0.0,0.0,-0.0153,-0.0392,-0.0392,-0.0392,-0.0391,-0.4252,-0.6172,-0.5843,-0.2276,-0.0392,-0.0471,-0.4097,-0.6018,-0.6185,-0.2516,-0.055,0.0,0.0,0.0,0.0,0.0,0.0,0.0,0.0,0.0,0.0,0.0,0.0,0.0,0.0,0.0,0.0,0.0,0.0,0.0,0.0,0.0,0.0,0.0,0.0,0.0,0.0,-0.0393,-0.1256,-0.275,-0.4737,-0.626,-0.5927,-0.0157,0.4964,0.4648,0.5101,0.564,0.6203,0.6274,0.6264,0.6264,0.6264,0.6264,0.6338,0.7022,0.7629,0.7629,0.8466,0.9442,1.0335,1.0634,1.1162,1.207,1.2224,1.2305,1.2305,1.3098,1.3528,1.3528,1.3528,1.36,1.3673,1.4593,1.5508,1.6419,1.6419,1.6862,0.1946,0.2684,0.4102,0.5129,0.4782,0.4231,0.4231,0.4231,0.4231,0.4225,0.4843,0.4916,0.3288,0.2815,0.3284,0.5125,0.4036,0.2681,0.1673,0.0671,0.0,0.0,0.0,0.0,0.0,0.0,0.0,0.0,0.0,0.0,0.0,0.0,0.0,0.0,-0.1806,-0.2753,-0.2752,-0.0942,0.0,-0.0,-0.1887,-0.2755,-0.2675,-0.0864,0.0,0.0,0.0,0.0,0.0,0.0,0.0,0.0,0.0,0.0,0.0,0.0,0.0,0.0,0.0,0.0,0.0,0.0,0.0,0.0,0.0,0.0,0.0,0.0,0.0,0.0,0.0,0.1728,0.3303,0.2356,0.0548,-0.1016,-0.1015,0.2821,0.6325,0.6305,0.6288,0.6278,0.6271,0.6264,0.6338,0.6338,0.6338,0.649,0.7099,0.7553,0.8008,0.8618,0.9518,1.034,1.0783,1.1316,1.1848,1.2305,1.2806,1.3091,1.3091,1.4027,1.4522,1.4522,1.4522,1.4807,1.5296,1.579,1.6507,1.7354,1.7354,1.7579,0.3418,0.3418,0.3687,0.5049,0.5389,0.5386,0.5386,0.5386,0.5382,0.5376,0.5372,0.5376,0.5386,0.4295,0.3818,0.5186,0.5389,0.4909,0.3551,0.2209,0.1005,0.0134,0.0,0.0,0.0,0.0,0.0,0.0,0.0,0.0,0.0,0.0,0.0,0.0,0.0,0.0,0.0,0.0,0.0,0.0,0.0,0.0,0.0,0.0,0.0,0.0,0.0,0.0,0.0,0.0,0.0,0.0,0.0,0.0,0.0,0.0,0.0,0.0,0.0,0.0,0.0,0.0,0.0,0.0,0.0,0.0,0.0,0.0,0.0,0.0,0.0,0.3146,0.6332,0.6329,0.5112,0.3915,0.3908,0.5182,0.6308,0.6281,0.6274,0.6271,0.6264,0.649,0.6567,0.6338,0.6718,0.7249,0.7706,0.8237,0.8836,0.9593,1.0565,1.1162,1.1162,1.1848,1.2372,1.2659,1.331,1.3818,1.4099,1.5021,1.5587,1.5587,1.5799,1.6149,1.6636,1.6853,1.7285,1.8008,1.8008,1.8008,0.5259,0.5249,0.5309,0.5379,0.5372,0.5428,0.5428,0.5428,0.5428,0.5428,0.5428,0.5428,0.5428,0.5296,0.5296,0.5376,0.5379,0.5379,0.5243,0.5183,0.383,0.0402,0.0,0.0,0.0,0.0,0.0,0.0,0.0,0.0,0.0,0.0,0.0,0.0,0.0,0.0,0.0,0.0,0.0,0.0,0.0,0.0,0.0,0.0,0.0,0.0,0.0,0.0,0.0,0.0,0.0,0.0,0.0,0.0,0.0,0.0,0.0,0.0,0.0,0.0,0.0,0.0,0.0,0.0,0.0,0.0,0.0,0.0,0.0,0.0,0.0,0.3149,0.6264,0.6332,0.6247,0.6159,0.6126,0.62,0.6278,0.6264,0.6264,0.6338,0.6338,0.7099,0.7403,0.6412,0.7936,0.8846,0.7936,0.9437,1.0634,1.0714,1.162,1.2224,1.2224,1.2305,1.2666,1.36,1.3673,1.4099,1.5092,1.6009,1.6498,1.6498,1.7432,1.7432,1.6636,1.7501,1.794,1.8008,1.8008,1.8008,0.6214,0.6671,0.7064,0.7064,0.6666,0.6203,0.6203,0.6203,0.6075,0.5491,0.5815,0.6203,0.6203,0.5749,0.5428,0.5432,0.5369,0.5369,0.5369,0.5376,0.494,0.3778,0.1526,0.0,0.0,0.0,0.0,0.0,0.0,0.0,0.0,0.0,0.0,0.0,0.0,0.0,0.0,0.0,0.0,0.0,0.0,0.0,0.0,0.0,0.0,0.0,0.0,0.0,0.0,0.0,0.0,0.0,0.0,0.0,0.0,0.0,0.0,0.0,0.0,0.0,0.0,0.0,0.0,0.0,0.0,0.0,0.0,0.0,0.0,0.0,0.0,0.2121,0.4567,0.598,0.6291,0.6281,0.6271,0.6274,0.6274,0.6264,0.6338,0.6338,0.6338,0.7099,0.7706,0.7326,0.8389,0.9372,0.9664,1.0335,1.1087,1.1694,1.2077,1.2519,1.3171,1.3164,1.3593,1.4593,1.5226,1.572,1.607,1.7001,1.7501,1.7501,1.7862,1.7862,1.7501,1.7862,1.8008,1.8008,1.8008,1.8008,0.7046,0.7567,0.8027,0.8027,0.7567,0.7111,0.7111,0.7111,0.6981,0.6404,0.6724,0.7111,0.7111,0.6658,0.621,0.5881,0.5624,0.5428,0.5428,0.5369,0.55,0.5658,0.3519,0.1511,0.015,0.0,0.0,0.0,0.0,0.0,0.0,0.0,0.0,0.0,0.0,0.0,0.0,0.0,0.0,0.0,0.0,0.0,0.0,0.0,0.0,0.0079,0.1492,0.1335,0.0079,0.1492,0.1256,0.0079,0.0784,0.0627,0.0079,0.0784,0.0627,0.0,0.0,0.0,0.0,0.0,0.0,0.0,0.0,0.0,0.0,0.0,0.0,0.0314,0.1729,0.2591,0.3604,0.5805,0.6271,0.6338,0.6338,0.6268,0.6271,0.6264,0.6567,0.6795,0.6795,0.7931,0.8685,0.8389,0.9442,1.0421,1.0789,1.1087,1.1687,1.2659,1.2732,1.3164,1.4099,1.4171,1.4593,1.5579,1.628,1.6706,1.707,1.7647,1.8008,1.8008,1.8008,1.8008,1.8008,1.8008,1.8008,1.8008,1.8008,1.8008,0.0,0.0,0.0,0.8091,0.8027,0.8027,0.8027,0.8027,0.8027,0.8027,0.8027,0.8027,0.8027,0.8027,0.7762,0.6915,0.6009,0.5428,0.5432,0.5435,0.5497,0.5672,0.5898,0.4489,0.0527,0.0154,0.0078,0.0079,0.0079,0.0079,0.0079,0.0,0.0,0.0,0.0,0.0079,0.0157,0.0157,0.0157,0.0079,0.0079,0.0079,0.0079,0.0079,0.0079,0.0314,0.4411,0.3936,0.0471,0.457,0.3855,0.0392,0.2345,0.1878,0.0392,0.2344,0.1877,0.0157,0.0078,0.0078,0.0,0.0079,0.0079,0.0,0.0079,0.0157,0.0157,0.0079,0.0079,0.1021,0.5137,0.4719,0.375,0.5802,0.6271,0.6338,0.6338,0.6338,0.6338,0.6338,0.7099,0.7783,0.7859,0.9508,1.049,0.9523,1.1025,1.1996,1.1013,1.1768,1.2739,1.3673,1.3745,1.4171,1.5163,1.5234,1.5658,1.6567,1.6636,1.707,1.794,1.8008,1.8008,1.8008,1.8008,1.8008,1.8008,1.8008,1.8008,1.8008,1.8008,1.8008,0.811,0.0,0.0,0.0,0.0,0.0,0.8941,0.8941,0.8748,0.8156,0.8484,0.8941,0.8941,0.842,0.8156,0.8549,0.7312,0.6184,0.5644,0.5528,0.5623,0.5881,0.5959,0.5591,0.464,0.3191,0.2266,0.2267,0.2272,0.2273,0.2267,0.0783,0.0,0.0,0.0,0.1492,0.4491,0.457,0.3771,0.2267,0.2267,0.2267,0.2267,0.2267,0.2267,0.2345,0.3444,0.4233,0.4553,0.4153,0.4233,0.4472,0.3519,0.3677,0.4472,0.3439,0.3756,0.4314,0.2813,0.1251,0.0235,0.172,0.1253,0.0314,0.18,0.3294,0.4249,0.2662,0.2267,0.2501,0.3682,0.4701,0.5562,0.6197,0.6271,0.649,0.7249,0.7403,0.7403,0.7403,0.7629,0.8012,0.8765,0.9965,1.0708,1.0415,1.1471,1.2439,1.2858,1.3157,1.3665,1.4665,1.4807,1.5155,1.614,1.621,1.6636,1.7569,1.7579,1.7725,1.8008,1.8008,1.8008,1.8008,1.8008,1.8008,1.8008,1.8008,1.8008,1.8008,1.8008,1.8337,0.888,1.0006,1.1136,1.0962,0.0,0.0,1.0186,1.0186,1.0054,0.9513,0.985,1.0186,1.0186,0.9778,0.9446,0.9585,0.8775,0.7639,0.6329,0.6256,0.6257,0.6,0.6034,0.6101,0.6261,0.5168,0.4457,0.4462,0.447,0.4472,0.4462,0.2423,0.133,0.1331,0.1331,0.2507,0.4953,0.5833,0.5668,0.4462,0.4462,0.4462,0.4462,0.4462,0.4462,0.4462,0.4457,0.5171,0.6207,0.4929,0.5168,0.621,0.4929,0.5171,0.6132,0.4929,0.5249,0.6136,0.4854,0.3677,0.266,0.2969,0.2895,0.2665,0.2969,0.4626,0.6071,0.4781,0.4462,0.446,0.4457,0.5326,0.643,0.6806,0.6953,0.7176,0.8237,0.8389,0.8389,0.8389,0.8761,0.921,0.982,1.0795,1.1465,1.1465,1.2285,1.3091,1.36,1.4099,1.4665,1.5649,1.579,1.6149,1.707,1.7207,1.7432,1.794,1.8008,1.8008,1.8008,1.8008,1.8008,1.8008,1.8008,1.8212,1.8529,1.8212,1.8202,1.8519,1.8519,1.8977,0.9578,1.0622,1.147,1.143,1.1423,0.0,1.1423,1.1423,1.1423,1.1423,1.1423,1.1423,1.1423,1.1423,1.1149,1.0384,1.0269,0.9575,0.7436,0.7351,0.7241,0.6477,0.6275,0.6263,0.6412,0.6352,0.6281,0.6291,0.6291,0.6291,0.6295,0.4462,0.3437,0.3437,0.3437,0.3437,0.3437,0.5335,0.6295,0.6291,0.6291,0.6291,0.6291,0.6291,0.6291,0.6291,0.6281,0.6278,0.6274,0.6264,0.6274,0.6291,0.6271,0.6274,0.6288,0.6268,0.6274,0.6291,0.6281,0.6285,0.5973,0.4066,0.4776,0.5973,0.4064,0.4776,0.6295,0.6291,0.6291,0.6288,0.6278,0.6278,0.6581,0.7557,0.7783,0.8084,0.9221,0.9448,0.9523,0.9599,1.0265,1.0858,1.0938,1.1768,1.2445,1.2445,1.3237,1.3882,1.4027,1.4807,1.5728,1.6636,1.6775,1.707,1.794,1.8008,1.8008,1.8008,1.8008,1.8008,1.8008,1.8008,1.8008,1.8008,1.8076,1.8586,1.9431,1.8596,1.8596,1.9431,1.9431,1.9879,0.9073,1.0396,1.1724,1.1483,1.1423,0.0,1.1423,1.1423,1.1423,1.1423,1.1423,1.1423,1.1423,1.1423,1.1354,1.1149,1.1344,1.0895,0.898,0.8722,0.8758,0.868,0.7951,0.7439,0.748,0.6799,0.6264,0.6268,0.6268,0.6278,0.6295,0.5886,0.5646,0.5655,0.5655,0.5649,0.5643,0.6119,0.6278,0.6268,0.6268,0.6268,0.6268,0.6268,0.6268,0.6268,0.6268,0.6264,0.6264,0.6264,0.6264,0.6268,0.6264,0.6264,0.6268,0.6264,0.6264,0.6268,0.6264,0.6271,0.62,0.5792,0.596,0.621,0.5792,0.5954,0.6281,0.6271,0.6268,0.6268,0.6264,0.6264,0.657,0.7557,0.7783,0.8309,1.011,1.049,1.0714,1.1552,1.1242,1.1087,1.1848,1.2799,1.3455,1.3455,1.4243,1.5163,1.593,1.621,1.6715,1.7647,1.7725,1.7794,1.8008,1.8008,1.8008,1.8008,1.8008,1.8008,1.8008,1.8008,1.8008,1.8008,1.8721,1.9497,2.0333,1.9497,1.9497,2.0333,2.0333,2.0462,0.9733,1.0894,1.2051,1.1897,1.1864,0.0,0.0,1.1864,1.1999,1.2417,1.2558,1.2558,1.2558,1.2558,1.2417,1.1928,1.1991,1.1788,1.0827,1.0228,0.9755,0.9362,0.8846,0.8389,0.7859,0.7326,0.6872,0.6338,0.6338,0.6268,0.6278,0.6274,0.6274,0.6278,0.6278,0.6274,0.6271,0.6271,0.6268,0.6338,0.6338,0.6338,0.6338,0.6338,0.6338,0.6338,0.6338,0.6338,0.6338,0.6338,0.6338,0.6338,0.6338,0.6338,0.6338,0.6338,0.6338,0.6338,0.6338,0.6264,0.6268,0.6264,0.6271,0.6278,0.6264,0.6264,0.6268,0.6264,0.6338,0.6338,0.6338,0.6338,0.6641,0.8161,0.8542,0.9069,1.1093,1.1545,1.1694,1.2224,1.2285,1.2418,1.2945,1.3382,1.3882,1.4386,1.5313,1.6088,1.6567,1.6991,1.7501,1.794,1.8008,1.8008,1.8008,1.8008,1.8008,1.8008,1.8008,1.8008,1.8008,1.8395,1.8854,1.9299,1.9759,2.0398,2.1239,2.0782,2.0846,2.1239,2.1239,2.1479,1.0565,1.1539,1.2305,1.2305,1.2305,1.2305,0.0,0.0,0.0,1.3237,1.3455,1.3455,1.3455,1.3455,1.315,1.2371,1.2265,1.2285,1.2225,1.1588,1.0789,0.997,0.9669,0.9291,0.8461,0.8008,0.7557,0.6945,0.6718,0.6641,0.6872,0.6718,0.6567,0.6567,0.6412,0.6338,0.6338,0.6338,0.6338,0.6338,0.6338,0.6338,0.6338,0.6338,0.6338,0.6338,0.649,0.6567,0.6567,0.6795,0.6872,0.6872,0.6412,0.6416,0.6567,0.6567,0.6567,0.6567,0.6567,0.649,0.6338,0.6338,0.6338,0.6338,0.6338,0.6338,0.6338,0.6338,0.6338,0.6338,0.6567,0.6567,0.7099,0.914,0.9593,1.0121,1.1929,1.2305,1.2305,1.2305,1.2879,1.3455,1.3673,1.4027,1.4522,1.5376,1.6237,1.6881,1.6853,1.7501,1.8008,1.8008,1.8008,1.8008,1.8008,1.8008,1.8076,1.8269,1.8269,1.8337,1.8462,1.9177,1.9944,2.0846,2.0846,2.129,2.2137,2.2137,2.2137,2.2137,2.2137,2.2384,1.0565,1.1539,1.2305,1.2305,1.2305,1.2305,1.2305,0.0,1.2305,1.2445,0.0,1.2445,1.2445,0.0,0.0,1.2029,1.2131,1.2211,1.1957,1.2065,1.2077,1.2003,1.1168,1.0559,1.0484,0.8836,0.8084,0.8922,0.8161,0.8008,0.8917,0.8089,0.7633,0.7633,0.6795,0.6338,0.6338,0.6338,0.6338,0.6338,0.6338,0.6338,0.6338,0.6338,0.6338,0.6338,0.7253,0.7633,0.7706,0.8618,0.8993,0.877,0.7022,0.6872,0.7633,0.7633,0.7633,0.7633,0.7633,0.7022,0.6338,0.6338,0.6338,0.6338,0.6338,0.6338,0.6338,0.6338,0.6338,0.649,0.7403,0.7633,0.8161,1.0185,1.064,1.0938,1.2077,1.2305,1.2305,1.2305,1.2372,1.2732,1.3528,1.5155,1.628,1.6419,1.7217,1.7872,1.7862,1.794,1.8008,1.8008,1.8008,1.8008,1.8008,1.8008,1.8337,1.911,1.9177,1.9497,2.0268,2.0398,2.0846,2.1753,2.1753,2.2125,2.2944,2.2944,2.2944,2.2944,2.2944,2.2628,1.1242,1.1545,1.1539,1.215,1.1848,1.162,1.215,1.2305,1.2445,1.3025,0.0,0.0,0.0,0.0,0.0,0.0,1.2225,1.2258,1.2138,1.2225,1.2305,1.2305,1.1922,1.1465,1.0858,0.8988,0.8237,0.9221,0.8389,0.8237,0.9221,0.8922,0.8694,0.8694,0.8237,0.8012,0.8012,0.8012,0.8012,0.8012,0.8012,0.8012,0.8012,0.8012,0.8012,0.8084,0.8466,0.8694,0.8694,0.915,0.9296,0.9221,0.8389,0.8313,0.8694,0.8694,0.8694,0.8694,0.8694,0.8389,0.7936,0.7326,0.7553,0.7859,0.6644,0.7099,0.7936,0.7326,0.7557,0.8161,0.8542,0.8694,0.8993,1.0484,1.0783,1.1087,1.2077,1.2305,1.2445,1.3025,1.3593,1.4307,1.5226,1.5579,1.6149,1.7217,1.7725,1.8008,1.8008,1.8008,1.8008,1.8008,1.8008,1.8202,1.8721,1.8721,1.911,2.0009,2.0074,2.0462,2.1302,2.1365,2.1741,2.2567,2.258,2.2763,2.3078,2.3078,2.3078,2.3078,2.3078,2.2944,1.1774,1.1768,1.1391,1.215,1.1768,1.1391,1.215,1.2305,1.2519,1.3164,1.3528,0.0,0.0,0.0,1.3426,1.2701,0.0,1.2271,1.2191,1.2251,1.2305,1.2305,1.2305,1.1996,1.1316,0.9664,0.9064,1.0045,0.9216,0.9064,1.0051,0.9895,0.9744,0.9744,0.9448,0.9296,0.9296,0.9296,0.9296,0.9296,0.9296,0.9296,0.9296,0.9296,0.9296,0.9296,0.9593,0.9744,0.9744,1.0045,1.0121,1.0121,1.0121,1.0121,1.0121,0.982,0.9744,0.9744,0.9744,0.9518,0.9145,0.8466,0.8694,0.8993,0.7553,0.8161,0.9145,0.8389,0.877,0.9372,0.9669,0.9744,0.997,1.0938,1.1236,1.1465,1.2439,1.2666,1.2952,1.3954,1.4665,1.5517,1.6428,1.6219,1.6446,1.7794,1.8008,1.8008,1.8008,1.8008,1.8076,1.8337,1.8327,1.8721,1.9552,1.9694,2.0009,2.091,2.1164,2.1553,2.2187,2.2261,2.2506,2.3078,2.3078,2.3078,2.3078,2.3078,2.3078,2.3078,2.3078,2.3078,1.1774,1.2305,1.2224,1.2298,1.2305,1.2224,1.2298,1.2305,1.2305,1.2372,1.3098,1.3673,1.3673,1.3673,1.3641,1.3327,1.269,0.0,0.0,1.2124,1.2305,1.2305,1.2305,1.2298,1.2224,1.1316,1.1087,1.215,1.1242,1.1162,1.215,1.1316,1.0783,1.0783,0.982,0.9296,0.9296,0.9296,0.9296,0.9296,0.9296,0.9296,0.9296,0.9296,0.9296,0.9372,1.034,1.0783,1.0864,1.1774,1.2224,1.2224,1.2224,1.2224,1.2077,1.1087,1.0783,1.0783,1.0783,1.0115,0.9296,0.9296,0.9296,0.9296,0.9221,0.9221,0.9296,0.9296,0.9301,0.9523,1.049,1.0783,1.1013,1.1996,1.2224,1.2512,1.3455,1.3673,1.3954,1.495,1.5163,1.5517,1.6428,1.7354,1.794,1.8008,1.8008,1.8008,1.8008,1.8008,1.8337,1.9177,1.9243,1.9617,2.0462,2.059,2.091,2.1815,2.2567,2.3005,2.3078,2.3078,2.3078,2.3078,2.3078,2.3078,2.3078,2.3078,2.3078,2.3078,2.3078,2.3078,1.1922,1.1842,1.1465,1.215,1.1768,1.1465,1.215,1.2305,1.2445,1.3098,1.3455,1.389,1.4593,1.4665,1.4625,1.4584,1.4371,1.4196,0.0,1.4165,1.4235,1.4235,1.3091,1.2305,1.2305,1.1391,1.1242,1.2224,1.1391,1.1236,1.2224,1.1996,1.1774,1.1774,1.1471,1.1323,1.1323,1.1323,1.1323,1.1323,1.1323,1.1323,1.1323,1.1323,1.1323,1.1323,1.162,1.1774,1.1848,1.215,1.2305,1.2305,1.2305,1.2305,1.2224,1.1922,1.1774,1.1774,1.1774,1.1545,1.1174,1.049,1.072,1.1025,0.9674,1.0196,1.1174,1.049,1.0795,1.1323,1.1694,1.1774,1.2063,1.3018,1.3237,1.3528,1.445,1.4665,1.495,1.593,1.6149,1.6428,1.7364,1.7794,1.8008,1.8008,1.8462,1.8844,1.8844,1.9365,1.9814,2.0139,2.0139,2.0526,2.1365,2.1928,2.2372,2.2702,2.2944,2.3078,2.3078,2.3078,2.3078,2.3078,2.3078,2.3078,2.3078,2.3078,2.3078,2.3078,2.3078,2.3078,1.1996,1.1848,1.1465,1.215,1.1842,1.1465,1.215,1.2592,1.2879,1.3171,1.4019,1.4736,1.4665,1.5234,1.5587,1.5234,1.5234,1.5234,0.0,1.5234,1.5234,1.5234,1.4091,1.3302,1.3302,1.2771,1.2618,1.3302,1.2412,1.2124,1.2732,1.2445,1.2305,1.2305,1.2305,1.2305,1.2305,1.2305,1.2305,1.2305,1.2305,1.2305,1.2305,1.2305,1.2305,1.2305,1.2305,1.2305,1.2305,1.2305,1.2305,1.2305,1.2305,1.2305,1.2305,1.2305,1.2305,1.2305,1.2305,1.2305,1.2224,1.1539,1.1768,1.2077,1.0726,1.1248,1.215,1.1539,1.1768,1.2378,1.2732,1.2806,1.3025,1.4027,1.4243,1.4522,1.5508,1.572,1.6009,1.6922,1.7326,1.7736,1.8385,1.8721,1.8854,1.8529,1.8911,1.9431,1.9694,2.0268,2.0719,2.1037,2.1037,2.1428,2.2249,2.2823,2.3078,2.3078,2.3078,2.3078,2.3078,2.3078,2.3226,2.3439,2.3238,2.3238,2.3439,2.3178,2.3078,2.3078,2.3078,2.3078]}]]